[[{"header":{"parameterUnit":"m.s-1","parameterCategory":1,"la1":31.0,"la2":29.5877,"lo1":-88.7671,"lo2":-86.6584,"dy":0.0162,"dx":0.0185,"nx":115,"ny":88,"refTime":"2024-03-18T12:00:00:Z","depth":0,"parameterNumber":2,"parameterNumberName":"U-component_of_WINDS"},"data":[0.0,0.0,0.0,0.0,0.0,0.0,0.0,0.0,0.0,0.0,0.0,0.0,0.0,0.0,0.0,0.0,0.0,0.0,0.0,0.0,0.0,0.0,0.0,0.0,0.0,0.0,0.0,0.0,0.0,0.0,0.0,0.0,0.0,0.0,0.0,0.0,0.0,0.0,0.0,0.0,0.0,0.0,0.0,0.0,0.0,0.0,0.0,0.0,0.0,0.0,0.0,0.0,0.0,0.0,0.0,0.0,0.0,0.0,0.0,0.0,0.0,0.0,0.0,0.0,0.0,0.0,0.0,0.0,0.0,0.0,0.0,0.0,0.0,0.0,0.0,0.0,0.0,0.0,0.0,0.0,0.0,0.0,0.0,0.0,0.0,0.0,0.0,0.0,0.0,0.0,0.0,0.0,0.0,0.0,0.0,0.0,0.0,0.0,0.0,0.0,0.0,0.0,0.0,0.0,0.0,0.0,0.0,0.0,0.0,0.0,0.0,0.0,0.0,0.0,0.0,0.0,0.0,0.0,0.0,0.0,0.0,0.0,0.0,0.0,0.0,0.0,0.0,0.0,0.0,0.0,0.0,0.0,0.0,0.0,0.0,0.0,0.0,0.0,0.0,0.0,0.0,0.0,0.0,0.0,0.0,0.0,0.0,0.0,0.0,0.0,0.0,0.0,0.0,0.0,0.0,0.0,0.0,0.0,0.0,0.0,0.0,0.0,0.0,0.0,0.0,0.0,0.0,0.0,0.0,0.0,0.0,0.0,0.0,0.0,0.0,0.0,0.0,0.0,0.0,0.0,0.0,0.0,0.0,0.0,0.0,0.0,0.0,0.0,0.0,0.0,0.0,0.0,0.0,0.0,0.0,0.0,0.0,0.0,0.0,0.0,0.0,0.0,0.0,0.0,0.0,0.0,0.0,0.0,0.0,0.0,0.0,0.0,0.0,0.0,0.0,0.0,0.0,0.0,0.0,0.0,0.0,0.0,0.0,0.0,0.0,0.0,0.0,0.0,0.0,0.0,0.0,0.0,0.0,0.0,0.0,0.0,0.0,0.0,0.0,0.0,0.0,0.0,0.0,0.0,0.0,0.0,0.0,0.0,0.0,0.0,0.0,0.0,0.0,0.0,0.0,0.0,0.0,0.0,0.0,0.0,0.0,0.0,0.0,0.0,0.0,0.0,0.0,0.0,0.0,0.0,0.0,0.0,0.0,0.0,0.0,0.0,0.0,0.0,0.0,0.0,0.0,0.0,0.0,0.0,0.0,0.0,0.0,0.0,0.0,0.0,0.0,0.0,0.0,0.0,0.0,0.0,0.0,0.0,0.0,0.0,0.0,0.0,0.0,0.0,0.0,0.0,0.0,0.0,0.0,0.0,0.0,0.0,0.0,0.0,0.0,0.0,0.0,0.0,0.0,0.0,0.0,0.0,0.0,0.0,0.0,0.0,0.0,0.0,0.0,0.0,0.0,0.0,0.0,0.0,0.0,0.0,0.0,0.0,0.0,0.0,0.0,0.0,0.0,0.0,0.0,0.0,0.0,0.0,0.0,0.0,0.0,0.0,0.0,0.0,0.0,0.0,0.0,0.0,0.0,0.0,0.0,0.0,0.0,0.0,0.0,0.0,0.0,0.0,0.0,0.0,0.0,0.0,0.0,0.0,0.0,0.0,0.0,0.0,0.0,0.0,0.0,0.0,0.0,0.0,0.0,0.0,0.0,0.0,0.0,0.0,0.0,0.0,0.0,0.0,0.0,0.0,0.0,0.0,0.0,0.0,0.0,0.0,0.0,0.0,0.0,0.0,0.0,0.0,0.0,0.0,0.0,0.0,0.0,0.0,0.0,0.0,0.0,0.0,0.0,0.0,0.0,0.0,0.0,0.0,0.0,0.0,0.0,0.0,0.0,0.0,0.0,0.0,0.0,0.0,0.0,0.0,0.0,0.0,0.0,0.0,0.0,0.0,0.0,0.0,0.0,0.0,0.0,0.0,0.0,0.0,0.0,0.0,0.0,0.0,0.0,0.0,0.0,0.0,0.0,0.0,0.0,0.0,0.0,0.0,0.0,0.0,0.0,0.0,0.0,0.0,0.0,0.0,0.0,0.0,0.0,0.0,0.0,0.0,0.0,0.0,0.0,0.0,0.0,0.0,0.0,0.0,0.0,0.0,0.0,0.0,0.0,0.0,0.0,0.0,0.0,0.0,0.0,0.0,0.0,0.0,0.0,0.0,0.0,0.0,0.0,0.0,0.0,0.0,0.0,0.0,0.0,0.0,0.0,0.0,0.0,0.0,0.0,0.0,0.0,0.0,0.0,0.0,0.0,0.0,0.0,0.0,0.0,0.0,0.0,0.0,0.0,0.0,0.0,0.0,0.0,0.0,0.0,0.0,0.0,0.0,0.0,0.0,0.0,0.0,0.0,0.0,0.0,0.0,0.0,0.0,0.0,0.0,0.0,0.0,0.0,0.0,0.0,0.0,0.0,0.0,0.0,0.0,0.0,0.0,0.0,0.0,0.0,0.0,0.0,0.0,0.0,0.0,0.0,0.0,0.0,0.0,0.0,0.0,0.0,0.0,0.0,0.0,0.0,0.0,0.0,0.0,0.0,0.0,0.0,0.0,0.0,0.0,0.0,0.0,0.0,0.0,0.0,0.0,0.0,0.0,0.0,0.0,0.0,0.0,0.0,0.0,0.0,0.0,0.0,0.0,0.0,0.0,0.0,0.0,0.0,0.0,0.0,0.0,0.0,0.0,0.0,0.0,0.0,0.0,0.0,0.0,0.0,0.0,0.0,0.0,0.0,0.0,0.0,0.0,0.0,0.0,0.0,0.0,0.0,0.0,0.0,0.0,0.0,0.0,0.0,0.0,0.0,0.0,0.0,0.0,0.0,0.0,0.0,0.0,0.0,0.0,0.0,0.0,0.0,0.0,0.0,0.0,0.0,0.0,0.0,0.0,0.0,0.0,0.0,0.0,0.0,0.0,0.0,0.0,0.0,0.0,0.0,0.0,0.0,0.0,0.0,0.0,0.0,0.0,0.0,0.0,0.0,0.0,0.0,0.0,0.0,0.0,0.0,0.0,0.0,0.0,0.0,0.0,0.0,0.0,0.0,0.0,0.0,0.0,0.0,0.0,0.0,0.0,0.0,0.0,0.0,0.0,0.0,0.0,0.0,0.0,0.0,0.0,0.0,0.0,0.0,0.0,0.0,0.0,0.0,0.0,0.0,0.0,0.0,0.0,0.0,0.0,0.0,0.0,0.0,0.0,0.0,0.0,0.0,0.0,0.0,0.0,0.0,0.0,0.0,0.0,0.0,0.0,0.0,0.0,0.0,0.0,0.0,0.0,0.0,0.0,0.0,0.0,0.0,0.0,0.0,0.0,0.0,0.0,0.0,0.0,0.0,0.0,0.0,0.0,0.0,0.0,0.0,0.0,0.0,0.0,0.0,0.0,0.0,0.0,0.0,0.0,0.0,0.0,0.0,0.0,0.0,0.0,0.0,0.0,0.0,0.0,0.0,0.0,0.0,0.0,0.0,0.0,0.0,0.0,0.0,0.0,0.0,0.0,0.0,0.0,0.0,0.0,0.0,0.0,0.0,0.0,0.0,0.0,0.0,0.0,0.0,0.0,0.0,0.0,0.0,0.0,0.0,0.0,0.0,0.0,0.0,0.0,0.0,0.0,0.0,0.0,0.0,0.0,0.0,0.0,0.0,0.0,0.0,0.0,0.0,0.0,0.0,0.0,0.0,0.0,0.0,0.0,0.0,0.0,0.0,0.0,0.0,0.0,0.0,0.0,0.0,0.0,0.0,0.0,0.0,0.0,0.0,0.0,0.0,0.0,0.0,0.0,0.0,0.0,0.0,0.0,0.0,0.0,0.0,0.0,0.0,0.0,0.0,0.0,0.0,0.0,0.0,0.0,0.0,0.0,0.0,0.0,0.0,0.0,0.0,0.0,0.0,0.0,0.0,0.0,0.0,0.0,0.0,0.0,0.0,0.0,0.0,0.0,0.0,0.0,0.0,0.0,0.0,0.0,0.0,0.0,0.0,0.0,0.0,0.0,0.0,0.0,0.0,0.0,0.0,0.0,0.0,0.0,0.0,0.0,0.0,0.0,0.0,0.0,0.0,0.0,0.0,0.0,0.0,0.0,0.0,0.0,0.0,0.0,0.0,0.0,0.0,0.0,0.0,0.0,0.0,0.0,0.0,0.0,0.0,0.0,0.0,0.0,0.0,0.0,0.0,0.0,0.0,0.0,0.0,0.0,0.0,0.0,0.0,0.0,0.4794,0.0,0.0,0.0,0.0,0.0,0.0,0.0,0.0,0.0,0.0,0.0,0.0,0.0,0.0,0.0,0.0,0.0,0.0,0.0,0.0,0.0,0.0,0.0,0.0,0.0,0.0,0.0,0.0,0.0,0.0,0.0,0.0,0.0,0.0,0.0,0.0,0.0,0.0,0.0,0.0,0.0,0.0,0.0,0.0,0.0,0.0,0.0,0.0,0.0,0.0,0.0,0.0,0.0,0.0,0.0,0.0,0.0,0.0,0.0,0.0,0.0,0.0,0.0,0.0,0.0,0.0,0.0,0.0,0.0,0.0,0.0,0.0,0.0,0.0,0.0,0.0,0.0,0.0,0.0,0.0,0.0,0.0,0.0,0.0,0.0,0.0,0.0,0.0,0.0,0.0,0.0,0.0,0.0,0.0,0.0,0.0,0.0,0.0,0.0,0.0,0.0,0.0,0.0,0.0,0.0,0.0,0.0,0.0,0.0,0.0,0.4815,0.4846,0.4868,0.4857,0.4846,0.0,0.0,0.0,0.0,0.0,0.0,0.0,0.0,0.0,0.0,0.0,0.0,0.0,0.0,0.0,0.0,0.0,0.0,0.0,0.0,0.0,0.0,0.0,0.0,0.0,0.0,0.0,0.0,0.0,0.0,0.0,0.0,0.0,0.0,0.0,0.0,0.0,0.0,0.0,0.0,0.0,0.0,0.0,0.0,0.0,0.0,0.0,0.0,0.0,0.0,0.0,0.0,0.0,0.0,0.0,0.0,0.0,0.0,0.0,0.0,0.0,0.0,0.0,0.0,0.0,0.0,0.0,0.0,0.0,0.0,0.0,0.0,0.0,0.0,0.0,0.0,0.0,0.0,0.0,0.0,0.0,0.0,0.0,0.0,0.0,0.0,0.0,0.0,0.0,0.0,0.0,0.0,0.0,0.0,0.0,0.0,0.0,0.0,0.0,0.0,0.0,0.0,0.0,0.0,0.0,0.0,0.0,0.0,0.0,0.0,0.0,0.0,0.4907,0.4915,0.4915,0.0,0.0,0.0,0.0,0.0,0.0,0.0,0.0,0.0,0.0,0.0,0.0,0.0,0.0,0.0,0.0,0.0,0.0,0.0,0.0,0.0,0.0,0.0,0.0,0.0,0.0,0.0,0.0,0.0,0.0,0.0,0.0,0.0,0.0,0.0,0.0,0.0,0.0,0.0,0.0,0.0,0.0,0.0,0.0,0.0,0.0,0.0,0.0,0.0,0.0,0.0,0.0,0.0,0.0,0.0,0.0,0.0,0.0,0.0,0.0,0.0,0.0,0.0,0.0,0.0,0.0,0.0,0.0,0.0,0.0,0.0,0.0,0.0,0.0,0.0,0.0,0.0,0.0,0.0,0.0,0.0,0.0,0.0,0.0,0.0,0.0,0.0,0.0,0.0,0.0,0.0,0.0,0.0,0.0,0.0,0.0,0.0,0.0,0.0,0.0,0.0,0.0,0.0,0.0,0.0,0.0,0.0,0.0,0.0,0.0,0.3329,0.4852,0.4907,0.0,0.4897,0.0,0.0,0.0,0.0,0.0,0.0,0.0,0.0,0.0,0.0,0.0,0.0,0.0,0.0,0.0,0.0,0.0,0.0,0.0,0.0,0.0,0.0,0.0,0.0,0.0,0.0,0.0,0.0,0.0,0.0,0.0,0.0,0.0,0.0,0.0,0.0,0.0,0.0,0.0,0.0,0.0,0.0,0.0,0.0,0.0,0.0,0.0,0.0,0.0,0.0,0.0,0.0,0.0,0.0,0.0,0.0,0.0,0.0,0.0,0.0,0.0,0.0,0.0,0.0,0.0,0.0,0.0,0.0,0.0,0.0,0.0,0.0,0.0,0.0,0.0,0.0,0.0,0.0,0.0,0.0,0.0,0.0,0.0,0.0,0.0,0.0,0.0,0.0,0.0,0.0,0.0,0.0,0.0,0.0,0.0,0.0,0.0,0.0,0.0,0.0,0.0,0.0,0.0,0.0,0.0,0.0,0.0,0.0,0.0,0.0,0.3197,0.4862,0.4921,0.4914,0.0,0.0,0.0,0.0,0.0,0.0,0.0,0.0,0.0,0.0,0.0,0.0,0.0,0.0,0.0,0.0,0.0,0.0,0.0,0.0,0.0,0.0,0.0,0.0,0.0,0.0,0.0,0.0,0.0,0.0,0.0,0.0,0.0,0.0,0.0,0.0,0.0,0.0,0.0,0.0,0.0,0.0,0.0,0.0,0.0,0.0,0.0,0.0,0.0,0.0,0.0,0.0,0.0,0.0,0.0,0.0,0.0,0.0,0.0,0.0,0.0,0.0,0.0,0.0,0.0,0.0,0.0,0.0,0.0,0.0,0.0,0.0,0.0,0.0,0.0,0.0,0.0,0.0,0.0,0.0,0.0,0.0,0.0,0.0,0.0,0.0,0.0,0.0,0.0,0.0,0.0,0.0,0.0,0.0,0.0,0.0,0.0,0.0,0.0,0.0,0.0,0.0,0.0,0.0,0.0,0.0,0.0,0.0,0.0,0.0,0.2423,0.3208,0.4797,0.4916,0.4906,0.4907,0.0,0.0,0.0,0.0,0.0,0.0,0.0,0.0,0.0,0.0,0.0,0.0,0.0,0.0,0.0,0.0,0.0,0.0,0.0,0.0,0.0,0.0,0.0,0.0,0.0,0.0,0.0,0.0,0.0,0.0,0.0,0.0,0.0,0.0,0.0,0.0,0.0,0.0,0.0,0.0,0.0,0.0,0.0,0.0,0.0,0.0,0.0,0.0,0.0,0.0,0.0,0.0,0.0,0.0,0.0,0.0,0.0,0.0,0.0,0.0,0.0,0.0,0.0,0.0,0.0,0.0,0.0,0.0,0.0,0.0,0.0,0.0,0.0,0.0,0.0,0.0,0.0,0.0,0.0,0.0,0.0,0.0,0.0,0.0,0.0,0.0,0.0,0.0,0.0,0.0,0.0,0.0,0.0,0.0,0.0,0.0,0.0,0.0,0.0,0.0,0.0,0.0,0.0,0.0,0.0,0.0,0.0,0.0,0.2426,0.252,0.3277,0.4859,0.4916,0.4906,0.0,0.0,0.0,0.0,0.0,0.0,0.0,0.0,0.0,0.0,0.0,0.0,0.0,0.0,0.0,0.0,0.0,0.0,0.0,0.0,0.0,0.0,0.0,0.0,0.0,0.0,0.0,0.0,0.0,0.0,0.0,0.0,0.0,0.0,0.0,0.0,0.0,0.0,0.0,0.0,0.0,0.0,0.0,0.0,0.0,0.0,0.0,0.0,0.0,0.0,0.0,0.0,0.0,0.0,0.0,0.0,0.0,0.0,0.0,0.0,0.0,0.0,0.0,0.0,0.0,0.0,0.0,0.0,0.0,0.0,0.0,0.0,0.0,0.0,0.0,0.0,0.0,0.0,0.0,0.0,0.0,0.0,0.0,0.0,0.0,0.0,0.0,0.0,0.0,0.0,0.0,0.0,0.0,0.0,0.0,0.0,0.0,0.0,0.0,0.0,0.0,0.0,0.0,0.0,0.0,0.0,0.0,0.0,0.0,0.2447,0.3547,0.4331,0.4875,0.4913,0.4906,0.0,0.0,0.0,0.0,0.0,0.0,0.0,0.0,0.0,0.0,0.0,0.0,0.0,0.0,0.0,0.0,0.0,0.0,0.0,0.0,0.0,0.0,0.0,0.0,0.0,0.0,0.0,0.0,0.0,0.0,0.0,0.0,0.0,0.0,0.0,0.0,0.0,0.0,0.0,0.0,0.0,0.0,0.0,0.0,0.0,0.0,0.0,0.0,0.0,0.0,0.0,0.0,0.0,0.0,0.0,0.0,0.0,0.0,0.0,0.0,0.0,0.0,0.0,0.0,0.0,0.0,0.0,0.0,0.0,0.0,0.0,0.0,0.0,0.0,0.0,0.0,0.0,0.0,0.0,0.0,0.0,0.0,0.0,0.0,0.0,0.0,0.0,0.0,0.0,0.0,0.0,0.0,0.0,0.0,0.0,0.0,0.0,0.0,0.0,0.0,0.0,0.0,0.0,0.0,0.0,0.0,0.0,0.0,0.0,0.2528,0.0,0.4965,0.495,0.4931,0.495,0.0,0.0,0.0,0.0,0.0,0.0,0.0,0.0,0.0,0.0,0.0,0.0,0.0,0.0,0.0,0.0,0.0,0.0,0.0,0.0,0.0,0.0,0.0,0.0,0.0,0.0,0.0,0.0,0.0,0.0,0.0,0.0,0.0,0.0,0.0,0.0,0.0,0.0,0.0,0.0,0.0,0.0,0.0,0.0,0.0,0.0,0.0,0.0,0.0,0.0,0.0,0.0,0.0,0.0,0.0,0.0,0.0,0.0,0.0,0.0,0.0,0.0,0.0,0.0,0.0,0.0,0.0,0.0,0.0,0.0,0.0,0.0,0.0,0.0,0.0,0.0,0.0,0.0,0.0,0.0,0.0,0.0,0.0,0.0,0.0,0.0,0.0,0.0,0.0,0.0,0.0,0.0,0.0,0.0,0.0,0.0,0.0,0.0,0.0,0.0,0.0,0.0,0.0,0.0,0.0,0.0,0.0,0.0,0.4178,0.2676,0.4146,0.5011,0.5005,0.5005,0.5002,0.0,0.0,0.0,0.0,0.0,0.0,0.0,0.0,0.0,0.0,0.0,0.0,0.0,0.0,0.0,0.0,0.0,0.0,0.0,0.0,0.0,0.0,0.0,0.0,0.0,0.0,0.0,0.0,0.0,0.0,0.0,0.0,0.0,0.0,0.0,0.0,0.0,0.0,0.0,0.0,0.0,0.0,0.0,0.0,0.0,0.0,0.0,0.0,0.0,0.0,0.0,0.0,0.0,0.0,0.0,0.0,0.0,0.0,0.0,0.0,0.0,0.0,0.0,0.0,0.0,0.0,0.0,0.0,0.0,0.0,0.0,0.0,0.0,0.0,0.0,0.0,0.0,0.0,0.0,0.0,0.0,0.0,0.0,0.0,0.0,0.0,0.0,0.0,0.0,0.0,0.0,0.0,0.0,0.0,0.0,0.0,0.0,0.0,0.0,0.0,0.0,0.0,0.0,0.0,0.0,0.0,0.0,0.0,0.0,0.4257,0.4738,0.5003,0.5008,0.5005,0.5005,0.0,0.0,0.0,0.0,0.0,0.0,0.0,0.0,0.0,0.0,0.0,0.0,0.0,0.0,0.0,0.0,0.0,0.0,0.0,0.0,0.0,0.0,0.0,0.0,0.0,0.0,0.0,0.0,0.0,0.0,0.0,0.0,0.0,0.0,0.0,0.0,0.0,0.0,0.0,0.0,0.0,0.0,0.0,0.0,0.0,0.0,0.0,0.0,0.0,0.0,0.0,0.0,0.0,0.0,0.0,0.0,0.0,0.0,0.0,0.0,0.0,0.0,0.0,0.0,0.0,0.0,0.0,0.0,0.0,0.0,0.0,0.0,0.0,0.0,0.0,0.0,0.0,0.0,0.0,0.0,0.0,0.0,0.0,0.0,0.0,0.0,0.0,0.0,0.0,0.0,0.0,0.0,0.0,0.0,0.0,0.0,0.0,0.0,0.0,0.0,0.0,0.0,0.0,0.0,0.0,0.0,0.0,0.0,0.0,0.5008,0.5006,0.5008,0.5003,0.5003,0.4998,0.5,0.0,0.0,0.0,0.0,0.0,0.0,0.0,0.0,0.0,0.0,0.0,0.0,0.0,0.0,0.0,0.0,0.0,0.0,0.0,0.0,0.0,0.0,0.0,0.0,0.0,0.0,0.0,0.0,0.0,0.0,0.0,0.0,0.0,0.0,0.0,0.0,0.0,0.0,0.0,0.0,0.0,0.0,0.0,0.0,0.0,0.0,0.0,0.0,0.0,0.0,0.0,0.0,0.0,0.0,0.0,0.0,0.0,0.0,0.0,0.0,0.0,0.0,0.0,0.0,0.0,0.0,0.0,0.0,0.0,0.0,0.0,0.0,0.0,0.0,0.0,0.0,0.0,0.0,0.0,0.0,0.0,0.0,0.0,0.0,0.0,0.0,0.0,0.0,0.0,0.0,0.0,0.0,0.0,0.0,0.0,0.0,0.0,0.0,0.0,0.0,0.0,0.0,0.0,0.0,0.0,0.0,0.0,0.0,0.5005,0.506,0.5052,0.4997,0.4997,0.4997,0.0,0.0,0.0,0.0,0.0,0.0,0.0,0.0,0.0,0.0,0.0,0.0,0.0,0.0,0.0,0.0,0.0,0.0,0.0,0.0,0.0,0.0,0.0,0.0,0.0,0.0,0.0,0.0,0.0,0.0,0.0,0.0,0.0,0.0,0.0,0.0,0.0,0.0,0.0,0.0,0.0,0.0,0.0,0.0,0.0,0.0,0.0,0.0,0.0,0.0,0.0,0.0,0.0,0.0,0.0,0.0,0.0,0.0,0.0,0.0,0.0,0.0,0.0,0.0,0.0,0.0,0.0,0.0,0.0,0.0,0.0,0.0,0.0,0.0,0.0,0.0,0.0,0.0,0.0,0.0,0.0,0.0,0.0,0.0,0.0,0.0,0.0,0.0,0.0,0.0,0.0,0.0,0.0,0.0,0.0,0.0,0.0,0.0,0.0,0.0,0.0,0.0,0.0,0.0,0.0,0.0,0.0,0.0,0.0,0.5027,0.5581,0.5591,0.5033,0.4997,0.4997,0.0,0.0,0.0,0.0,0.0,0.0,0.0,0.0,0.0,0.0,0.0,0.0,0.0,0.0,0.0,0.0,0.0,0.0,0.0,0.0,0.0,0.0,0.0,0.0,0.0,0.0,0.0,0.0,0.0,0.0,0.0,0.0,0.0,0.0,0.0,0.0,0.0,0.0,0.0,0.0,0.0,0.0,0.0,0.0,0.0,0.0,0.0,0.0,0.0,0.0,0.0,0.0,0.0,0.0,0.0,0.0,0.0,0.0,0.0,0.0,0.0,0.0,0.0,0.0,0.0,0.0,0.0,0.0,0.0,0.0,0.0,0.0,0.0,0.0,0.0,0.0,0.0,0.0,0.0,0.0,0.0,0.0,0.0,0.0,0.0,0.0,0.0,0.0,0.0,0.0,0.0,0.0,0.0,0.0,0.0,0.0,0.0,0.0,0.0,0.0,0.0,0.0,0.0,0.0,0.0,0.0,0.0,0.0,0.5326,0.5024,0.5786,0.5979,0.5534,0.5543,0.5377,0.0,0.0,0.0,0.0,0.0,0.0,0.0,0.0,0.0,0.0,0.0,0.0,0.0,0.0,0.0,0.0,0.0,0.0,0.0,0.0,0.0,0.0,0.0,0.0,0.0,0.0,0.0,0.0,0.0,0.0,0.0,0.0,0.0,0.0,0.0,0.0,0.0,0.0,0.0,0.0,0.0,0.0,0.0,0.0,0.0,0.0,0.0,0.0,0.0,0.0,0.0,0.0,0.0,0.0,0.0,0.0,0.0,0.0,0.0,0.0,0.0,0.0,0.0,0.0,0.0,0.0,0.0,0.0,0.0,0.0,0.0,0.0,0.0,0.0,0.0,0.0,0.0,0.0,0.0,0.0,0.0,0.0,0.0,0.0,0.0,0.0,0.0,0.0,0.0,0.0,0.0,0.0,0.0,0.0,0.0,0.0,0.0,0.0,0.0,0.0,0.0,0.0,0.0,0.0,0.0,0.0,0.0,0.0,0.5887,0.527,0.6051,0.6425,0.6331,0.6223,0.5849,0.0,0.0,0.0,0.0,0.0,0.0,0.0,0.0,0.0,0.0,0.0,0.0,0.0,0.0,0.0,0.0,0.0,0.0,0.0,0.0,0.0,0.0,0.0,0.0,0.0,0.0,0.0,0.0,0.0,0.0,0.0,0.0,0.0,0.0,0.0,0.0,0.0,0.0,0.0,0.0,0.0,0.0,0.0,0.0,0.0,0.0,0.0,0.0,0.0,0.0,0.0,0.0,0.0,0.0,0.0,0.0,0.0,0.0,0.0,0.0,0.0,0.0,0.0,0.0,0.0,0.0,0.0,0.0,0.0,0.0,0.0,0.0,0.0,0.0,0.0,0.0,0.0,0.0,0.0,0.0,0.0,0.0,0.0,0.0,0.0,0.0,0.0,0.0,0.0,0.0,0.0,0.0,0.0,0.0,0.0,0.0,0.0,0.0,0.0,0.0,0.0,0.0,0.0,0.0,0.0,0.0,0.0,0.0,0.6466,0.698,0.7763,0.7876,0.7234,0.5951,0.548,0.0,0.0,0.0,0.0,0.0,0.0,0.0,0.0,0.0,0.0,0.0,0.0,0.0,0.0,0.0,0.0,0.0,0.0,0.0,0.0,0.0,0.0,0.0,0.0,0.0,0.0,0.0,0.0,0.0,0.0,0.0,0.0,0.0,0.0,0.0,0.0,0.0,0.0,0.0,0.0,0.0,0.0,0.0,0.0,0.0,0.0,0.0,0.0,0.457,0.0,0.0,0.0,0.0,0.0,0.0,0.0,0.0,0.0,0.0,0.0,0.0,0.0,0.0,0.0,0.0,0.0,0.0,0.0,0.0,0.0,0.0,0.0,0.0,0.0,0.0,0.0,0.0,0.0,0.0,0.0,0.0,0.0,0.0,0.0,0.0,0.0,0.0,0.0,0.0,0.0,0.0,0.0,0.0,0.0,0.0,0.0,0.0,0.0,0.0,0.0,0.0,0.0,0.0,0.0,0.0,0.0,0.0,0.0,0.6997,0.7509,0.8287,0.849,0.8051,0.6792,0.6138,0.0,0.0,0.0,0.0,0.0,0.0,0.0,0.0,0.0,0.0,0.0,0.0,0.0,0.0,0.0,0.0,0.0,0.0,0.0,0.0,0.0,0.0,0.0,0.0,0.0,0.0,0.0,0.0,0.0,0.0,0.0,0.0,0.0,0.0,0.0,0.0,0.0,0.0,0.0,0.0,0.0,0.0,0.0,0.0,0.0,0.0,0.0,0.0,0.0,0.0,0.0,0.0,0.0,0.0,0.0,0.0,0.0,0.0,0.0,0.0,0.0,0.0,0.0,0.0,0.0,0.0,0.0,0.0,0.0,0.0,0.0,0.0,0.0,0.0,0.0,0.0,0.0,0.0,0.0,0.0,0.0,0.0,0.0,0.0,0.0,0.0,0.0,0.0,0.0,0.0,0.0,0.0,0.0,0.0,0.0,0.0,0.0,0.0,0.0,0.0,0.0,0.0,0.0,0.0,0.0,0.0,0.0,0.714,0.7674,0.7886,0.8527,0.8886,0.887,0.8182,0.7345,0.6425,0.0,0.0,0.0,0.0,0.0,0.0,0.0,0.0,0.0,0.0,0.0,0.0,0.0,0.0,0.0,0.0,0.0,0.0,0.0,0.0,0.0,0.0,0.0,0.0,0.0,0.0,0.0,0.0,0.0,0.0,0.0,0.0,0.0,0.0,0.0,0.0,0.0,0.0,0.4667,0.4782,0.0,0.0,0.0,0.0,0.0,0.0,0.0,0.0,0.5215,0.0,0.0,0.0,0.0,0.0,0.0,0.0,0.0,0.0,0.0,0.0,0.0,0.0,0.0,0.0,0.0,0.0,0.0,0.0,0.0,0.0,0.0,0.0,0.0,0.0,0.0,0.0,0.0,0.0,0.0,0.0,0.0,0.0,0.0,0.0,0.0,0.0,0.0,0.0,0.0,0.0,0.0,0.0,0.0,0.0,0.0,0.0,0.0,0.0,0.0,0.0,0.0,0.0,0.0,0.0,0.0,0.7181,0.7981,0.8762,0.9478,0.9629,0.9704,0.9704,0.9555,0.8784,0.7324,0.0,0.0,0.0,0.0,0.0,0.0,0.0,0.0,0.0,0.0,0.0,0.0,0.0,0.0,0.0,0.0,0.0,0.0,0.0,0.0,0.0,0.0,0.0,0.0,0.0,0.0,0.0,0.0,0.0,0.0,0.0,0.0,0.0,0.0,0.0,0.0,0.0,0.0,0.0,0.6104,0.653,0.0,0.0,0.0,0.0,0.0,0.0,0.0,0.0,0.829,0.0,0.0,0.0,0.0,0.0,0.0,0.0,0.0,0.0,0.0,0.0,0.0,0.0,0.0,0.0,0.0,0.0,0.0,0.0,0.0,0.0,0.0,0.0,0.0,0.0,0.0,0.0,0.0,0.0,0.0,0.0,0.0,0.0,0.0,0.0,0.0,0.0,0.0,0.0,0.0,0.0,0.0,0.0,0.0,0.0,0.0,0.0,0.0,0.0,0.0,0.0,0.0,0.0,0.0,0.0,0.6771,0.7996,0.8854,0.9265,0.9284,0.9284,0.9284,0.9687,0.8945,0.0,0.0,0.0,0.0,0.0,0.0,0.0,0.0,0.0,0.0,0.0,0.0,0.0,0.0,0.0,0.0,0.0,0.0,0.0,0.0,0.0,0.0,0.0,0.0,0.0,0.0,0.0,0.0,0.0,0.0,0.0,0.0,0.0,0.0,0.0,0.0,0.0,0.0,0.0,0.0,0.6833,0.7609,0.8192,0.0,0.0,0.0,0.0,0.0,0.0,0.8429,0.9247,0.0,0.0,0.0,0.0,0.0,0.0,0.0,0.0,0.0,0.0,0.0,0.0,0.0,0.0,0.0,0.0,0.0,0.0,0.0,0.0,0.0,0.0,0.0,0.0,0.0,0.0,0.0,0.0,0.0,0.0,0.0,0.0,0.0,0.0,0.0,0.0,0.0,0.0,0.0,0.0,0.0,0.0,0.0,0.0,0.0,0.0,0.0,0.0,0.0,0.0,0.0,0.0,0.0,0.0,0.0,0.6174,0.795,0.876,0.8464,0.8596,0.8601,0.8456,0.9066,0.839,0.0,0.0,0.0,0.0,0.0,0.0,0.0,0.0,0.0,0.0,0.0,0.0,0.0,0.0,0.0,0.0,0.0,0.0,0.0,0.0,0.0,0.0,0.0,0.0,0.0,0.0,0.0,0.0,0.0,0.0,0.0,0.0,0.0,0.0,0.0,0.0,0.0,0.0,0.0,0.0,0.0,0.8516,0.9296,0.9097,0.0,0.0,0.0,0.0,0.8661,0.9644,0.0,0.0,0.0,0.0,0.0,0.0,0.0,0.0,0.0,0.0,0.0,0.0,0.0,0.0,0.0,0.0,0.0,0.0,0.0,0.0,0.0,0.0,0.0,0.0,0.0,0.0,0.0,0.0,0.0,0.0,0.0,0.0,0.0,0.0,0.0,0.0,0.0,0.0,0.0,0.0,0.0,0.0,0.0,0.0,0.0,0.0,0.0,0.0,0.0,0.0,0.0,0.0,0.0,0.0,0.0,0.0,0.6207,0.8463,0.9003,0.7664,0.8232,0.8266,0.7575,0.765,0.7246,0.0,0.0,0.0,0.0,0.0,0.0,0.0,0.0,0.0,0.0,0.0,0.0,0.0,0.0,0.0,0.0,0.0,0.0,0.0,0.0,0.0,0.0,0.0,0.0,0.0,0.0,0.0,0.0,0.0,0.0,0.0,0.0,0.0,0.0,0.0,0.0,0.0,0.0,0.0,0.0,0.0,0.9357,0.9457,1.1009,1.2035,0.0,0.0,1.1525,1.319,1.3624,0.0,0.0,0.0,0.0,0.0,0.0,0.0,0.0,0.0,0.0,0.0,0.0,0.0,0.0,0.0,0.0,0.0,0.0,0.0,0.0,0.0,0.0,0.0,0.0,0.0,0.0,0.0,0.0,0.0,0.0,0.0,0.0,0.0,0.0,0.0,0.0,0.0,0.0,0.0,0.0,0.0,0.0,0.0,0.0,0.0,0.0,0.0,0.0,0.0,0.0,0.0,0.0,0.0,0.0,0.0,0.6214,0.551,0.7401,0.7884,0.6778,0.7066,0.715,0.6934,0.6407,0.5956,0.0,0.0,0.0,0.0,0.0,0.0,0.0,0.0,0.0,0.0,0.0,0.0,0.0,0.0,0.0,0.0,0.0,0.0,0.0,0.0,0.0,0.0,0.0,0.0,0.0,0.0,0.0,0.0,0.0,0.0,0.0,0.0,0.0,0.0,0.0,0.0,0.0,0.0,0.0,0.0,0.0,0.0,1.0782,1.1634,0.0,0.0,0.0,1.2531,1.4071,0.0,0.0,0.0,0.0,0.0,0.0,0.0,0.0,0.0,0.0,0.0,0.0,0.0,0.0,0.0,0.0,0.0,0.0,0.0,0.0,0.0,0.0,0.0,0.0,0.0,0.0,0.0,0.0,0.0,0.0,0.0,0.0,0.0,0.0,0.0,0.0,0.0,0.0,0.0,0.0,0.0,0.0,0.0,0.0,0.0,0.0,0.0,0.0,0.0,0.0,0.0,0.0,0.0,0.0,0.0,0.0,0.0,0.4945,0.6554,0.6918,0.5946,0.6099,0.6198,0.6171,0.508,0.0,0.0,0.0,0.0,0.0,0.0,0.0,0.0,0.0,0.0,0.0,0.0,0.0,0.0,0.0,0.0,0.0,0.0,0.0,0.0,0.0,0.0,0.0,0.0,0.0,0.0,0.0,0.0,0.0,0.0,0.0,0.0,0.0,0.0,0.0,0.0,0.0,0.0,0.0,0.0,0.0,0.0,1.1218,1.1807,1.2242,1.3364,0.0,0.0,1.3926,1.4578,1.4474,1.4016,0.0,0.0,0.0,0.0,0.0,0.0,0.0,0.0,0.0,0.0,0.0,0.0,0.0,0.0,0.0,0.0,0.0,0.0,0.0,0.0,0.0,0.0,0.0,0.0,0.0,0.0,0.0,0.0,0.0,0.0,0.0,0.0,0.0,0.0,0.0,0.0,0.0,0.0,0.0,0.0,0.0,0.0,0.0,0.0,0.0,0.0,0.0,0.0,0.0,0.0,0.0,0.0,0.0,0.0,0.0,0.4984,0.655,0.6636,0.5179,0.5802,0.5857,0.5106,0.3523,0.3467,0.0,0.0,0.0,0.0,0.0,0.0,0.0,0.0,0.0,0.0,0.0,0.0,0.0,0.0,0.0,0.0,0.0,0.0,0.0,0.0,0.0,0.0,0.0,0.0,0.0,0.0,0.0,0.0,0.0,0.0,0.0,0.0,0.0,0.0,0.0,0.0,0.0,0.0,0.0,0.0,0.0,1.1854,1.188,1.3183,1.4216,0.0,0.0,1.6294,1.5859,1.4958,1.4275,1.4185,0.0,0.0,0.0,0.0,0.0,0.0,0.0,0.0,0.0,0.0,0.0,0.0,0.0,0.0,0.0,0.0,0.0,0.0,0.0,0.0,0.0,0.0,0.0,0.0,0.0,0.0,0.0,0.0,0.0,0.0,0.0,0.0,0.0,0.0,0.0,0.0,0.0,0.0,0.0,0.0,0.0,0.0,0.0,0.0,0.0,0.0,0.0,0.0,0.0,0.0,0.0,0.0,0.0,0.57,0.4934,0.6053,0.6118,0.5062,0.5309,0.5328,0.5003,0.4374,0.4373,0.0,0.0,0.0,0.0,0.0,0.0,0.0,0.0,0.0,0.0,0.0,0.0,0.0,0.0,0.0,0.0,0.0,0.0,0.0,0.0,0.0,0.0,0.0,0.0,0.0,0.0,0.0,0.0,0.0,0.0,0.0,0.0,0.0,0.0,0.0,0.0,0.0,0.0,0.0,0.0,0.0,1.2242,1.3256,1.3914,0.0,0.0,1.4831,1.561,1.6715,1.5429,1.4324,1.4324,1.1634,0.0,0.0,0.0,0.0,0.0,0.0,0.0,0.0,0.0,0.0,0.0,0.0,0.0,0.0,0.0,0.0,0.0,0.0,0.0,0.0,0.0,0.0,0.0,0.0,0.0,0.0,0.0,0.0,0.0,0.0,0.0,0.0,0.0,0.0,0.0,0.0,0.0,0.0,0.0,0.0,0.0,0.0,0.0,0.0,0.0,0.0,0.0,0.0,0.0,0.0,0.0,0.0,0.5712,0.4922,0.577,0.5813,0.5005,0.5012,0.5,0.4999,0.4512,0.4038,0.0,0.0,0.0,0.0,0.0,0.0,0.0,0.0,0.0,0.0,0.0,0.0,0.0,0.0,0.0,0.0,0.0,0.0,0.0,0.0,0.0,0.0,0.0,0.0,0.0,0.0,0.0,0.0,0.0,0.0,0.0,0.0,0.0,0.0,0.0,0.0,0.0,0.0,0.0,0.0,0.0,1.2481,1.4071,1.4324,1.4131,1.3654,1.3172,1.3715,1.6171,1.5271,1.3986,1.3027,0.0,0.0,0.0,0.0,0.0,0.0,0.0,0.0,0.0,0.0,0.0,0.0,0.0,0.0,0.0,0.0,0.0,0.0,0.0,0.0,0.0,0.0,0.0,0.0,0.0,0.0,0.0,0.0,0.0,0.0,0.0,0.0,0.0,0.0,0.0,0.0,0.0,0.0,0.0,0.0,0.0,0.0,0.0,0.0,0.0,0.0,0.0,0.0,0.0,0.0,0.0,0.0,0.0,0.5719,0.4938,0.5795,0.5824,0.5031,0.5,0.5006,0.4967,0.3414,0.1802,0.0254,0.0,0.0,0.0,0.0,0.0,0.0,0.0,0.0,0.0,0.0,0.0,0.0,0.0,0.0,0.0,0.0,0.0,0.0,0.0,0.0,0.0,0.0,0.0,0.0,0.0,0.0,0.0,0.0,0.0,0.0,0.0,0.0,0.0,0.0,0.0,0.0,0.0,0.0,0.0,1.1905,1.248,1.4071,1.4324,1.3763,1.2169,1.0639,1.0738,1.3895,1.4312,1.3208,0.0,0.0,0.0,0.0,0.0,0.0,0.0,0.0,0.0,0.0,0.0,0.0,0.0,0.0,0.0,0.0,0.0,0.0,0.0,0.0,0.0,0.0,0.0,0.0,0.0,0.0,0.0,0.0526,0.0612,0.0,0.0,0.0,0.0,0.0,0.0,0.0,0.0,0.0,0.0,0.0,0.459,0.5112,0.0,0.0,0.0,0.0,0.0,0.0,0.0,0.0,0.0,0.0,0.0,0.0,0.6569,0.5839,0.6618,0.6409,0.5058,0.4998,0.4978,0.4924,0.3326,0.166,0.0059,0.0,0.0,0.0,0.0,0.0,0.0,0.0,0.0,0.0,0.0,0.0,0.0,0.0,0.0,0.0,0.0,0.0,0.0,0.0,0.0,0.0,0.0,0.0,0.0,0.0,0.0,0.0,0.0,0.0,0.0,0.0,0.0,0.0,0.0,0.0,0.0,0.0,0.9654,1.0222,1.091,1.2071,1.4034,1.4324,1.3353,0.0,0.0,0.0,0.0,0.0,0.0,0.0,0.0,0.0,0.0,0.0,0.0,0.0,0.0,1.2051,0.7335,0.6465,0.7623,1.1379,0.0,0.0,0.0,0.0,0.0,0.0,0.0,0.0,0.0,0.0,0.0,0.0,0.0,0.0,0.0,0.0,0.0075,0.0,0.0,0.0,0.0,0.0,0.0,0.0,0.0,0.3277,0.3532,0.3615,0.4123,0.4212,0.0,0.4446,0.5384,0.0,0.0,0.0,0.0,0.0,0.0,0.0,0.0,0.7453,0.6724,0.7213,0.6847,0.5528,0.5154,0.4984,0.487,0.274,0.1061,0.0,0.0,0.0,0.0,0.0,0.0,0.0,0.0,0.0,0.0,0.0,0.0,0.0,0.0,0.0,0.0,0.0,0.0,0.0,0.0,0.0,0.0,0.0,0.0,0.0,0.0,0.1587,0.0,0.0,0.0,0.0,0.0,0.0,0.0,0.0,0.0,0.6257,0.811,0.9412,0.9448,1.0077,1.1232,1.3184,0.0,0.0,0.0,0.0,0.0,0.0,0.0,1.2115,1.2737,1.5429,1.7019,1.5393,1.2937,1.2557,1.6802,0.0,0.0,0.9991,0.8968,1.0286,1.4506,1.5771,1.5931,1.5086,1.5141,1.5019,0.0,0.0,0.0,0.0,0.0,0.0,0.0,0.0,-0.0362,-0.0294,0.0,-0.0113,0.0,0.0,0.0,0.0,0.0,0.0,0.0,0.0,0.0411,0.0327,0.0498,0.1731,0.2483,0.2879,0.413,0.4877,0.5051,0.3973,0.0,0.0,0.0,0.0,0.0,0.0,0.8172,0.7362,0.7311,0.6969,0.6144,0.5348,0.4906,0.4721,0.1707,0.0,0.0,0.0,0.0,0.0,0.0,0.0,0.0,0.0,0.0,0.0,0.0,0.0,0.0,0.0,0.0,0.0,0.0,0.0,0.0,0.0,0.0,0.0,0.0,0.0,0.0,0.2744,0.0,0.0,0.0,0.0,0.0,0.0,0.0,0.0,0.0,0.0,0.9073,0.9358,0.943,0.9492,0.0,0.0,0.0,0.0,0.9974,1.1555,1.1882,1.1442,0.987,1.09,1.3509,1.8218,0.0,0.0,1.7128,1.561,1.561,1.8526,1.9014,1.7654,1.3102,1.2255,1.3259,1.634,1.8115,1.8372,1.65,1.6518,1.6927,-0.2749,0.0,0.0,0.0,0.0,-0.1459,-0.1293,-0.1083,-0.0924,-0.0845,-0.0792,-0.0527,0.0,0.0,0.0,0.0,0.0,0.0,0.0026,0.0,-0.0134,-0.019,-0.0163,0.0237,0.0535,0.0838,0.1288,0.1636,0.1847,0.1528,0.2399,0.443,0.0,0.0,0.0,0.0,0.5327,0.5151,0.5049,0.4614,0.381,0.4028,0.3824,0.3128,0.1094,0.0,0.0,0.0,0.0,0.0,0.0,0.0,0.0,0.0,0.0,0.0,0.0,0.0,0.0,0.0,0.0,0.0,0.0,0.0,0.0,0.0,0.0,0.0,0.0,0.0,0.3073,0.2113,0.2642,0.0,0.0,0.0,0.0,0.0,0.0,0.0,0.0,0.0,0.918,0.9394,0.9813,0.0,0.0,0.9582,1.0057,0.9689,1.0356,1.3007,0.0,0.0,0.0,1.1524,1.3485,1.8326,2.0952,2.193,2.0391,2.0644,2.0644,1.9413,1.9104,1.8614,1.74,1.6141,1.6183,1.8067,1.8968,1.9124,1.8471,1.8485,1.861,-0.4373,-0.3335,-0.2853,-0.2553,-0.2372,-0.2196,-0.1985,-0.1752,-0.1598,-0.1421,-0.1297,-0.1117,-0.0939,-0.0753,-0.0698,0.0,0.0,0.0,-0.0533,-0.0588,-0.0774,-0.0899,-0.0931,-0.1013,-0.0861,-0.0604,-0.0541,-0.0406,-0.015,-0.0086,0.0693,0.2208,0.0,0.0,0.4439,0.4442,0.4483,0.4499,0.4107,0.3641,0.3189,0.3901,0.372,0.2447,0.0853,0.0,0.0,0.0,0.0,0.0,0.0,0.0,0.0,0.0,0.0,0.0,0.0,0.0,0.0,0.0,0.0,0.0,0.0,0.0,0.0,0.0,0.0,0.0,0.0,0.1269,0.4354,0.2935,0.0,0.0,0.0,0.0,0.0,0.0,0.0,0.7116,0.7553,0.8797,1.0945,1.1266,1.1373,1.1663,1.0902,1.0303,1.0295,0.0,1.2157,1.4649,1.5291,1.5059,1.3819,1.3104,1.4177,1.8333,2.0572,2.2165,2.2491,2.3216,2.2654,1.9992,1.9104,1.9104,1.9104,1.8288,1.7923,1.8935,1.92,1.9232,1.9251,1.928,1.9292,-0.6119,-0.5357,-0.4227,-0.3637,-0.3336,-0.2911,-0.2684,-0.2588,-0.2338,-0.2098,-0.1936,-0.1825,-0.1588,-0.1281,-0.1194,0.0,0.0,-0.1137,-0.1196,-0.1224,-0.1535,-0.1728,-0.1794,-0.1993,-0.1945,-0.1638,-0.164,-0.1503,-0.1221,-0.1101,-0.0983,-0.0747,0.1354,0.314,0.4497,0.4566,0.4587,0.4563,0.3764,0.3411,0.35,0.4259,0.4038,0.2732,0.0942,0.0,0.0,0.0,0.0,0.0,0.0,0.0,0.0,0.0,0.0,0.0,0.0,0.0,0.0,0.0,0.0,0.0,0.0,0.0,0.0,0.0,0.0,0.0,0.038,0.0,0.4429,0.4646,0.0,0.0,0.0,0.8988,0.8497,0.9675,0.9721,0.7609,0.0,0.0,1.3708,0.0,1.3547,1.2079,1.1693,1.1611,1.1848,1.3084,1.4684,1.6326,1.5419,1.5006,1.5916,1.5255,1.5589,1.8375,1.9001,2.0264,2.2745,2.3234,2.2147,1.9612,1.9104,1.9104,1.9104,1.9033,1.9104,1.9086,1.9104,1.912,1.9168,1.9251,1.928,-0.7404,-0.6922,-0.6213,-0.5264,-0.4201,-0.4007,-0.3775,-0.355,-0.3331,-0.3234,-0.3154,-0.2678,-0.2301,-0.2026,-0.1893,-0.1893,-0.1957,-0.1895,-0.1927,-0.209,-0.2337,-0.2544,-0.2769,-0.2878,-0.2863,-0.2794,-0.2758,-0.2601,-0.2335,-0.2302,-0.2128,-0.1824,-0.1115,-0.0193,0.0908,0.1002,0.1038,0.1034,0.0775,0.0977,0.1611,0.1206,0.2068,0.4325,0.1536,0.0,0.0,0.0,0.0,0.0,0.0,0.0,0.0,0.0,0.0,0.0,0.0,0.0,0.0,0.0,0.0,0.0,0.0,0.0,0.0,0.0,0.1018,0.0,0.3649,0.3973,0.47,0.4702,0.0,0.0,0.7609,0.976,1.113,1.1633,1.1505,1.0606,1.084,1.1831,1.385,1.4096,1.3957,1.3543,1.1458,1.0808,1.3094,1.3815,1.508,1.754,1.7843,1.7379,1.6665,1.7184,1.7789,1.8699,1.8949,1.9793,2.1713,2.1006,1.9956,1.9214,1.9104,1.9104,1.9067,1.9104,1.9086,1.9104,1.9104,1.9122,1.9188,1.9221,1.9232,-0.8679,-0.8261,-0.7657,-0.6814,-0.5918,-0.5214,-0.4813,-0.4616,-0.4419,-0.4289,-0.4152,-0.3573,-0.3302,-0.3143,-0.3068,-0.303,-0.3071,-0.3178,-0.3318,-0.3493,-0.3669,-0.3798,-0.3952,-0.4009,-0.396,-0.3834,-0.3769,-0.3616,-0.3441,-0.3324,-0.3199,-0.294,-0.2746,-0.234,-0.1739,-0.1011,-0.0643,-0.0646,-0.0646,-0.0435,-0.0032,0.0,0.1106,0.3265,0.3052,0.2275,0.1119,0.1088,0.1095,0.1123,0.0427,0.0,0.0,0.0,0.0,0.0,0.0,0.0,0.0,0.0,0.0,0.0,0.0,0.0,0.0,0.0,0.135,0.0,0.4787,0.0,0.4787,0.6075,0.6887,0.682,0.9474,1.1568,1.2236,1.2727,1.2903,1.2666,1.2613,1.2957,1.3896,1.4072,1.4086,1.409,1.3787,1.3676,1.4104,1.5205,1.6827,1.8485,1.8806,1.852,1.7575,1.7022,1.6952,1.7646,1.843,1.9291,2.0119,1.9668,1.887,1.8216,1.8034,1.8127,1.8326,1.8163,1.8052,1.8034,1.8018,1.8306,1.901,1.917,1.9166,-0.9889,-0.9384,-0.865,-0.8211,-0.7874,-0.6622,-0.5947,-0.5701,-0.561,-0.5387,-0.507,-0.4708,-0.4515,-0.4489,-0.4484,-0.4448,-0.4383,-0.4724,-0.4926,-0.507,-0.5188,-0.5262,-0.5301,-0.5321,-0.5171,-0.4914,-0.4756,-0.468,-0.4605,-0.4357,-0.4193,-0.4116,-0.3922,-0.3775,-0.3656,-0.2319,-0.1553,-0.1405,-0.135,-0.1354,-0.138,-0.0453,0.043,0.129,0.4438,0.5242,0.3221,0.2847,0.277,0.2861,0.1471,0.0446,0.0039,0.019,0.0229,0.0,0.3194,0.0,0.0,0.0,0.0,0.0,0.0,0.0,0.0,0.0552,0.1791,0.4599,0.5204,0.542,0.5424,0.8369,1.0229,1.012,1.2361,1.3563,1.2697,1.337,1.3903,1.3888,1.3903,1.3903,1.3921,1.4005,1.4062,1.4477,1.6333,1.6859,1.5282,1.6843,1.8628,1.8806,1.8806,1.8592,1.7753,1.5793,1.4741,1.6148,1.7182,1.8253,1.8449,1.8392,1.7948,1.6718,1.6374,1.6602,1.7167,1.6968,1.6675,1.6457,1.6403,1.6892,1.8252,1.8649,1.8865,-1.0884,-1.0363,-0.9406,-0.8967,-0.8878,-0.8333,-0.7668,-0.6959,-0.6881,-0.6635,-0.6277,-0.6272,-0.6133,-0.5996,-0.6098,-0.617,-0.6213,-0.6268,-0.6361,-0.6434,-0.6615,-0.6809,-0.6919,-0.6677,-0.6548,-0.6519,-0.6033,-0.5774,-0.5712,-0.5593,-0.5448,-0.5274,-0.5015,-0.4871,-0.4766,0.0,0.0,0.0,-0.2569,-0.2331,-0.1886,-0.1825,-0.1157,0.0192,0.3384,0.0,0.6801,0.5272,0.4386,0.453,0.4274,0.0,0.0,0.0,0.0,0.0,0.0,0.0,0.0,0.0,0.0,0.0,0.7702,0.5827,0.3008,0.347,0.4224,0.4871,0.7248,0.878,0.8817,1.1691,1.3545,1.3425,1.3779,1.3997,1.3841,1.3934,1.3959,1.3921,1.3944,1.3959,1.3918,1.3918,1.4443,1.5621,1.6306,1.6496,1.5989,1.7487,1.8734,1.8806,1.8806,1.7807,1.5365,1.4528,1.4474,1.5505,1.522,1.5561,1.6522,1.586,1.5135,1.4669,1.468,1.5121,1.6008,1.6457,1.624,1.5012,1.4795,1.523,1.6802,1.7146,1.7542,-1.207,0.0,-1.0711,-1.0172,0.0,-0.9707,-0.9332,-0.8795,-0.8185,-0.7814,-0.7619,-0.7563,-0.7463,-0.7391,-0.756,-0.767,-0.7686,-0.7932,-0.8073,-0.8177,-0.8328,-0.8418,-0.8424,-0.8228,-0.8084,-0.7954,-0.7312,-0.6955,-0.6915,-0.6609,-0.6405,-0.6305,-0.6158,-0.607,-0.5982,-0.5615,-0.4802,-0.3558,-0.3343,-0.3101,-0.2815,-0.2711,-0.203,-0.0645,0.0,0.0,0.0,0.0,0.0,0.0,0.0,0.0,0.0,0.0,0.0,0.2758,0.4827,0.5084,0.274,0.4221,0.6299,0.8443,0.7988,0.6595,0.4354,0.4684,0.5647,0.7226,1.0151,1.1988,1.2024,1.3464,1.4393,1.4393,1.4281,1.4203,1.4185,1.4177,1.4096,1.3973,1.3944,1.393,1.3921,1.5343,1.6378,1.7186,1.7326,1.6783,1.5701,1.7274,1.877,1.8806,1.8806,1.77,1.4831,1.4114,1.4238,1.4702,1.4456,1.447,1.5131,1.4649,1.4096,1.4096,1.4168,1.4432,1.4927,1.532,1.5266,1.4542,1.4324,1.4505,1.5429,1.6131,1.6892,-1.3358,-1.2796,-1.2013,-1.1412,-1.0992,-1.0833,-1.0687,-1.0467,0.0,0.0,0.0,-0.8819,-0.8718,-0.8756,-0.8973,-0.9077,-0.9095,-0.9513,-0.9778,-0.9895,-1.0002,-0.9962,-0.986,-0.9754,-0.9581,-0.9335,-0.8646,-0.8242,-0.8134,-0.7595,-0.729,-0.7166,-0.7166,-0.7116,-0.6996,-0.6686,-0.5937,-0.4746,-0.4196,-0.3895,-0.3782,-0.3542,-0.2817,-0.1656,-0.0577,0.0207,0.0677,0.1678,0.2031,0.1698,0.2461,0.344,0.4629,0.7266,0.824,0.7079,0.6924,0.6608,0.5839,0.7223,0.7914,0.7527,0.8068,0.7601,0.5708,0.5554,0.6976,1.038,1.2895,1.4306,1.4324,1.4293,1.4344,1.4453,1.4399,1.4319,1.4263,1.4583,1.4625,1.4171,1.4002,1.4197,1.4851,1.687,1.8485,1.8487,1.8382,1.7731,1.5727,1.7187,1.8806,1.8806,1.8806,1.7754,1.5223,1.4171,1.4131,1.4167,1.4149,1.4096,1.4096,1.4096,1.4096,1.4096,1.3922,1.3774,1.3918,1.404,1.3986,1.3877,1.3787,1.3805,1.4143,1.5103,1.5986,-1.4367,-1.3876,-1.2751,-1.2263,-1.2124,-1.1605,-1.1292,-1.1088,-1.0283,-0.9941,-0.9913,-0.9982,-1.0031,-1.0031,-1.0319,-1.0472,-1.0596,-1.0836,-1.0971,0.0,-1.126,-1.1339,-1.1289,-1.1003,-1.0818,-1.0684,-1.0146,-0.9562,-0.9064,-0.8858,-0.8479,-0.7928,-0.7753,-0.7588,-0.7421,-0.7205,-0.6925,-0.6584,-0.574,-0.506,-0.4575,-0.4539,-0.4174,-0.3322,-0.1507,-0.028,0.02,0.151,0.237,0.25,0.2122,0.2155,0.2668,0.3164,0.6452,1.2834,0.8444,0.6379,0.8883,0.8248,0.7974,0.8706,1.0634,1.0576,0.7584,0.7304,0.9178,1.343,1.4185,1.4324,1.4324,1.436,1.4342,1.4416,1.4423,1.4447,1.4471,1.5547,1.5773,1.4544,1.4203,1.5243,1.7276,1.8172,1.8524,1.8524,1.8584,1.8317,1.791,1.8357,1.877,1.8806,1.8806,1.7843,1.5737,1.4649,1.4185,1.4096,1.4096,1.4096,1.4096,1.4096,1.4006,1.4006,1.2852,1.2335,1.2669,1.2902,1.2821,1.2513,1.2169,1.2079,1.3002,1.36,1.3998,-1.5526,-1.5,-1.4397,-1.3907,-1.3517,-1.305,-1.2815,-1.2709,-1.2175,-1.146,-1.0733,-1.0791,-1.084,-1.0867,-1.1169,-1.1356,-1.1468,-1.1763,-1.1945,-1.2018,-1.2198,-1.2306,-1.2283,-1.2037,-1.1885,-1.1827,-1.116,-1.0707,-1.0361,-0.9702,-0.9196,-0.885,-0.8481,-0.8184,-0.7984,-0.7869,-0.7666,-0.7364,-0.654,-0.5869,-0.544,-0.5315,-0.4972,-0.4409,-0.3324,-0.262,-0.228,-0.1266,-0.0567,-0.0363,-0.0236,0.0,0.0449,0.1937,0.3974,0.6533,0.6089,0.7764,1.2508,1.1516,1.0898,1.1288,1.2041,1.1958,1.0464,1.0352,1.1548,1.4283,1.4464,1.5134,1.6712,1.5392,1.4754,1.5987,1.5127,1.4781,1.56,1.6287,1.647,1.5801,1.5835,1.6718,1.8592,1.8752,1.8752,1.8789,1.8807,1.8698,1.8508,1.8163,1.7555,1.6647,1.7611,1.7504,1.5398,1.4456,1.4131,1.4096,1.4096,1.4096,1.4096,1.4078,1.3364,1.1901,1.092,1.0634,1.0887,1.1424,1.1819,1.2321,1.1634,1.1543,1.197,1.2857,1.3841,-1.6565,-1.6046,-1.5784,-1.5299,-1.4683,-1.4396,-1.4237,-1.4185,-1.3877,-1.3071,-1.2001,-1.1729,-1.1566,-1.1457,-1.1763,-1.1945,-1.2066,-1.2401,-1.2579,-1.2685,-1.2896,-1.3,-1.2988,-1.2836,-1.2743,-1.2672,-1.208,-1.1695,-1.1417,-1.0452,-0.9809,-0.9493,-0.8979,-0.8673,-0.8533,-0.8393,-0.8195,-0.7859,-0.7168,-0.6617,-0.6206,-0.5921,-0.5631,-0.5312,-0.494,-0.4676,-0.4474,-0.3865,-0.3354,-0.3017,-0.2335,-0.1705,-0.1076,0.1022,0.1455,0.0065,0.3174,0.7706,1.2711,1.2717,1.2472,1.2946,1.2871,1.2731,1.2635,1.2951,1.3499,1.4377,1.4529,1.5784,1.821,1.7077,1.6001,1.7209,1.6282,1.5869,1.6666,1.7174,1.7211,1.6947,1.7379,1.8197,1.8851,1.9034,1.8872,1.869,1.8768,1.8753,1.8534,1.7575,1.5932,1.5278,1.6503,1.7147,1.4809,1.4189,1.4131,1.4096,1.4096,1.4096,1.3989,1.3636,1.2299,1.0107,0.9554,0.9564,0.9537,1.0094,1.0933,1.1494,1.1081,1.0802,1.12,1.2846,1.4179,-1.7118,-1.6764,-1.6314,-1.5749,-1.5248,-1.5095,-1.4979,-1.4902,-1.4631,-1.4426,-1.4024,-1.3054,-1.234,-1.1906,-1.2066,-1.2246,-1.2365,-1.2662,-1.2827,-1.2945,-1.3198,-1.3365,-1.3412,-1.3357,-1.3254,-1.3141,-1.2975,-1.2555,-1.1971,-1.1311,-1.0421,-0.9352,-0.8933,-0.8839,-0.89,-0.865,-0.846,-0.8428,-0.8003,-0.7462,-0.6855,-0.6504,-0.6309,-0.6257,-0.5584,-0.5186,-0.5122,-0.4723,-0.4148,-0.3399,-0.2827,-0.2167,-0.1355,-0.0928,-0.0695,-0.047,0.147,0.4098,0.7235,0.8391,0.9853,1.1752,1.2946,1.3314,1.2836,1.4034,1.4804,1.4924,1.4696,1.6158,1.8827,1.8867,1.8108,1.726,1.7879,1.8247,1.7351,1.8192,1.8537,1.7023,1.8158,1.9061,1.9082,1.9073,1.8703,1.7848,1.8231,1.8539,1.836,1.6622,1.5034,1.4678,1.5702,1.6128,1.5181,1.4542,1.4185,1.4096,1.4096,1.4024,1.3578,1.1783,0.9643,0.9822,0.9394,0.9403,0.9412,0.9565,0.9717,1.0123,1.0087,0.9987,1.1019,1.2665,1.3914,-1.7733,-1.7544,-1.7276,-1.6943,-1.6532,-1.6333,-1.6213,-1.6145,-1.5995,-1.5749,-1.5289,-1.4802,-1.3939,-1.2849,-1.2651,-1.2615,-1.2745,-1.325,-1.3596,-1.3705,-1.4213,-1.4451,-1.4466,-1.4379,-1.4145,-1.3806,-1.365,-1.327,-1.2562,-1.1699,-1.0714,-0.982,-0.9384,-0.9139,-0.9054,-0.89,-0.8695,-0.8516,-0.8504,-0.8299,-0.7902,-0.7373,-0.7062,-0.6909,-0.6623,-0.6343,-0.6054,-0.5566,-0.4885,-0.4142,-0.3503,-0.2713,-0.1827,-0.1558,-0.125,-0.0841,0.0158,0.1405,0.2885,0.6463,0.9215,1.0567,1.1684,1.2733,1.3988,1.5536,1.6846,1.771,1.7712,1.8261,1.9342,1.9398,1.8996,1.8522,1.8898,1.8956,1.8441,1.8889,1.8977,1.8445,1.8861,1.9251,1.9068,1.8419,1.7709,1.7191,1.7595,1.7851,1.7491,1.6229,1.5236,1.4642,1.4925,1.5027,1.4706,1.4373,1.4131,1.4096,1.4096,1.3971,1.2686,1.1027,0.9447,0.9394,0.9394,0.9394,0.9403,0.9412,0.9439,0.9475,0.9501,0.9671,1.0087,1.1598,1.2948,-1.8135,-1.8055,-1.7989,-1.7842,-1.7597,-1.7365,-1.7256,-1.7227,-1.7086,-1.677,-1.6301,-1.6121,-1.5372,-1.4273,-1.3631,-1.3349,-1.3434,-1.3927,-1.4234,-1.4407,-1.4902,-1.5133,-1.5146,-1.5044,-1.4815,-1.4436,-1.4237,-1.3778,-1.3047,-1.1968,-1.1028,-1.0295,-0.9757,-0.9415,-0.9174,-0.9065,-0.8968,-0.8886,-0.8946,-0.8984,-0.8867,-0.8413,-0.8011,-0.7714,-0.7577,-0.7318,-0.6887,-0.6289,-0.5588,-0.4832,-0.4111,-0.3338,-0.2551,-0.2045,-0.16,-0.1142,-0.0663,-0.0225,0.0196,0.4663,0.7895,0.9047,1.0391,1.1912,1.3629,1.5993,1.8222,1.9717,1.9966,1.9748,1.9763,1.9587,1.9382,1.9206,1.9203,1.9253,1.9029,1.9173,1.932,1.9305,1.9222,1.9097,1.8537,1.7289,1.6209,1.6433,1.6551,1.6609,1.6135,1.5751,1.5301,1.4639,1.4499,1.4417,1.4227,1.4203,1.415,1.4109,1.4109,1.3721,1.2329,1.0856,0.943,0.9394,0.9394,0.9394,0.9403,0.9403,0.9412,0.9465,0.9546,0.9572,0.9626,1.0892,1.2423,-1.8254,-1.8202,-1.8189,-1.8163,-1.8163,-1.7922,-1.7842,-1.776,-1.7515,-1.7337,-1.7205,-1.6651,-1.6283,-1.5968,-1.5118,-1.4647,-1.4518,-1.4635,-1.4698,-1.4737,-1.4992,-1.5042,-1.5042,-1.5032,-1.4993,-1.4955,-1.4865,-1.4275,-1.3144,-1.2311,-1.1378,-1.036,-1.005,-0.9699,-0.9384,-0.9196,-0.9289,-0.9629,-0.9412,-0.9392,-0.9667,-0.9567,-0.9188,-0.8654,-0.8248,-0.785,-0.741,-0.6833,-0.6155,-0.5336,-0.4647,-0.4023,-0.347,-0.2656,-0.1879,-0.1279,-0.0998,-0.0648,0.0,0.2511,0.5079,0.7354,0.9803,1.0929,1.1048,1.481,1.8064,1.9945,2.0117,2.0049,1.9993,1.9837,1.9395,1.8652,1.8873,1.879,1.8407,1.88,1.9343,1.9283,1.9029,1.8317,1.711,1.5606,1.5252,1.541,1.5129,1.4709,1.4855,1.4777,1.4729,1.4681,1.4585,1.4506,1.4301,1.4301,1.4281,1.4216,1.4172,1.4042,1.3007,1.1854,1.0535,0.9412,0.9394,0.9394,0.9403,0.9403,0.9448,0.9528,0.969,0.9717,0.9906,1.0964,1.2387,-1.8347,-1.8189,-1.8254,-1.8161,-1.8042,-1.8002,-1.7935,-1.7882,-1.7679,-1.7543,-1.7421,-1.7222,-1.7061,-1.6939,-1.6527,-1.5811,-1.5056,-1.532,-1.5475,-1.5529,-1.5802,-1.5973,-1.5936,-1.5978,-1.5759,-1.5469,-1.5444,-1.4762,-1.3593,-1.2849,-1.2092,-1.1236,-1.0677,-1.0328,-1.0189,-1.0045,-1.0076,-1.0247,-1.0243,-1.032,-1.03,-1.0266,-0.9963,-0.9417,-0.8798,-0.8319,-0.7919,-0.7231,-0.655,-0.5873,-0.5194,-0.4509,-0.3774,-0.2756,-0.2001,-0.1671,-0.1458,-0.1198,-0.0542,0.184,0.4559,0.7207,0.9304,1.0771,1.1788,1.4322,1.7234,1.9593,2.0273,2.0208,2.0174,2.0028,1.9552,1.8606,1.7371,1.6941,1.7343,1.7529,1.7929,1.8748,1.7807,1.6054,1.5643,1.4901,1.4703,1.4894,1.4683,1.4513,1.4499,1.4585,1.464,1.4651,1.4622,1.456,1.4499,1.4504,1.4511,1.4393,1.4288,1.4172,1.3492,1.3275,1.2246,1.0214,0.9822,0.9394,0.9403,0.9403,0.9439,0.9546,0.9726,1.0286,1.0548,1.1391,1.2568,-1.8439,-1.8321,-1.8347,-1.8279,-1.8121,-1.8082,-1.8016,-1.7868,-1.776,-1.7625,-1.7516,-1.7475,-1.7474,-1.735,-1.7253,-1.6766,-1.5905,-1.6092,-1.6209,-1.6255,-1.6494,-1.6595,-1.6552,-1.6552,-1.6376,-1.5969,-1.5768,-1.5212,-1.4333,-1.3484,-1.2673,-1.1905,-1.1277,-1.0842,-1.0651,-1.051,-1.0535,-1.0718,-1.0855,-1.0904,-1.0924,-1.0797,-1.0495,-0.9972,-0.9359,-0.8773,-0.8209,-0.7579,-0.6943,-0.6386,-0.5658,-0.4851,-0.389,-0.305,-0.2415,-0.2122,-0.1976,-0.1687,-0.1079,0.0956,0.3489,0.6275,0.7588,0.9203,1.2041,1.4661,1.7396,1.9672,2.0416,2.0352,2.0042,1.9203,1.843,1.7975,1.6317,1.5524,1.6592,1.6552,1.7186,1.795,1.6459,1.4955,1.4596,1.4651,1.4661,1.4629,1.4567,1.4563,1.4529,1.4607,1.4672,1.4714,1.4695,1.4664,1.4611,1.4629,1.464,1.4545,1.4441,1.4319,1.4221,1.415,1.3502,1.1455,1.0188,0.9643,0.9403,0.9403,0.9466,0.9555,1.0222,1.0874,1.1246,1.168,1.2803,-1.8478,-1.8478,-1.8478,-1.8372,-1.8279,-1.8175,-1.8069,-1.7882,-1.7747,-1.7611,-1.7488,-1.7432,-1.7391,-1.735,-1.7253,-1.7146,-1.6985,-1.6844,-1.6786,-1.6799,-1.6863,-1.682,-1.6667,-1.6663,-1.6607,-1.6421,-1.5969,-1.5624,-1.5245,-1.4218,-1.3288,-1.2449,-1.1861,-1.1283,-1.0482,-1.0595,-1.0742,-1.1092,-1.1124,-1.122,-1.1579,-1.1217,-1.0753,-1.038,-0.9902,-0.9226,-0.8291,-0.7878,-0.737,-0.6725,-0.6081,-0.5074,-0.4009,-0.357,-0.322,-0.2592,-0.2467,-0.2233,-0.1621,-0.0391,0.1721,0.3814,0.4492,0.6789,1.0658,1.4412,1.7572,2.0002,2.0484,2.0452,1.9864,1.7609,1.6312,1.7171,1.6086,1.5437,1.5967,1.6338,1.6656,1.6859,1.5628,1.4804,1.4714,1.4747,1.4766,1.4734,1.4693,1.4661,1.4585,1.4672,1.4774,1.4794,1.4784,1.4755,1.4734,1.4712,1.4712,1.4672,1.4556,1.4453,1.4356,1.4281,1.4203,1.2537,1.0287,0.9671,0.9394,0.9412,0.943,0.9663,1.0547,1.13,1.1771,1.2205,1.2948,-1.8464,-1.8358,-1.8358,-1.8293,-1.8214,-1.8095,-1.7989,-1.7882,-1.7666,-1.757,-1.7475,-1.7337,-1.7308,-1.7308,-1.717,-1.7086,-1.7031,-1.696,-1.6934,-1.6921,-1.6892,-1.682,-1.6723,-1.6705,-1.662,-1.6497,-1.6358,-1.5973,-1.5542,-1.5048,-1.425,-1.3199,-1.2778,-1.2257,-1.1431,-1.143,-1.1532,-1.1586,-1.1584,-1.1564,-1.156,-1.1303,-1.0905,-1.0457,-1.0205,-0.9695,-0.8781,-0.8085,-0.7496,-0.7056,-0.6428,-0.5535,-0.4552,-0.3898,-0.352,-0.3302,-0.3407,-0.3175,-0.2366,-0.0866,0.0149,0.0985,0.3003,0.4636,0.5606,0.8514,1.3266,1.8851,2.0536,2.0536,1.9897,1.7322,1.6102,1.747,1.6181,1.5191,1.5438,1.5464,1.5424,1.5488,1.5084,1.4812,1.4804,1.4867,1.4911,1.485,1.4813,1.4737,1.4724,1.4714,1.4784,1.4832,1.4841,1.485,1.4832,1.4823,1.4803,1.4774,1.4674,1.4589,1.4481,1.438,1.4313,1.3088,1.0893,0.9769,0.9511,0.9412,0.943,0.9699,1.0367,1.1163,1.1988,1.2767,1.3534,-1.8464,-1.8372,-1.8319,-1.824,-1.8095,-1.8016,-1.7855,-1.7706,-1.7543,-1.7406,-1.7282,-1.7157,-1.7128,-1.7141,-1.6918,-1.6876,-1.6876,-1.6778,-1.6765,-1.6824,-1.6905,-1.6833,-1.6693,-1.6663,-1.6577,-1.6534,-1.6522,-1.6303,-1.5894,-1.5509,-1.4789,-1.3775,-1.3312,-1.2672,-1.1937,-1.1808,-1.1782,-1.1756,-1.1745,-1.1682,-1.156,-1.1341,-1.0981,-1.0611,-1.039,-0.9883,-0.9136,-0.8283,-0.7655,-0.7273,-0.6647,-0.5841,-0.4975,-0.4408,-0.3976,-0.3755,-0.4016,-0.4052,-0.3336,-0.2019,-0.1223,-0.135,0.0702,0.1937,0.1295,0.2905,0.6842,1.1132,1.7414,2.0052,1.8515,1.6803,1.5917,1.6642,1.5873,1.522,1.5133,1.5038,1.4979,1.4995,1.4921,1.4919,1.4976,1.5008,1.5059,1.5008,1.4928,1.4841,1.4804,1.4774,1.4832,1.4904,1.4938,1.4947,1.4947,1.493,1.4895,1.4841,1.4775,1.4695,1.4592,1.4523,1.44,1.2251,1.0078,0.9699,0.9421,0.9403,0.9448,0.987,1.0213,1.0848,1.1703,1.3238,1.4004,-1.8478,-1.8478,-1.8333,-1.8161,-1.8002,-1.7909,-1.7666,-1.7447,-1.7337,-1.7225,-1.7044,-1.6918,-1.6888,-1.6833,-1.665,-1.6577,-1.6633,-1.6534,-1.6522,-1.6552,-1.6705,-1.6761,-1.6675,-1.6565,-1.6522,-1.6522,-1.6534,-1.6466,-1.6268,-1.5823,-1.5032,-1.4205,-1.347,-1.2678,-1.2035,-1.1752,-1.1645,-1.1645,-1.1656,-1.1645,-1.1645,-1.1362,-1.1105,-1.0888,-1.0505,-0.9991,-0.9279,-0.8431,-0.7814,-0.744,-0.6781,-0.6105,-0.541,-0.5116,-0.4591,-0.3976,-0.4591,-0.4635,-0.4287,-0.3514,-0.3016,-0.2738,-0.2268,-0.2222,-0.1321,-0.0837,-0.0206,0.1805,1.2791,1.9413,1.7052,1.5617,1.5531,1.5333,1.5351,1.5226,1.5207,1.5139,1.5062,1.5033,1.5059,1.512,1.5159,1.5183,1.5195,1.5146,1.5059,1.496,1.485,1.4841,1.4902,1.496,1.5015,1.5034,1.5015,1.5011,1.4968,1.4944,1.4876,1.4813,1.4726,1.4637,1.3624,1.1452,1.0009,0.9635,0.9439,0.9439,0.9456,0.9677,1.0075,1.0539,1.1577,1.3066,1.3769,-1.8478,-1.8478,-1.8214,-1.8002,-1.7909,-1.7638,-1.7419,-1.724,-1.7128,-1.7044,-1.696,-1.6791,-1.6761,-1.6705,-1.6522,-1.6436,-1.6436,-1.6318,-1.6275,-1.6275,-1.6318,-1.6448,-1.6522,-1.6479,-1.6436,-1.6479,-1.6491,-1.6479,-1.6466,-1.6188,-1.5605,-1.4826,-1.394,-1.3122,-1.2351,-1.1746,-1.1432,-1.1346,-1.1421,-1.1469,-1.1459,-1.1298,-1.1088,-1.0916,-1.0659,-1.0108,-0.9319,-0.8398,-0.7655,-0.7154,-0.6829,-0.6453,-0.6067,-0.5717,-0.5415,-0.5198,-0.5116,-0.5116,-0.4797,-0.4318,-0.3883,-0.3435,-0.3043,-0.2651,-0.2148,-0.2064,-0.1839,0.0921,1.1687,1.977,1.8627,1.6836,1.5639,1.5382,1.5495,1.5493,1.5407,1.5222,1.5174,1.5157,1.5177,1.5183,1.5212,1.5245,1.527,1.519,1.5133,1.5054,1.4957,1.4883,1.4925,1.504,1.5107,1.5094,1.5087,1.5085,1.5071,1.5045,1.5,1.4944,1.4832,1.4726,1.2965,1.0729,1.0098,0.9654,0.9549,0.9517,0.9565,0.9602,1.0194,1.079,1.148,1.2592,1.2972,-1.845,-1.8478,-1.8121,-1.7922,-1.7788,-1.7337,-1.7099,-1.6973,-1.6778,-1.6705,-1.6701,-1.6633,-1.6547,-1.6461,-1.6306,-1.6207,-1.6219,-1.61,-1.6013,-1.6013,-1.6069,-1.6144,-1.6262,-1.6306,-1.6262,-1.6219,-1.6262,-1.6306,-1.6262,-1.6188,-1.5709,-1.4995,-1.4262,-1.3372,-1.2418,-1.1903,-1.1442,-1.1276,-1.126,-1.1309,-1.1309,-1.1223,-1.1023,-1.0812,-1.0611,-1.0069,-0.8869,-0.8283,-0.7704,-0.7154,-0.6907,-0.6751,-0.6544,-0.6361,-0.6184,-0.6024,-0.568,-0.542,-0.5246,-0.4806,-0.4364,-0.3928,-0.3439,-0.2993,-0.2598,-0.2333,-0.1975,-0.0337,0.7093,1.158,1.4751,1.5571,1.6288,1.6245,1.6352,1.6456,1.6414,1.6227,1.5765,1.5453,1.5241,1.5255,1.5269,1.5299,1.5272,1.525,1.5201,1.5139,1.5068,1.5004,1.4954,1.5082,1.5158,1.514,1.5153,1.5133,1.5101,1.5101,1.508,1.5038,1.4936,1.471,1.2946,1.1208,1.0361,0.9747,0.9673,0.9638,0.9651,0.9898,1.0476,1.0864,1.1377,1.1562,1.1957,-1.8372,-1.8425,-1.8135,-1.7882,-1.7598,-1.7086,-1.6761,-1.6615,-1.6392,-1.6287,-1.6361,-1.6343,-1.6275,-1.6156,-1.6044,-1.6001,-1.6001,-1.5869,-1.5836,-1.5836,-1.5836,-1.5881,-1.5913,-1.6088,-1.6013,-1.5869,-1.5913,-1.5957,-1.5913,-1.5748,-1.5445,-1.4916,-1.431,-1.3457,-1.2586,-1.2034,-1.1648,-1.1221,-1.1185,-1.1195,-1.1195,-1.1109,-1.0899,-1.0631,-1.0302,-0.9588,-0.8553,-0.8077,-0.7829,-0.7112,-0.7021,-0.695,-0.6793,-0.6901,-0.6816,-0.6447,-0.6062,-0.5766,-0.5636,-0.5106,-0.467,-0.4232,-0.3751,-0.3306,-0.2948,-0.2553,-0.2199,-0.193,-0.1614,0.3142,0.827,1.3415,1.6288,1.6594,1.7304,1.6991,1.8015,1.7628,1.6767,1.5712,1.553,1.5332,1.536,1.5374,1.5313,1.5276,1.524,1.5217,1.5182,1.5133,1.5095,1.5101,1.517,1.5189,1.5189,1.5183,1.5152,1.5127,1.5127,1.5094,1.5011,1.4479,1.3095,1.1781,1.074,1.0069,0.9773,0.9752,0.9777,0.9828,1.0184,1.0427,1.0681,1.0588,1.079,-1.8242,-1.8242,-1.7909,-1.7652,-1.7406,-1.6863,-1.6491,-1.63,-1.6013,-1.5925,-1.5949,-1.5925,-1.5925,-1.5881,-1.5836,-1.5836,-1.5836,-1.5792,-1.5792,-1.5792,-1.5792,-1.5671,-1.5614,-1.5748,-1.578,-1.5647,-1.5635,-1.5635,-1.5558,-1.5424,-1.5311,-1.4969,-1.4183,-1.34,-1.2697,-1.2033,-1.1433,-1.1079,-1.1082,-1.1082,-1.1071,-1.0975,-1.0774,-1.0428,-0.9795,-0.9088,-0.8488,-0.8152,-0.7821,-0.7454,-0.7286,-0.716,-0.6985,-0.6943,-0.6943,-0.6816,-0.6489,-0.611,-0.5723,-0.5371,-0.4932,-0.4364,-0.406,-0.3704,-0.3034,-0.2862,-0.2556,-0.2154,-0.1554,0.1394,0.672,0.969,1.3014,1.531,1.4673,1.421,1.8101,1.8646,1.7808,1.7314,1.6362,1.5413,1.5454,1.5397,1.536,1.531,1.5287,1.5295,1.5275,1.5234,1.5224,1.518,1.5196,1.522,1.5193,1.5199,1.5204,1.518,1.5188,1.5158,1.5082,1.4823,1.3634,1.2337,1.1002,1.0448,0.9906,0.9875,0.99,0.9894,1.0013,1.0382,1.0582,1.015,1.0262,-1.8411,-1.8163,-1.7788,-1.7502,-1.7186,-1.6552,-1.6175,-1.5969,-1.5703,-1.5614,-1.5647,-1.5659,-1.5647,-1.5647,-1.5647,-1.5659,-1.5659,-1.5748,-1.5748,-1.5748,-1.5792,-1.5626,-1.5357,-1.539,-1.5424,-1.5142,-1.5108,-1.5062,-1.4971,-1.488,-1.4777,-1.4834,-1.4146,-1.3432,-1.2776,-1.2121,-1.15,-1.0956,-1.0843,-1.0881,-1.0833,-1.0736,-1.0544,-1.0157,-0.9448,-0.8822,-0.8414,-0.8152,-0.7814,-0.753,-0.7412,-0.7286,-0.707,-0.7014,-0.7105,-0.7238,-0.6907,-0.6489,-0.6062,-0.5631,-0.5101,-0.4491,-0.4232,-0.3836,-0.3391,-0.3084,-0.2734,-0.242,-0.1814,0.0041,0.3224,0.3789,0.718,1.2712,1.4519,1.5569,1.7396,1.8557,1.9214,1.9094,1.8526,1.7023,1.6297,1.6034,1.5637,1.5687,1.5371,1.5345,1.5299,1.5265,1.527,1.5251,1.525,1.5245,1.5211,1.5211,1.5255,1.5251,1.5251,1.522,1.5157,1.4871,1.4437,1.3026,1.1594,1.0488,1.0009,1.002,1.0337,1.1017,1.1245,1.1037,1.0955,1.1074,1.1245,-1.8536,-1.8069,-1.7611,-1.731,-1.7031,-1.6293,-1.5913,-1.5703,-1.5402,-1.5345,-1.5424,-1.5457,-1.5424,-1.5468,-1.5468,-1.548,-1.5513,-1.5614,-1.5659,-1.5659,-1.5703,-1.5525,-1.53,-1.5165,-1.488,-1.4373,-1.4512,-1.4512,-1.4326,-1.4186,-1.4222,-1.4373,-1.4093,-1.3447,-1.2738,-1.2201,-1.1633,-1.0933,-1.0604,-1.0515,-1.0515,-1.039,-1.0166,-0.9902,-0.9297,-0.8732,-0.8365,-0.8111,-0.7855,-0.7482,-0.7412,-0.7245,-0.7063,-0.7021,-0.7154,-0.7538,-0.7076,-0.6781,-0.6398,-0.5884,-0.528,-0.4709,-0.4364,-0.41,-0.3744,-0.335,-0.3043,-0.2687,-0.2222,-0.2091,-0.245,-0.1494,0.1776,0.7021,1.3873,1.5716,1.6322,1.8198,2.0043,2.0391,1.9862,1.8747,1.7671,1.7099,1.6529,1.6034,1.5726,1.551,1.5511,1.5299,1.5315,1.5334,1.5329,1.528,1.525,1.5272,1.5307,1.5299,1.5319,1.5269,1.5222,1.5057,1.4631,1.3555,1.2262,1.1197,1.0302,1.0053,1.069,1.1938,1.2547,1.244,1.2313,1.2167,1.2129,-1.8049,-1.7598,-1.724,-1.6989,-1.6723,-1.6088,-1.5748,-1.5513,-1.5255,-1.5165,-1.5153,-1.5153,-1.5198,-1.5198,-1.5312,-1.539,-1.5412,-1.5468,-1.548,-1.5468,-1.5501,-1.5322,-1.5017,-1.4834,-1.4419,-1.3988,-1.4035,-1.4035,-1.38,-1.3716,-1.3742,-1.3758,-1.3589,-1.3185,-1.2701,-1.2163,-1.1571,-1.0903,-1.0449,-1.0244,-1.0224,-1.0094,-0.9869,-0.9689,-0.9174,-0.8668,-0.825,-0.8126,-0.787,-0.7328,-0.7335,-0.7245,-0.7063,-0.6979,-0.7063,-0.707,-0.6907,-0.6738,-0.6647,-0.6099,-0.5501,-0.5024,-0.467,-0.4364,-0.406,-0.384,-0.3527,-0.3084,-0.264,-0.2464,-0.304,-0.2996,-0.0943,0.2612,0.3813,0.6389,1.2908,1.778,2.0353,2.0578,2.0486,2.0391,1.9277,1.8573,1.8475,1.769,1.68,1.6594,1.6544,1.5955,1.539,1.5392,1.5397,1.5345,1.5315,1.5355,1.5374,1.5359,1.5352,1.5307,1.5276,1.5284,1.4752,1.4014,1.3118,1.2089,1.1273,1.057,1.1277,1.2678,1.3309,1.3844,1.3417,1.2953,1.2325,-1.7883,-1.717,-1.6808,-1.6552,-1.6392,-1.5869,-1.5558,-1.539,-1.521,-1.5119,-1.5119,-1.5119,-1.5119,-1.5108,-1.5062,-1.5096,-1.5062,-1.5062,-1.5074,-1.5062,-1.5096,-1.5006,-1.4686,-1.4558,-1.4129,-1.3705,-1.361,-1.3621,-1.3344,-1.3354,-1.3362,-1.3341,-1.3266,-1.3002,-1.2582,-1.209,-1.1475,-1.0926,-1.0394,-1.0136,-1.0197,-1.002,-0.978,-0.9351,-0.9232,-0.8919,-0.8462,-0.8184,-0.7985,-0.7546,-0.7167,-0.6999,-0.6914,-0.6956,-0.6979,-0.6985,-0.6823,-0.666,-0.6647,-0.6056,-0.5545,-0.5067,-0.4801,-0.4578,-0.4368,-0.4148,-0.3965,-0.37,-0.3265,-0.3043,-0.3398,-0.3398,-0.2312,-0.1111,-0.1535,0.2391,0.9718,1.6396,1.8886,1.9885,2.0531,2.052,2.0543,2.0193,2.0409,1.9551,1.8102,1.7746,1.7664,1.6923,1.6124,1.5409,1.5407,1.539,1.5355,1.5374,1.5414,1.5387,1.5374,1.5336,1.5329,1.5313,1.5295,1.4964,1.4005,1.3085,1.2387,1.1762,1.2615,1.3369,1.4027,1.4474,1.413,1.3652,1.3131,-1.7746,-1.687,-1.6542,-1.6323,-1.6183,-1.5887,-1.5659,-1.5429,-1.5349,-1.5223,-1.5119,-1.5119,-1.5119,-1.5062,-1.4926,-1.4743,-1.4581,-1.4616,-1.4558,-1.4558,-1.464,-1.4547,-1.4373,-1.4186,-1.3847,-1.3372,-1.318,-1.3094,-1.3123,-1.3075,-1.3104,-1.3094,-1.3007,-1.2782,-1.2404,-1.194,-1.1438,-1.0862,-1.0315,-1.0126,-1.0083,-1.0009,-0.9748,-0.9216,-0.9448,-0.9363,-0.9017,-0.8666,-0.8261,-0.7773,-0.7276,-0.6836,-0.6728,-0.6933,-0.7055,-0.7005,-0.6859,-0.6653,-0.6361,-0.6019,-0.5545,-0.5072,-0.4888,-0.4714,-0.4583,-0.4408,-0.4272,-0.4316,-0.4012,-0.3711,-0.3751,-0.3755,-0.3517,-0.3152,-0.2348,-0.0486,0.4784,1.0413,1.5483,1.7263,1.9454,2.0555,2.0562,2.0558,2.0519,2.0474,1.9116,1.9218,1.9023,1.8184,1.7246,1.5909,1.541,1.542,1.5407,1.5385,1.5418,1.5401,1.539,1.5374,1.5351,1.5351,1.5329,1.5303,1.5138,1.4256,1.3576,1.3155,1.3775,1.4382,1.4957,1.5053,1.4651,1.4593,1.4376,-1.737,-1.6876,-1.666,-1.6476,-1.6396,-1.6501,-1.6284,-1.5831,-1.5785,-1.5533,-1.5131,-1.5119,-1.5108,-1.5017,-1.4789,-1.4605,-1.4419,-1.428,-1.4129,-1.4035,-1.4071,-1.4035,-1.3868,-1.361,-1.3409,-1.3084,-1.2852,-1.2822,-1.2891,-1.2929,-1.2929,-1.292,-1.2822,-1.2647,-1.2338,-1.1748,-1.1152,-1.071,-1.0111,-0.9694,-0.9582,-0.9584,-0.9628,-0.9641,-0.963,-0.9636,-0.9572,-0.9173,-0.873,-0.8091,-0.76,-0.7038,-0.6699,-0.7159,-0.7225,-0.7078,-0.6829,-0.663,-0.6379,-0.6015,-0.556,-0.5125,-0.4893,-0.4854,-0.4806,-0.4626,-0.4539,-0.4854,-0.4499,-0.4188,-0.4144,-0.4144,-0.3972,-0.3711,-0.3337,-0.2923,-0.0039,0.3307,0.8462,1.5895,1.8494,1.9881,2.0506,2.0511,2.05,2.0451,2.0414,2.0391,2.0243,1.9328,1.7634,1.6073,1.5416,1.5409,1.542,1.5418,1.5405,1.541,1.5403,1.5392,1.5373,1.537,1.5351,1.5329,1.5303,1.525,1.4599,1.4458,1.4891,1.505,1.5226,1.524,1.5146,1.521,1.5215,-1.6977,-1.6667,-1.6534,-1.6448,-1.6434,-1.6455,-1.6332,-1.6045,-1.587,-1.5679,-1.5416,-1.5165,-1.5028,-1.48,-1.4605,-1.4269,-1.3894,-1.3695,-1.3515,-1.342,-1.3409,-1.3372,-1.3296,-1.3152,-1.2939,-1.2852,-1.2666,-1.2618,-1.2676,-1.2735,-1.2783,-1.2774,-1.2578,-1.2332,-1.2144,-1.1518,-1.1045,-1.0623,-1.0164,-0.976,-0.9618,-0.9688,-0.9896,-1.0091,-0.9888,-0.9802,-0.9627,-0.9419,-0.9014,-0.8464,-0.8025,-0.76,-0.7451,-0.7863,-0.8177,-0.8054,-0.7477,-0.6969,-0.6446,-0.6135,-0.5616,-0.5184,-0.4985,-0.4985,-0.5072,-0.5024,-0.498,-0.5333,-0.498,-0.4626,-0.4272,-0.406,-0.4016,-0.3888,-0.3799,-0.3619,-0.3293,-0.2756,0.1699,0.9859,1.7168,1.8068,1.9349,2.0439,2.0439,2.0402,2.0273,2.0135,2.0309,2.0219,1.8159,1.5762,1.5445,1.5416,1.541,1.5405,1.5415,1.5419,1.5418,1.5392,1.541,1.5405,1.537,1.5371,1.5368,1.5323,1.5293,1.5197,1.5108,1.5192,1.5284,1.5357,1.5415,1.5265,1.5405,-1.6788,-1.6609,-1.6559,-1.6514,-1.6537,-1.6546,-1.6524,-1.6345,-1.6007,-1.5762,-1.5572,-1.5222,-1.488,-1.4569,-1.4373,-1.3988,-1.3372,-1.318,-1.2997,-1.29,-1.2852,-1.2852,-1.2813,-1.2725,-1.2666,-1.2627,-1.2471,-1.2421,-1.248,-1.248,-1.2529,-1.2578,-1.2323,-1.2076,-1.1719,-1.1242,-1.0821,-1.0356,-1.0033,-0.9758,-0.9695,-0.9832,-1.0033,-1.0123,-1.0056,-0.984,-0.9559,-0.9467,-0.9271,-0.8999,-0.865,-0.838,-0.8322,-0.8375,-0.8586,-0.8468,-0.7991,-0.7479,-0.693,-0.6458,-0.5823,-0.5296,-0.5029,-0.5072,-0.5159,-0.529,-0.5463,-0.5636,-0.5203,-0.4762,-0.4368,-0.3884,-0.3928,-0.3972,-0.4016,-0.3924,-0.3741,-0.3343,-0.2778,0.2267,0.9452,1.541,1.7049,1.955,2.0377,2.0347,2.0165,1.9857,2.0127,2.0453,1.9396,1.7084,1.5839,1.5682,1.5405,1.5403,1.5406,1.5464,1.5484,1.5403,1.5419,1.5413,1.5403,1.5407,1.553,1.5945,1.6262,1.5724,1.5234,1.5279,1.5353,1.5598,1.5656,1.5547,1.5797,-1.6991,-1.6926,-1.6902,-1.6819,-1.6863,-1.7409,-1.7254,-1.6796,-1.6367,-1.5863,-1.5418,-1.5118,-1.4743,-1.4419,-1.4176,-1.38,-1.3218,-1.3007,-1.2764,-1.2578,-1.2529,-1.252,-1.248,-1.2382,-1.2323,-1.2332,-1.2234,-1.2283,-1.2283,-1.2184,-1.2234,-1.2283,-1.2026,-1.1778,-1.1418,-1.0922,-1.0411,-1.0043,-0.9784,-0.9673,-0.9651,-0.971,-0.9777,-0.9777,-0.9888,-0.9865,-0.9614,-0.9651,-0.9621,-0.9475,-0.9358,-0.9162,-0.8971,-0.8606,-0.8533,-0.8488,-0.8285,-0.7838,-0.7473,-0.6804,-0.5971,-0.5395,-0.513,-0.514,-0.5077,-0.5484,-0.5652,-0.5692,-0.5459,-0.5015,-0.4512,-0.3972,-0.4016,-0.4188,-0.4276,-0.4144,-0.41,-0.4008,-0.3427,-0.2681,0.1432,0.7527,1.4387,1.6799,2.0102,2.038,1.8862,1.8504,1.9811,2.0278,2.0383,1.8997,1.6961,1.607,1.5507,1.5585,1.609,1.5937,1.5742,1.5565,1.5405,1.5419,1.5431,1.5818,1.6064,1.6642,1.7059,1.6553,1.6056,1.554,1.5536,1.6175,1.6456,1.6456,1.6779,-1.6042,-1.6042,-1.631,-1.6634,-1.6961,-1.7346,-1.7335,-1.7015,-1.6413,-1.5713,-1.5068,-1.4797,-1.4558,-1.4222,-1.3847,-1.3478,-1.2997,-1.2666,-1.2421,-1.2224,-1.2126,-1.2076,-1.2036,-1.2076,-1.2076,-1.2085,-1.2085,-1.2126,-1.2126,-1.1977,-1.1828,-1.1769,-1.1628,-1.1318,-1.0922,-1.0462,-0.9991,-0.9777,-0.9621,-0.9614,-0.9621,-0.9621,-0.9673,-0.9614,-0.9666,-0.9732,-0.9725,-0.9673,-0.9681,-0.9732,-0.9777,-0.9621,-0.9309,-0.862,-0.8209,-0.8215,-0.8062,-0.8008,-0.7806,-0.7127,-0.625,-0.5559,-0.535,-0.5251,-0.5081,-0.5415,-0.5788,-0.5844,-0.5843,-0.5484,-0.5471,-0.4709,-0.4236,-0.4495,-0.4539,-0.4408,-0.4361,-0.4337,-0.4143,-0.3391,-0.2884,-0.0077,0.7116,1.3921,1.7482,2.0274,1.8561,1.7432,1.8688,1.9609,1.9566,1.9984,1.8186,1.7008,1.6431,1.662,1.696,1.6569,1.617,1.5977,1.5838,1.5443,1.5556,1.6042,1.6821,1.7538,1.7799,1.7391,1.7028,1.6775,1.6859,1.7201,1.7359,1.7408,1.781,-1.5341,-1.5372,-1.5701,-1.6148,-1.674,-1.7024,-1.7155,-1.7014,-1.634,-1.5587,-1.4802,-1.4622,-1.4384,-1.4046,-1.3658,-1.3142,-1.2764,-1.2421,-1.2126,-1.1927,-1.1877,-1.1778,-1.1769,-1.1769,-1.1877,-1.1877,-1.1977,-1.2017,-1.2026,-1.1778,-1.1619,-1.1418,-1.1074,-1.0761,-1.0506,-0.9999,-0.9629,-0.9517,-0.9458,-0.951,-0.9517,-0.9562,-0.9569,-0.9621,-0.9614,-0.9673,-0.9681,-0.9673,-0.9673,-0.9681,-0.9688,-0.9629,-0.9204,-0.862,-0.7889,-0.7735,-0.7788,-0.7848,-0.7688,-0.7192,-0.647,-0.5844,-0.5569,-0.536,-0.5181,-0.531,-0.559,-0.5724,-0.5944,-0.6173,-0.6154,-0.5439,-0.48,-0.4993,-0.4789,-0.4644,-0.4703,-0.4717,-0.4504,-0.41,-0.3684,-0.2988,0.3014,1.0719,1.6562,1.9296,1.8736,1.7404,1.7229,1.7975,1.8241,1.8839,1.9149,1.8247,1.7574,1.8106,1.8464,1.7708,1.7276,1.6756,1.6484,1.6287,1.6773,1.7926,1.8588,1.8779,1.8695,1.8488,1.8347,1.8186,1.8386,1.8625,1.8462,1.8578,1.8873,-1.5184,-1.5226,-1.5226,-1.5574,-1.6148,-1.6616,-1.6797,-1.6789,-1.6255,-1.559,-1.4785,-1.4512,-1.414,-1.381,-1.343,-1.2997,-1.2569,-1.2224,-1.1927,-1.1719,-1.1728,-1.1678,-1.1669,-1.1669,-1.1728,-1.1728,-1.1828,-1.1877,-1.1877,-1.1628,-1.1427,-1.1065,-1.0557,-1.0146,-1.0154,-0.9681,-0.9368,-0.9263,-0.9263,-0.9309,-0.9361,-0.9413,-0.9465,-0.9569,-0.9569,-0.9577,-0.9614,-0.9569,-0.9569,-0.9517,-0.9271,-0.9263,-0.9302,-0.8262,-0.758,-0.7246,-0.7515,-0.7729,-0.7842,-0.7122,-0.6603,-0.6248,-0.6017,-0.5652,-0.5242,-0.5218,-0.5399,-0.5594,-0.5887,-0.6126,-0.6154,-0.6075,-0.5606,-0.532,-0.5119,-0.496,-0.5024,-0.5096,-0.4901,-0.4614,-0.4405,-0.3242,0.1737,0.7622,1.4708,1.8003,1.823,1.7728,1.6823,1.7525,1.8271,1.8445,1.9385,1.9247,1.8818,1.9704,1.989,1.9071,1.8494,1.8115,1.824,1.8594,1.9219,1.998,1.9902,1.9667,1.9683,1.9696,1.9458,1.9277,1.9823,2.0037,1.9821,1.9639,1.977,-1.4115,-1.4146,-1.4447,-1.4904,-1.5415,-1.6093,-1.6509,-1.6637,-1.5977,-1.5116,-1.4361,-1.3984,-1.3752,-1.342,-1.3045,-1.2666,-1.2372,-1.1968,-1.1719,-1.1578,-1.1578,-1.1477,-1.1469,-1.1519,-1.1578,-1.1628,-1.1678,-1.1778,-1.1778,-1.1418,-1.1175,-1.082,-1.0146,-0.9629,-0.9524,-0.9316,-0.9263,-0.9204,-0.9211,-0.9263,-0.9256,-0.9263,-0.9368,-0.9465,-0.9472,-0.9524,-0.9562,-0.9524,-0.942,-0.9256,-0.8949,-0.8837,-0.883,-0.7848,-0.7198,-0.7085,-0.73,-0.7467,-0.758,-0.7278,-0.6887,-0.6635,-0.6448,-0.6023,-0.5627,-0.5217,-0.5341,-0.5642,-0.593,-0.6178,-0.6164,-0.6159,-0.5897,-0.5741,-0.5514,-0.5316,-0.5291,-0.5455,-0.5444,-0.5056,-0.4755,-0.4907,-0.1764,0.1191,0.7519,1.3531,1.4135,1.654,1.6601,1.8426,1.9682,1.9165,1.9405,1.9658,1.9934,2.0294,2.049,1.9873,1.9709,1.9766,2.009,2.0233,2.0271,2.029,2.0389,2.0487,2.0312,2.0175,2.0268,2.0362,2.0536,2.0593,2.0298,2.0158,2.0246,-1.361,-1.3652,-1.3941,-1.4335,-1.4873,-1.5636,-1.6132,-1.615,-1.5479,-1.4697,-1.4125,-1.3762,-1.3515,-1.3228,-1.2754,-1.2323,-1.2126,-1.1828,-1.1569,-1.1477,-1.1427,-1.1377,-1.1377,-1.1368,-1.1427,-1.1477,-1.1528,-1.1628,-1.1628,-1.1267,-1.0863,-1.0344,-0.9777,-0.9368,-0.9159,-0.9054,-0.9061,-0.9008,-0.9008,-0.9054,-0.9106,-0.9159,-0.9218,-0.9316,-0.9375,-0.9427,-0.9427,-0.933,-0.918,-0.8896,-0.8626,-0.8355,-0.8096,-0.7622,-0.6874,-0.682,-0.7036,-0.7252,-0.7413,-0.7306,-0.6988,-0.6817,-0.6799,-0.6482,-0.6005,-0.5626,-0.5545,-0.5745,-0.6032,-0.6178,-0.6173,-0.6173,-0.6081,-0.5921,-0.5932,-0.5726,-0.5408,-0.5553,-0.5567,-0.5185,-0.5153,-0.5362,-0.5374,-0.4205,-0.0617,0.4877,0.9864,1.2688,1.5923,1.8776,2.0482,2.0179,1.9765,1.9942,2.0147,2.0318,2.0463,2.0508,2.0513,2.0514,2.0508,2.0402,2.0516,2.057,2.0531,2.0515,2.0579,2.0564,2.0488,2.0487,2.0562,2.0599,2.0597,2.0573,2.0529,-1.361,-1.361,-1.361,-1.391,-1.4417,-1.5204,-1.5522,-1.5382,-1.4769,-1.4343,-1.4171,-1.3659,-1.3334,-1.3074,-1.2657,-1.2224,-1.1877,-1.1628,-1.1477,-1.1377,-1.1326,-1.1326,-1.1326,-1.1326,-1.1326,-1.1377,-1.1427,-1.1469,-1.1469,-1.1124,-1.0498,-0.9821,-0.9465,-0.9106,-0.8903,-0.8798,-0.8798,-0.8798,-0.885,-0.8844,-0.8896,-0.9008,-0.9061,-0.9166,-0.9225,-0.9225,-0.9218,-0.9061,-0.885,-0.8521,-0.8143,-0.7978,-0.7664,-0.7252,-0.6712,-0.65,-0.682,-0.709,-0.7359,-0.7139,-0.6869,-0.6625,-0.6503,-0.643,-0.6349,-0.6021,-0.5761,-0.5641,-0.574,-0.6009,-0.6119,-0.6077,-0.6079,-0.6163,-0.6375,-0.6001,-0.5531,-0.5441,-0.5362,-0.5291,-0.5287,-0.5303,-0.5255,-0.4658,-0.406,-0.0916,0.4238,0.6986,1.1176,1.912,2.0554,2.1004,2.063,2.0385,2.0493,2.0576,2.0715,2.0847,2.0566,2.0513,2.0533,2.0582,2.0536,2.0531,2.0522,2.0525,2.0555,2.0568,2.0539,2.0564,2.0586,2.0602,2.0598,2.0596,2.0572,-1.361,-1.361,-1.361,-1.3879,-1.4314,-1.4491,-1.4491,-1.4317,-1.4013,-1.3741,-1.3322,-1.3076,-1.291,-1.2657,-1.2274,-1.1927,-1.1678,-1.1477,-1.1377,-1.1326,-1.1267,-1.1276,-1.1267,-1.1267,-1.1267,-1.1326,-1.1318,-1.1368,-1.1217,-1.0922,-1.0249,-0.9413,-0.9211,-0.8903,-0.8639,-0.8533,-0.858,-0.8633,-0.8633,-0.8685,-0.8738,-0.8798,-0.8903,-0.9015,-0.9015,-0.9015,-0.8962,-0.8521,-0.8249,-0.8037,-0.761,-0.7348,-0.7295,-0.6766,-0.6287,-0.644,-0.6549,-0.6603,-0.7031,-0.6815,-0.6495,-0.6223,-0.6089,-0.645,-0.6528,-0.6283,-0.5748,-0.5517,-0.5462,-0.5681,-0.595,-0.6027,-0.6004,-0.6166,-0.6225,-0.5932,-0.5515,-0.5429,-0.5399,-0.5348,-0.5348,-0.5277,-0.5177,-0.5111,-0.4478,-0.3284,-0.144,0.1462,0.7534,1.5923,2.1408,2.1951,2.1507,2.1249,2.092,2.092,2.108,2.1141,2.1192,2.1064,2.0889,2.088,2.0623,2.0503,2.0496,2.0492,2.0515,2.0519,2.0519,2.0537,2.0565,2.0585,2.0601,2.0597,2.1063,-1.361,-1.361,-1.361,-1.3786,-1.3955,-1.3789,-1.3591,-1.3492,-1.3382,-1.3116,-1.2735,-1.2618,-1.248,-1.2323,-1.1977,-1.1728,-1.1528,-1.1326,-1.1226,-1.1226,-1.1167,-1.1175,-1.1175,-1.1217,-1.1226,-1.1276,-1.1276,-1.1318,-1.1124,-1.0616,-0.9947,-0.9263,-0.9008,-0.8745,-0.848,-0.8368,-0.8368,-0.8421,-0.8468,-0.8521,-0.8527,-0.8586,-0.8692,-0.8752,-0.8752,-0.8804,-0.8646,-0.8043,-0.7717,-0.7551,-0.7133,-0.6864,-0.681,-0.6386,-0.6232,-0.6337,-0.6337,-0.6391,-0.6603,-0.6495,-0.6064,-0.5791,-0.5677,-0.5819,-0.5919,-0.5779,-0.5362,-0.5124,-0.5238,-0.5407,-0.5677,-0.5946,-0.6,-0.6055,-0.5896,-0.5736,-0.5618,-0.5555,-0.5508,-0.5458,-0.5407,-0.5356,-0.5289,-0.5301,-0.5171,-0.4492,-0.4009,-0.2887,0.4973,1.5286,2.1058,2.3848,2.2939,2.2133,2.1797,2.1507,2.1598,2.2133,2.3069,2.2796,2.1949,2.1808,2.2158,2.142,2.0482,2.0487,2.0491,2.0508,2.0513,2.0521,2.0537,2.0564,2.0586,2.0598,2.1338,-1.3563,-1.3563,-1.3573,-1.3583,-1.3525,-1.322,-1.2988,-1.2881,-1.2803,-1.2578,-1.2332,-1.2224,-1.2126,-1.1927,-1.1669,-1.1519,-1.1326,-1.1175,-1.1074,-1.1074,-1.1015,-1.1023,-1.1074,-1.1065,-1.1116,-1.1217,-1.1217,-1.1116,-1.0964,-1.0506,-0.9844,-0.9211,-0.8903,-0.8586,-0.8262,-0.8215,-0.8162,-0.8215,-0.8262,-0.8315,-0.8368,-0.8374,-0.8421,-0.848,-0.854,-0.8593,-0.8168,-0.7735,-0.73,-0.7079,-0.6756,-0.6431,-0.6218,-0.6059,-0.6064,-0.6178,-0.6123,-0.6232,-0.6282,-0.6228,-0.59,-0.5626,-0.5458,-0.5458,-0.5454,-0.5391,-0.5066,-0.4849,-0.4908,-0.5183,-0.5458,-0.5677,-0.5786,-0.595,-0.5955,-0.5791,-0.5677,-0.5673,-0.5622,-0.5572,-0.5407,-0.5301,-0.5077,-0.5077,-0.5242,-0.5183,-0.5066,-0.4791,-0.0095,1.1261,1.7982,2.2753,2.4041,2.301,2.2777,2.2506,2.2293,2.2919,2.4099,2.4385,2.347,2.354,2.3896,2.2241,2.0432,2.0459,2.0473,2.0491,2.0511,2.0513,2.0516,2.0531,2.0563,2.0585,2.203,-1.3362,-1.3314,-1.342,-1.3515,-1.3563,-1.3276,-1.2949,-1.2578,-1.2274,-1.2076,-1.1968,-1.1678,-1.1528,-1.1519,-1.1368,-1.1226,-1.1074,-1.1023,-1.0981,-1.0972,-1.0871,-1.0863,-1.0913,-1.0964,-1.0964,-1.0964,-1.0956,-1.0854,-1.0557,-1.0146,-0.9629,-0.8837,-0.8633,-0.8421,-0.7943,-0.7895,-0.7955,-0.8008,-0.8002,-0.8109,-0.8215,-0.8321,-0.8421,-0.8427,-0.8427,-0.8321,-0.7842,-0.7246,-0.6977,-0.6761,-0.6268,-0.5887,-0.5508,-0.5517,-0.5626,-0.5845,-0.59,-0.5959,-0.6014,-0.5959,-0.5736,-0.5517,-0.5352,-0.5297,-0.5242,-0.5066,-0.4901,-0.4684,-0.4684,-0.4963,-0.5183,-0.5407,-0.5626,-0.5845,-0.6009,-0.5896,-0.5727,-0.5786,-0.5791,-0.5626,-0.5462,-0.5187,-0.4967,-0.4963,-0.5132,-0.5128,-0.5014,-0.4791,-0.4515,0.2718,1.1124,1.6699,2.3419,2.3879,2.3139,2.3632,2.3485,2.3605,2.4532,2.4761,2.4776,2.3712,2.2745,2.1565,2.0379,2.0421,2.0454,2.0482,2.048,2.0496,2.0503,2.0525,2.054,2.0558,2.2611,-1.3266,-1.3218,-1.3266,-1.3372,-1.3372,-1.318,-1.2861,-1.2529,-1.1977,-1.1619,-1.1528,-1.1276,-1.1124,-1.1124,-1.1023,-1.0972,-1.0871,-1.0828,-1.082,-1.082,-1.0769,-1.0769,-1.0769,-1.0812,-1.0863,-1.0863,-1.0854,-1.0702,-1.0257,-0.9932,-0.9458,-0.8626,-0.8474,-0.8156,-0.7676,-0.7681,-0.7741,-0.7842,-0.7842,-0.7895,-0.8055,-0.8162,-0.8162,-0.8162,-0.8109,-0.8002,-0.7568,-0.6977,-0.6539,-0.6213,-0.5778,-0.5391,-0.5234,-0.5297,-0.5407,-0.5517,-0.5572,-0.5626,-0.5736,-0.5736,-0.5681,-0.5572,-0.5352,-0.5297,-0.5242,-0.5069,-0.4846,-0.4629,-0.4519,-0.4739,-0.4908,-0.5128,-0.5293,-0.5458,-0.5736,-0.5845,-0.5891,-0.5941,-0.5896,-0.5736,-0.5462,-0.5128,-0.4908,-0.4846,-0.5014,-0.5014,-0.4901,-0.4791,-0.457,-0.4519,0.3393,0.9505,1.5455,1.984,1.9295,2.1601,2.4783,2.4988,2.4999,2.5029,2.4844,2.2871,2.1313,2.0692,2.0346,2.0366,2.0402,2.0439,2.0482,2.048,2.05,2.0504,2.0529,2.0625,2.2196,-1.318,-1.317,-1.318,-1.317,-1.317,-1.3017,-1.2822,-1.2529,-1.1877,-1.1318,-1.1124,-1.093,-1.082,-1.0769,-1.0812,-1.082,-1.0777,-1.0726,-1.0667,-1.0608,-1.0522,-1.0514,-1.0506,-1.0557,-1.0659,-1.0718,-1.0761,-1.0454,-1.0058,-0.9777,-0.9302,-0.8527,-0.8162,-0.7949,-0.7628,-0.7521,-0.7574,-0.7676,-0.7676,-0.7729,-0.7788,-0.7848,-0.7901,-0.7901,-0.7848,-0.7735,-0.73,-0.6756,-0.6209,-0.5773,-0.5395,-0.512,-0.4959,-0.5022,-0.5187,-0.5297,-0.5297,-0.5352,-0.5407,-0.5513,-0.5681,-0.5791,-0.5462,-0.5297,-0.5187,-0.5018,-0.4739,-0.4463,-0.4408,-0.4519,-0.4684,-0.4798,-0.4959,-0.5234,-0.5567,-0.585,-0.595,-0.6046,-0.5946,-0.5841,-0.5441,-0.5054,-0.4739,-0.468,-0.4736,-0.4791,-0.4846,-0.4736,-0.4684,-0.4794,-0.1336,0.1906,0.5292,0.9172,1.3609,1.8968,2.3343,2.5352,2.5266,2.5329,2.4762,2.2615,2.1143,2.0577,2.0318,2.0334,2.0372,2.0408,2.0434,2.0454,2.0502,2.0506,2.0491,2.0729,2.1496,-1.3123,-1.3123,-1.3113,-1.3152,-1.317,-1.2968,-1.2774,-1.2431,-1.1819,-1.1276,-1.0922,-1.0573,-1.0368,-1.0205,-1.036,-1.0419,-1.047,-1.047,-1.0454,-1.0395,-1.036,-1.0249,-1.0241,-1.0293,-1.03,-1.0411,-1.0514,-1.0308,-0.9947,-0.9621,-0.9093,-0.8421,-0.8055,-0.7788,-0.7419,-0.7419,-0.7467,-0.7515,-0.7574,-0.7574,-0.7622,-0.7735,-0.7788,-0.7842,-0.7848,-0.7574,-0.7133,-0.6534,-0.6154,-0.5719,-0.5285,-0.4904,-0.4794,-0.4798,-0.4908,-0.5073,-0.5073,-0.5073,-0.5128,-0.5293,-0.5513,-0.5517,-0.5242,-0.5132,-0.5073,-0.4959,-0.4574,-0.4024,-0.4024,-0.4298,-0.4463,-0.4519,-0.4684,-0.5124,-0.5508,-0.5791,-0.6009,-0.6055,-0.6,-0.5742,-0.5425,-0.4805,-0.4024,-0.4135,-0.4301,-0.4467,-0.4794,-0.4684,-0.4574,-0.4904,-0.5179,-0.377,-0.2057,0.2927,0.9274,1.6026,2.0627,2.3305,2.5503,2.5451,2.4461,2.2211,2.0962,2.0512,2.0315,2.0313,2.0347,2.0359,2.039,2.0432,2.0478,2.0507,2.0493,2.0609,2.1201]},{"header":{"parameterUnit":"m.s-1","parameterCategory":1,"la1":31.0,"la2":29.5877,"lo1":-88.7671,"lo2":-86.6584,"dy":0.0162,"dx":0.0185,"nx":115,"ny":88,"refTime":"2024-03-18T12:00:00:Z","depth":0,"parameterNumber":3,"parameterNumberName":"V-component_of_WINDS"},"data":[0.0,0.0,0.0,0.0,0.0,0.0,0.0,0.0,0.0,0.0,0.0,0.0,0.0,0.0,0.0,0.0,0.0,0.0,0.0,0.0,0.0,0.0,0.0,0.0,0.0,0.0,0.0,0.0,0.0,0.0,0.0,0.0,0.0,0.0,0.0,0.0,0.0,0.0,0.0,0.0,0.0,0.0,0.0,0.0,0.0,0.0,0.0,0.0,0.0,0.0,0.0,0.0,0.0,0.0,0.0,0.0,0.0,0.0,0.0,0.0,0.0,0.0,0.0,0.0,0.0,0.0,0.0,0.0,0.0,0.0,0.0,0.0,0.0,0.0,0.0,0.0,0.0,0.0,0.0,0.0,0.0,0.0,0.0,0.0,0.0,0.0,0.0,0.0,0.0,0.0,0.0,0.0,0.0,0.0,0.0,0.0,0.0,0.0,0.0,0.0,0.0,0.0,0.0,0.0,0.0,0.0,0.0,0.0,0.0,0.0,0.0,0.0,0.0,0.0,0.0,0.0,0.0,0.0,0.0,0.0,0.0,0.0,0.0,0.0,0.0,0.0,0.0,0.0,0.0,0.0,0.0,0.0,0.0,0.0,0.0,0.0,0.0,0.0,0.0,0.0,0.0,0.0,0.0,0.0,0.0,0.0,0.0,0.0,0.0,0.0,0.0,0.0,0.0,0.0,0.0,0.0,0.0,0.0,0.0,0.0,0.0,0.0,0.0,0.0,0.0,0.0,0.0,0.0,0.0,0.0,0.0,0.0,0.0,0.0,0.0,0.0,0.0,0.0,0.0,0.0,0.0,0.0,0.0,0.0,0.0,0.0,0.0,0.0,0.0,0.0,0.0,0.0,0.0,0.0,0.0,0.0,0.0,0.0,0.0,0.0,0.0,0.0,0.0,0.0,0.0,0.0,0.0,0.0,0.0,0.0,0.0,0.0,0.0,0.0,0.0,0.0,0.0,0.0,0.0,0.0,0.0,0.0,0.0,0.0,0.0,0.0,0.0,0.0,0.0,0.0,0.0,0.0,0.0,0.0,0.0,0.0,0.0,0.0,0.0,0.0,0.0,0.0,0.0,0.0,0.0,0.0,0.0,0.0,0.0,0.0,0.0,0.0,0.0,0.0,0.0,0.0,0.0,0.0,0.0,0.0,0.0,0.0,0.0,0.0,0.0,0.0,0.0,0.0,0.0,0.0,0.0,0.0,0.0,0.0,0.0,0.0,0.0,0.0,0.0,0.0,0.0,0.0,0.0,0.0,0.0,0.0,0.0,0.0,0.0,0.0,0.0,0.0,0.0,0.0,0.0,0.0,0.0,0.0,0.0,0.0,0.0,0.0,0.0,0.0,0.0,0.0,0.0,0.0,0.0,0.0,0.0,0.0,0.0,0.0,0.0,0.0,0.0,0.0,0.0,0.0,0.0,0.0,0.0,0.0,0.0,0.0,0.0,0.0,0.0,0.0,0.0,0.0,0.0,0.0,0.0,0.0,0.0,0.0,0.0,0.0,0.0,0.0,0.0,0.0,0.0,0.0,0.0,0.0,0.0,0.0,0.0,0.0,0.0,0.0,0.0,0.0,0.0,0.0,0.0,0.0,0.0,0.0,0.0,0.0,0.0,0.0,0.0,0.0,0.0,0.0,0.0,0.0,0.0,0.0,0.0,0.0,0.0,0.0,0.0,0.0,0.0,0.0,0.0,0.0,0.0,0.0,0.0,0.0,0.0,0.0,0.0,0.0,0.0,0.0,0.0,0.0,0.0,0.0,0.0,0.0,0.0,0.0,0.0,0.0,0.0,0.0,0.0,0.0,0.0,0.0,0.0,0.0,0.0,0.0,0.0,0.0,0.0,0.0,0.0,0.0,0.0,0.0,0.0,0.0,0.0,0.0,0.0,0.0,0.0,0.0,0.0,0.0,0.0,0.0,0.0,0.0,0.0,0.0,0.0,0.0,0.0,0.0,0.0,0.0,0.0,0.0,0.0,0.0,0.0,0.0,0.0,0.0,0.0,0.0,0.0,0.0,0.0,0.0,0.0,0.0,0.0,0.0,0.0,0.0,0.0,0.0,0.0,0.0,0.0,0.0,0.0,0.0,0.0,0.0,0.0,0.0,0.0,0.0,0.0,0.0,0.0,0.0,0.0,0.0,0.0,0.0,0.0,0.0,0.0,0.0,0.0,0.0,0.0,0.0,0.0,0.0,0.0,0.0,0.0,0.0,0.0,0.0,0.0,0.0,0.0,0.0,0.0,0.0,0.0,0.0,0.0,0.0,0.0,0.0,0.0,0.0,0.0,0.0,0.0,0.0,0.0,0.0,0.0,0.0,0.0,0.0,0.0,0.0,0.0,0.0,0.0,0.0,0.0,0.0,0.0,0.0,0.0,0.0,0.0,0.0,0.0,0.0,0.0,0.0,0.0,0.0,0.0,0.0,0.0,0.0,0.0,0.0,0.0,0.0,0.0,0.0,0.0,0.0,0.0,0.0,0.0,0.0,0.0,0.0,0.0,0.0,0.0,0.0,0.0,0.0,0.0,0.0,0.0,0.0,0.0,0.0,0.0,0.0,0.0,0.0,0.0,0.0,0.0,0.0,0.0,0.0,0.0,0.0,0.0,0.0,0.0,0.0,0.0,0.0,0.0,0.0,0.0,0.0,0.0,0.0,0.0,0.0,0.0,0.0,0.0,0.0,0.0,0.0,0.0,0.0,0.0,0.0,0.0,0.0,0.0,0.0,0.0,0.0,0.0,0.0,0.0,0.0,0.0,0.0,0.0,0.0,0.0,0.0,0.0,0.0,0.0,0.0,0.0,0.0,0.0,0.0,0.0,0.0,0.0,0.0,0.0,0.0,0.0,0.0,0.0,0.0,0.0,0.0,0.0,0.0,0.0,0.0,0.0,0.0,0.0,0.0,0.0,0.0,0.0,0.0,0.0,0.0,0.0,0.0,0.0,0.0,0.0,0.0,0.0,0.0,0.0,0.0,0.0,0.0,0.0,0.0,0.0,0.0,0.0,0.0,0.0,0.0,0.0,0.0,0.0,0.0,0.0,0.0,0.0,0.0,0.0,0.0,0.0,0.0,0.0,0.0,0.0,0.0,0.0,0.0,0.0,0.0,0.0,0.0,0.0,0.0,0.0,0.0,0.0,0.0,0.0,0.0,0.0,0.0,0.0,0.0,0.0,0.0,0.0,0.0,0.0,0.0,0.0,0.0,0.0,0.0,0.0,0.0,0.0,0.0,0.0,0.0,0.0,0.0,0.0,0.0,0.0,0.0,0.0,0.0,0.0,0.0,0.0,0.0,0.0,0.0,0.0,0.0,0.0,0.0,0.0,0.0,0.0,0.0,0.0,0.0,0.0,0.0,0.0,0.0,0.0,0.0,0.0,0.0,0.0,0.0,0.0,0.0,0.0,0.0,0.0,0.0,0.0,0.0,0.0,0.0,0.0,0.0,0.0,0.0,0.0,0.0,0.0,0.0,0.0,0.0,0.0,0.0,0.0,0.0,0.0,0.0,0.0,0.0,0.0,0.0,0.0,0.0,0.0,0.0,0.0,0.0,0.0,0.0,0.0,0.0,0.0,0.0,0.0,0.0,0.0,0.0,0.0,0.0,0.0,0.0,0.0,0.0,0.0,0.0,0.0,0.0,0.0,0.0,0.0,0.0,0.0,0.0,0.0,0.0,0.0,0.0,0.0,0.0,0.0,0.0,0.0,0.0,0.0,0.0,0.0,0.0,0.0,0.0,0.0,0.0,0.0,0.0,0.0,0.0,0.0,0.0,0.0,0.0,0.0,0.0,0.0,0.0,0.0,0.0,0.0,0.0,0.0,0.0,0.0,0.0,0.0,0.0,0.0,0.0,0.0,0.0,0.0,0.0,0.0,0.0,0.0,0.0,0.0,0.0,0.0,0.0,0.0,0.0,0.0,0.0,0.0,0.0,0.0,0.0,0.0,0.0,0.0,0.0,0.0,0.0,0.0,0.0,0.0,0.0,0.0,0.0,0.0,0.0,0.0,0.0,0.0,0.0,0.0,0.0,0.0,0.0,0.0,0.0,0.0,0.0,0.0,0.0,0.0,0.0,0.0,0.0,0.0,0.0,0.0,0.0,0.0,0.0,0.0,0.0,0.0,0.0,0.0,0.0,0.0,0.0,0.0,0.0,0.0,0.0,0.0,0.0,0.0,0.0,0.0,0.0,0.0,0.0,0.0,0.0,0.0,0.0,0.0,0.0,0.0,0.0,0.0,0.0,0.0,0.0,0.0,0.0,0.0,0.0,0.0,0.0,-0.1733,0.0,0.0,0.0,0.0,0.0,0.0,0.0,0.0,0.0,0.0,0.0,0.0,0.0,0.0,0.0,0.0,0.0,0.0,0.0,0.0,0.0,0.0,0.0,0.0,0.0,0.0,0.0,0.0,0.0,0.0,0.0,0.0,0.0,0.0,0.0,0.0,0.0,0.0,0.0,0.0,0.0,0.0,0.0,0.0,0.0,0.0,0.0,0.0,0.0,0.0,0.0,0.0,0.0,0.0,0.0,0.0,0.0,0.0,0.0,0.0,0.0,0.0,0.0,0.0,0.0,0.0,0.0,0.0,0.0,0.0,0.0,0.0,0.0,0.0,0.0,0.0,0.0,0.0,0.0,0.0,0.0,0.0,0.0,0.0,0.0,0.0,0.0,0.0,0.0,0.0,0.0,0.0,0.0,0.0,0.0,0.0,0.0,0.0,0.0,0.0,0.0,0.0,0.0,0.0,0.0,0.0,0.0,0.0,0.0,0.0,-0.1788,-0.1704,-0.17,-0.1672,-0.1645,0.0,0.0,0.0,0.0,0.0,0.0,0.0,0.0,0.0,0.0,0.0,0.0,0.0,0.0,0.0,0.0,0.0,0.0,0.0,0.0,0.0,0.0,0.0,0.0,0.0,0.0,0.0,0.0,0.0,0.0,0.0,0.0,0.0,0.0,0.0,0.0,0.0,0.0,0.0,0.0,0.0,0.0,0.0,0.0,0.0,0.0,0.0,0.0,0.0,0.0,0.0,0.0,0.0,0.0,0.0,0.0,0.0,0.0,0.0,0.0,0.0,0.0,0.0,0.0,0.0,0.0,0.0,0.0,0.0,0.0,0.0,0.0,0.0,0.0,0.0,0.0,0.0,0.0,0.0,0.0,0.0,0.0,0.0,0.0,0.0,0.0,0.0,0.0,0.0,0.0,0.0,0.0,0.0,0.0,0.0,0.0,0.0,0.0,0.0,0.0,0.0,0.0,0.0,0.0,0.0,0.0,0.0,0.0,0.0,0.0,0.0,0.0,-0.1583,-0.1621,-0.1621,0.0,0.0,0.0,0.0,0.0,0.0,0.0,0.0,0.0,0.0,0.0,0.0,0.0,0.0,0.0,0.0,0.0,0.0,0.0,0.0,0.0,0.0,0.0,0.0,0.0,0.0,0.0,0.0,0.0,0.0,0.0,0.0,0.0,0.0,0.0,0.0,0.0,0.0,0.0,0.0,0.0,0.0,0.0,0.0,0.0,0.0,0.0,0.0,0.0,0.0,0.0,0.0,0.0,0.0,0.0,0.0,0.0,0.0,0.0,0.0,0.0,0.0,0.0,0.0,0.0,0.0,0.0,0.0,0.0,0.0,0.0,0.0,0.0,0.0,0.0,0.0,0.0,0.0,0.0,0.0,0.0,0.0,0.0,0.0,0.0,0.0,0.0,0.0,0.0,0.0,0.0,0.0,0.0,0.0,0.0,0.0,0.0,0.0,0.0,0.0,0.0,0.0,0.0,0.0,0.0,0.0,0.0,0.0,0.0,0.0,-0.113,-0.1565,-0.1583,0.0,-0.1674,0.0,0.0,0.0,0.0,0.0,0.0,0.0,0.0,0.0,0.0,0.0,0.0,0.0,0.0,0.0,0.0,0.0,0.0,0.0,0.0,0.0,0.0,0.0,0.0,0.0,0.0,0.0,0.0,0.0,0.0,0.0,0.0,0.0,0.0,0.0,0.0,0.0,0.0,0.0,0.0,0.0,0.0,0.0,0.0,0.0,0.0,0.0,0.0,0.0,0.0,0.0,0.0,0.0,0.0,0.0,0.0,0.0,0.0,0.0,0.0,0.0,0.0,0.0,0.0,0.0,0.0,0.0,0.0,0.0,0.0,0.0,0.0,0.0,0.0,0.0,0.0,0.0,0.0,0.0,0.0,0.0,0.0,0.0,0.0,0.0,0.0,0.0,0.0,0.0,0.0,0.0,0.0,0.0,0.0,0.0,0.0,0.0,0.0,0.0,0.0,0.0,0.0,0.0,0.0,0.0,0.0,0.0,0.0,0.0,0.0,-0.1031,-0.1533,-0.154,-0.1561,0.0,0.0,0.0,0.0,0.0,0.0,0.0,0.0,0.0,0.0,0.0,0.0,0.0,0.0,0.0,0.0,0.0,0.0,0.0,0.0,0.0,0.0,0.0,0.0,0.0,0.0,0.0,0.0,0.0,0.0,0.0,0.0,0.0,0.0,0.0,0.0,0.0,0.0,0.0,0.0,0.0,0.0,0.0,0.0,0.0,0.0,0.0,0.0,0.0,0.0,0.0,0.0,0.0,0.0,0.0,0.0,0.0,0.0,0.0,0.0,0.0,0.0,0.0,0.0,0.0,0.0,0.0,0.0,0.0,0.0,0.0,0.0,0.0,0.0,0.0,0.0,0.0,0.0,0.0,0.0,0.0,0.0,0.0,0.0,0.0,0.0,0.0,0.0,0.0,0.0,0.0,0.0,0.0,0.0,0.0,0.0,0.0,0.0,0.0,0.0,0.0,0.0,0.0,0.0,0.0,0.0,0.0,0.0,0.0,0.0,-0.0758,-0.0996,-0.1478,-0.1491,-0.1523,-0.1583,0.0,0.0,0.0,0.0,0.0,0.0,0.0,0.0,0.0,0.0,0.0,0.0,0.0,0.0,0.0,0.0,0.0,0.0,0.0,0.0,0.0,0.0,0.0,0.0,0.0,0.0,0.0,0.0,0.0,0.0,0.0,0.0,0.0,0.0,0.0,0.0,0.0,0.0,0.0,0.0,0.0,0.0,0.0,0.0,0.0,0.0,0.0,0.0,0.0,0.0,0.0,0.0,0.0,0.0,0.0,0.0,0.0,0.0,0.0,0.0,0.0,0.0,0.0,0.0,0.0,0.0,0.0,0.0,0.0,0.0,0.0,0.0,0.0,0.0,0.0,0.0,0.0,0.0,0.0,0.0,0.0,0.0,0.0,0.0,0.0,0.0,0.0,0.0,0.0,0.0,0.0,0.0,0.0,0.0,0.0,0.0,0.0,0.0,0.0,0.0,0.0,0.0,0.0,0.0,0.0,0.0,0.0,0.0,-0.0679,-0.0705,-0.0971,-0.1474,-0.1491,-0.1523,0.0,0.0,0.0,0.0,0.0,0.0,0.0,0.0,0.0,0.0,0.0,0.0,0.0,0.0,0.0,0.0,0.0,0.0,0.0,0.0,0.0,0.0,0.0,0.0,0.0,0.0,0.0,0.0,0.0,0.0,0.0,0.0,0.0,0.0,0.0,0.0,0.0,0.0,0.0,0.0,0.0,0.0,0.0,0.0,0.0,0.0,0.0,0.0,0.0,0.0,0.0,0.0,0.0,0.0,0.0,0.0,0.0,0.0,0.0,0.0,0.0,0.0,0.0,0.0,0.0,0.0,0.0,0.0,0.0,0.0,0.0,0.0,0.0,0.0,0.0,0.0,0.0,0.0,0.0,0.0,0.0,0.0,0.0,0.0,0.0,0.0,0.0,0.0,0.0,0.0,0.0,0.0,0.0,0.0,0.0,0.0,0.0,0.0,0.0,0.0,0.0,0.0,0.0,0.0,0.0,0.0,0.0,0.0,0.0,-0.0679,-0.095,-0.1191,-0.1421,-0.1432,-0.1453,0.0,0.0,0.0,0.0,0.0,0.0,0.0,0.0,0.0,0.0,0.0,0.0,0.0,0.0,0.0,0.0,0.0,0.0,0.0,0.0,0.0,0.0,0.0,0.0,0.0,0.0,0.0,0.0,0.0,0.0,0.0,0.0,0.0,0.0,0.0,0.0,0.0,0.0,0.0,0.0,0.0,0.0,0.0,0.0,0.0,0.0,0.0,0.0,0.0,0.0,0.0,0.0,0.0,0.0,0.0,0.0,0.0,0.0,0.0,0.0,0.0,0.0,0.0,0.0,0.0,0.0,0.0,0.0,0.0,0.0,0.0,0.0,0.0,0.0,0.0,0.0,0.0,0.0,0.0,0.0,0.0,0.0,0.0,0.0,0.0,0.0,0.0,0.0,0.0,0.0,0.0,0.0,0.0,0.0,0.0,0.0,0.0,0.0,0.0,0.0,0.0,0.0,0.0,0.0,0.0,0.0,0.0,0.0,0.0,-0.0677,0.0,-0.1319,-0.1373,-0.1368,-0.1373,0.0,0.0,0.0,0.0,0.0,0.0,0.0,0.0,0.0,0.0,0.0,0.0,0.0,0.0,0.0,0.0,0.0,0.0,0.0,0.0,0.0,0.0,0.0,0.0,0.0,0.0,0.0,0.0,0.0,0.0,0.0,0.0,0.0,0.0,0.0,0.0,0.0,0.0,0.0,0.0,0.0,0.0,0.0,0.0,0.0,0.0,0.0,0.0,0.0,0.0,0.0,0.0,0.0,0.0,0.0,0.0,0.0,0.0,0.0,0.0,0.0,0.0,0.0,0.0,0.0,0.0,0.0,0.0,0.0,0.0,0.0,0.0,0.0,0.0,0.0,0.0,0.0,0.0,0.0,0.0,0.0,0.0,0.0,0.0,0.0,0.0,0.0,0.0,0.0,0.0,0.0,0.0,0.0,0.0,0.0,0.0,0.0,0.0,0.0,0.0,0.0,0.0,0.0,0.0,0.0,0.0,0.0,0.0,-0.1003,-0.0649,-0.1053,-0.1296,-0.1318,-0.1318,-0.1329,0.0,0.0,0.0,0.0,0.0,0.0,0.0,0.0,0.0,0.0,0.0,0.0,0.0,0.0,0.0,0.0,0.0,0.0,0.0,0.0,0.0,0.0,0.0,0.0,0.0,0.0,0.0,0.0,0.0,0.0,0.0,0.0,0.0,0.0,0.0,0.0,0.0,0.0,0.0,0.0,0.0,0.0,0.0,0.0,0.0,0.0,0.0,0.0,0.0,0.0,0.0,0.0,0.0,0.0,0.0,0.0,0.0,0.0,0.0,0.0,0.0,0.0,0.0,0.0,0.0,0.0,0.0,0.0,0.0,0.0,0.0,0.0,0.0,0.0,0.0,0.0,0.0,0.0,0.0,0.0,0.0,0.0,0.0,0.0,0.0,0.0,0.0,0.0,0.0,0.0,0.0,0.0,0.0,0.0,0.0,0.0,0.0,0.0,0.0,0.0,0.0,0.0,0.0,0.0,0.0,0.0,0.0,0.0,0.0,-0.1091,-0.1181,-0.1247,-0.1307,-0.1318,-0.1318,0.0,0.0,0.0,0.0,0.0,0.0,0.0,0.0,0.0,0.0,0.0,0.0,0.0,0.0,0.0,0.0,0.0,0.0,0.0,0.0,0.0,0.0,0.0,0.0,0.0,0.0,0.0,0.0,0.0,0.0,0.0,0.0,0.0,0.0,0.0,0.0,0.0,0.0,0.0,0.0,0.0,0.0,0.0,0.0,0.0,0.0,0.0,0.0,0.0,0.0,0.0,0.0,0.0,0.0,0.0,0.0,0.0,0.0,0.0,0.0,0.0,0.0,0.0,0.0,0.0,0.0,0.0,0.0,0.0,0.0,0.0,0.0,0.0,0.0,0.0,0.0,0.0,0.0,0.0,0.0,0.0,0.0,0.0,0.0,0.0,0.0,0.0,0.0,0.0,0.0,0.0,0.0,0.0,0.0,0.0,0.0,0.0,0.0,0.0,0.0,0.0,0.0,0.0,0.0,0.0,0.0,0.0,0.0,0.0,-0.1307,-0.1236,-0.1226,-0.1247,-0.1247,-0.1269,-0.1258,0.0,0.0,0.0,0.0,0.0,0.0,0.0,0.0,0.0,0.0,0.0,0.0,0.0,0.0,0.0,0.0,0.0,0.0,0.0,0.0,0.0,0.0,0.0,0.0,0.0,0.0,0.0,0.0,0.0,0.0,0.0,0.0,0.0,0.0,0.0,0.0,0.0,0.0,0.0,0.0,0.0,0.0,0.0,0.0,0.0,0.0,0.0,0.0,0.0,0.0,0.0,0.0,0.0,0.0,0.0,0.0,0.0,0.0,0.0,0.0,0.0,0.0,0.0,0.0,0.0,0.0,0.0,0.0,0.0,0.0,0.0,0.0,0.0,0.0,0.0,0.0,0.0,0.0,0.0,0.0,0.0,0.0,0.0,0.0,0.0,0.0,0.0,0.0,0.0,0.0,0.0,0.0,0.0,0.0,0.0,0.0,0.0,0.0,0.0,0.0,0.0,0.0,0.0,0.0,0.0,0.0,0.0,0.0,-0.1318,-0.1262,-0.1213,-0.1188,-0.1188,-0.1188,0.0,0.0,0.0,0.0,0.0,0.0,0.0,0.0,0.0,0.0,0.0,0.0,0.0,0.0,0.0,0.0,0.0,0.0,0.0,0.0,0.0,0.0,0.0,0.0,0.0,0.0,0.0,0.0,0.0,0.0,0.0,0.0,0.0,0.0,0.0,0.0,0.0,0.0,0.0,0.0,0.0,0.0,0.0,0.0,0.0,0.0,0.0,0.0,0.0,0.0,0.0,0.0,0.0,0.0,0.0,0.0,0.0,0.0,0.0,0.0,0.0,0.0,0.0,0.0,0.0,0.0,0.0,0.0,0.0,0.0,0.0,0.0,0.0,0.0,0.0,0.0,0.0,0.0,0.0,0.0,0.0,0.0,0.0,0.0,0.0,0.0,0.0,0.0,0.0,0.0,0.0,0.0,0.0,0.0,0.0,0.0,0.0,0.0,0.0,0.0,0.0,0.0,0.0,0.0,0.0,0.0,0.0,0.0,0.0,-0.1312,-0.143,-0.1394,-0.1208,-0.1188,-0.1188,0.0,0.0,0.0,0.0,0.0,0.0,0.0,0.0,0.0,0.0,0.0,0.0,0.0,0.0,0.0,0.0,0.0,0.0,0.0,0.0,0.0,0.0,0.0,0.0,0.0,0.0,0.0,0.0,0.0,0.0,0.0,0.0,0.0,0.0,0.0,0.0,0.0,0.0,0.0,0.0,0.0,0.0,0.0,0.0,0.0,0.0,0.0,0.0,0.0,0.0,0.0,0.0,0.0,0.0,0.0,0.0,0.0,0.0,0.0,0.0,0.0,0.0,0.0,0.0,0.0,0.0,0.0,0.0,0.0,0.0,0.0,0.0,0.0,0.0,0.0,0.0,0.0,0.0,0.0,0.0,0.0,0.0,0.0,0.0,0.0,0.0,0.0,0.0,0.0,0.0,0.0,0.0,0.0,0.0,0.0,0.0,0.0,0.0,0.0,0.0,0.0,0.0,0.0,0.0,0.0,0.0,0.0,0.0,-0.1477,-0.1323,-0.1496,-0.1532,-0.138,-0.1343,-0.1279,0.0,0.0,0.0,0.0,0.0,0.0,0.0,0.0,0.0,0.0,0.0,0.0,0.0,0.0,0.0,0.0,0.0,0.0,0.0,0.0,0.0,0.0,0.0,0.0,0.0,0.0,0.0,0.0,0.0,0.0,0.0,0.0,0.0,0.0,0.0,0.0,0.0,0.0,0.0,0.0,0.0,0.0,0.0,0.0,0.0,0.0,0.0,0.0,0.0,0.0,0.0,0.0,0.0,0.0,0.0,0.0,0.0,0.0,0.0,0.0,0.0,0.0,0.0,0.0,0.0,0.0,0.0,0.0,0.0,0.0,0.0,0.0,0.0,0.0,0.0,0.0,0.0,0.0,0.0,0.0,0.0,0.0,0.0,0.0,0.0,0.0,0.0,0.0,0.0,0.0,0.0,0.0,0.0,0.0,0.0,0.0,0.0,0.0,0.0,0.0,0.0,0.0,0.0,0.0,0.0,0.0,0.0,0.0,-0.1647,-0.1387,-0.1565,-0.1677,-0.1652,-0.1523,-0.1404,0.0,0.0,0.0,0.0,0.0,0.0,0.0,0.0,0.0,0.0,0.0,0.0,0.0,0.0,0.0,0.0,0.0,0.0,0.0,0.0,0.0,0.0,0.0,0.0,0.0,0.0,0.0,0.0,0.0,0.0,0.0,0.0,0.0,0.0,0.0,0.0,0.0,0.0,0.0,0.0,0.0,0.0,0.0,0.0,0.0,0.0,0.0,0.0,0.0,0.0,0.0,0.0,0.0,0.0,0.0,0.0,0.0,0.0,0.0,0.0,0.0,0.0,0.0,0.0,0.0,0.0,0.0,0.0,0.0,0.0,0.0,0.0,0.0,0.0,0.0,0.0,0.0,0.0,0.0,0.0,0.0,0.0,0.0,0.0,0.0,0.0,0.0,0.0,0.0,0.0,0.0,0.0,0.0,0.0,0.0,0.0,0.0,0.0,0.0,0.0,0.0,0.0,0.0,0.0,0.0,0.0,0.0,0.0,-0.1824,-0.187,-0.2044,-0.2074,-0.1905,-0.1484,-0.1354,0.0,0.0,0.0,0.0,0.0,0.0,0.0,0.0,0.0,0.0,0.0,0.0,0.0,0.0,0.0,0.0,0.0,0.0,0.0,0.0,0.0,0.0,0.0,0.0,0.0,0.0,0.0,0.0,0.0,0.0,0.0,0.0,0.0,0.0,0.0,0.0,0.0,0.0,0.0,0.0,0.0,0.0,0.0,0.0,0.0,0.0,0.0,0.0,-0.243,0.0,0.0,0.0,0.0,0.0,0.0,0.0,0.0,0.0,0.0,0.0,0.0,0.0,0.0,0.0,0.0,0.0,0.0,0.0,0.0,0.0,0.0,0.0,0.0,0.0,0.0,0.0,0.0,0.0,0.0,0.0,0.0,0.0,0.0,0.0,0.0,0.0,0.0,0.0,0.0,0.0,0.0,0.0,0.0,0.0,0.0,0.0,0.0,0.0,0.0,0.0,0.0,0.0,0.0,0.0,0.0,0.0,0.0,0.0,-0.1957,-0.2012,-0.2201,-0.2275,-0.2176,-0.182,-0.1616,0.0,0.0,0.0,0.0,0.0,0.0,0.0,0.0,0.0,0.0,0.0,0.0,0.0,0.0,0.0,0.0,0.0,0.0,0.0,0.0,0.0,0.0,0.0,0.0,0.0,0.0,0.0,0.0,0.0,0.0,0.0,0.0,0.0,0.0,0.0,0.0,0.0,0.0,0.0,0.0,0.0,0.0,0.0,0.0,0.0,0.0,0.0,0.0,0.0,0.0,0.0,0.0,0.0,0.0,0.0,0.0,0.0,0.0,0.0,0.0,0.0,0.0,0.0,0.0,0.0,0.0,0.0,0.0,0.0,0.0,0.0,0.0,0.0,0.0,0.0,0.0,0.0,0.0,0.0,0.0,0.0,0.0,0.0,0.0,0.0,0.0,0.0,0.0,0.0,0.0,0.0,0.0,0.0,0.0,0.0,0.0,0.0,0.0,0.0,0.0,0.0,0.0,0.0,0.0,0.0,0.0,0.0,-0.2098,-0.2146,-0.2113,-0.2285,-0.2381,-0.2439,-0.2288,-0.202,-0.1677,0.0,0.0,0.0,0.0,0.0,0.0,0.0,0.0,0.0,0.0,0.0,0.0,0.0,0.0,0.0,0.0,0.0,0.0,0.0,0.0,0.0,0.0,0.0,0.0,0.0,0.0,0.0,0.0,0.0,0.0,0.0,0.0,0.0,0.0,0.0,0.0,0.0,0.0,-0.2455,-0.2529,0.0,0.0,0.0,0.0,0.0,0.0,0.0,0.0,-0.2404,0.0,0.0,0.0,0.0,0.0,0.0,0.0,0.0,0.0,0.0,0.0,0.0,0.0,0.0,0.0,0.0,0.0,0.0,0.0,0.0,0.0,0.0,0.0,0.0,0.0,0.0,0.0,0.0,0.0,0.0,0.0,0.0,0.0,0.0,0.0,0.0,0.0,0.0,0.0,0.0,0.0,0.0,0.0,0.0,0.0,0.0,0.0,0.0,0.0,0.0,0.0,0.0,0.0,0.0,0.0,0.0,-0.223,-0.2421,-0.2533,-0.2584,-0.2625,-0.2646,-0.2646,-0.2672,-0.2457,-0.1945,0.0,0.0,0.0,0.0,0.0,0.0,0.0,0.0,0.0,0.0,0.0,0.0,0.0,0.0,0.0,0.0,0.0,0.0,0.0,0.0,0.0,0.0,0.0,0.0,0.0,0.0,0.0,0.0,0.0,0.0,0.0,0.0,0.0,0.0,0.0,0.0,0.0,0.0,0.0,-0.3077,-0.3274,0.0,0.0,0.0,0.0,0.0,0.0,0.0,0.0,-0.3413,0.0,0.0,0.0,0.0,0.0,0.0,0.0,0.0,0.0,0.0,0.0,0.0,0.0,0.0,0.0,0.0,0.0,0.0,0.0,0.0,0.0,0.0,0.0,0.0,0.0,0.0,0.0,0.0,0.0,0.0,0.0,0.0,0.0,0.0,0.0,0.0,0.0,0.0,0.0,0.0,0.0,0.0,0.0,0.0,0.0,0.0,0.0,0.0,0.0,0.0,0.0,0.0,0.0,0.0,0.0,-0.2102,-0.2369,-0.2497,-0.2548,-0.2553,-0.2553,-0.2553,-0.2709,-0.246,0.0,0.0,0.0,0.0,0.0,0.0,0.0,0.0,0.0,0.0,0.0,0.0,0.0,0.0,0.0,0.0,0.0,0.0,0.0,0.0,0.0,0.0,0.0,0.0,0.0,0.0,0.0,0.0,0.0,0.0,0.0,0.0,0.0,0.0,0.0,0.0,0.0,0.0,0.0,0.0,-0.3186,-0.3508,-0.369,0.0,0.0,0.0,0.0,0.0,0.0,-0.3535,-0.3807,0.0,0.0,0.0,0.0,0.0,0.0,0.0,0.0,0.0,0.0,0.0,0.0,0.0,0.0,0.0,0.0,0.0,0.0,0.0,0.0,0.0,0.0,0.0,0.0,0.0,0.0,0.0,0.0,0.0,0.0,0.0,0.0,0.0,0.0,0.0,0.0,0.0,0.0,0.0,0.0,0.0,0.0,0.0,0.0,0.0,0.0,0.0,0.0,0.0,0.0,0.0,0.0,0.0,0.0,0.0,-0.1917,-0.2317,-0.2471,-0.2367,-0.2404,-0.2385,-0.2325,-0.2536,-0.2268,0.0,0.0,0.0,0.0,0.0,0.0,0.0,0.0,0.0,0.0,0.0,0.0,0.0,0.0,0.0,0.0,0.0,0.0,0.0,0.0,0.0,0.0,0.0,0.0,0.0,0.0,0.0,0.0,0.0,0.0,0.0,0.0,0.0,0.0,0.0,0.0,0.0,0.0,0.0,0.0,0.0,-0.3681,-0.409,-0.3862,0.0,0.0,0.0,0.0,-0.3588,-0.397,0.0,0.0,0.0,0.0,0.0,0.0,0.0,0.0,0.0,0.0,0.0,0.0,0.0,0.0,0.0,0.0,0.0,0.0,0.0,0.0,0.0,0.0,0.0,0.0,0.0,0.0,0.0,0.0,0.0,0.0,0.0,0.0,0.0,0.0,0.0,0.0,0.0,0.0,0.0,0.0,0.0,0.0,0.0,0.0,0.0,0.0,0.0,0.0,0.0,0.0,0.0,0.0,0.0,0.0,0.0,0.0,-0.1942,-0.2648,-0.2752,-0.2252,-0.2399,-0.2351,-0.2065,-0.2086,-0.1857,0.0,0.0,0.0,0.0,0.0,0.0,0.0,0.0,0.0,0.0,0.0,0.0,0.0,0.0,0.0,0.0,0.0,0.0,0.0,0.0,0.0,0.0,0.0,0.0,0.0,0.0,0.0,0.0,0.0,0.0,0.0,0.0,0.0,0.0,0.0,0.0,0.0,0.0,0.0,0.0,0.0,-0.3948,-0.4014,-0.4504,-0.4832,0.0,0.0,-0.4686,-0.5363,-0.5539,0.0,0.0,0.0,0.0,0.0,0.0,0.0,0.0,0.0,0.0,0.0,0.0,0.0,0.0,0.0,0.0,0.0,0.0,0.0,0.0,0.0,0.0,0.0,0.0,0.0,0.0,0.0,0.0,0.0,0.0,0.0,0.0,0.0,0.0,0.0,0.0,0.0,0.0,0.0,0.0,0.0,0.0,0.0,0.0,0.0,0.0,0.0,0.0,0.0,0.0,0.0,0.0,0.0,0.0,0.0,-0.2049,-0.175,-0.2245,-0.2335,-0.1943,-0.1926,-0.1916,-0.1891,-0.142,-0.109,0.0,0.0,0.0,0.0,0.0,0.0,0.0,0.0,0.0,0.0,0.0,0.0,0.0,0.0,0.0,0.0,0.0,0.0,0.0,0.0,0.0,0.0,0.0,0.0,0.0,0.0,0.0,0.0,0.0,0.0,0.0,0.0,0.0,0.0,0.0,0.0,0.0,0.0,0.0,0.0,0.0,0.0,-0.4439,-0.473,0.0,0.0,0.0,-0.5063,-0.5685,0.0,0.0,0.0,0.0,0.0,0.0,0.0,0.0,0.0,0.0,0.0,0.0,0.0,0.0,0.0,0.0,0.0,0.0,0.0,0.0,0.0,0.0,0.0,0.0,0.0,0.0,0.0,0.0,0.0,0.0,0.0,0.0,0.0,0.0,0.0,0.0,0.0,0.0,0.0,0.0,0.0,0.0,0.0,0.0,0.0,0.0,0.0,0.0,0.0,0.0,0.0,0.0,0.0,0.0,0.0,0.0,0.0,-0.1595,-0.1942,-0.1951,-0.1579,-0.145,-0.1459,-0.1567,-0.0884,0.0,0.0,0.0,0.0,0.0,0.0,0.0,0.0,0.0,0.0,0.0,0.0,0.0,0.0,0.0,0.0,0.0,0.0,0.0,0.0,0.0,0.0,0.0,0.0,0.0,0.0,0.0,0.0,0.0,0.0,0.0,0.0,0.0,0.0,0.0,0.0,0.0,0.0,0.0,0.0,0.0,0.0,-0.4561,-0.477,-0.4946,-0.54,0.0,0.0,-0.5626,-0.589,-0.5885,-0.5663,0.0,0.0,0.0,0.0,0.0,0.0,0.0,0.0,0.0,0.0,0.0,0.0,0.0,0.0,0.0,0.0,0.0,0.0,0.0,0.0,0.0,0.0,0.0,0.0,0.0,0.0,0.0,0.0,0.0,0.0,0.0,0.0,0.0,0.0,0.0,0.0,0.0,0.0,0.0,0.0,0.0,0.0,0.0,0.0,0.0,0.0,0.0,0.0,0.0,0.0,0.0,0.0,0.0,0.0,0.0,-0.1536,-0.1956,-0.1871,-0.1267,-0.1167,-0.1086,-0.0958,-0.0709,-0.0449,0.0,0.0,0.0,0.0,0.0,0.0,0.0,0.0,0.0,0.0,0.0,0.0,0.0,0.0,0.0,0.0,0.0,0.0,0.0,0.0,0.0,0.0,0.0,0.0,0.0,0.0,0.0,0.0,0.0,0.0,0.0,0.0,0.0,0.0,0.0,0.0,0.0,0.0,0.0,0.0,0.0,-0.4759,-0.48,-0.5326,-0.5743,0.0,0.0,-0.6542,-0.6367,-0.6043,-0.5804,-0.5767,0.0,0.0,0.0,0.0,0.0,0.0,0.0,0.0,0.0,0.0,0.0,0.0,0.0,0.0,0.0,0.0,0.0,0.0,0.0,0.0,0.0,0.0,0.0,0.0,0.0,0.0,0.0,0.0,0.0,0.0,0.0,0.0,0.0,0.0,0.0,0.0,0.0,0.0,0.0,0.0,0.0,0.0,0.0,0.0,0.0,0.0,0.0,0.0,0.0,0.0,0.0,0.0,0.0,-0.1797,-0.1497,-0.1707,-0.154,-0.0984,-0.0675,-0.0501,-0.0405,-0.0067,0.0143,0.0,0.0,0.0,0.0,0.0,0.0,0.0,0.0,0.0,0.0,0.0,0.0,0.0,0.0,0.0,0.0,0.0,0.0,0.0,0.0,0.0,0.0,0.0,0.0,0.0,0.0,0.0,0.0,0.0,0.0,0.0,0.0,0.0,0.0,0.0,0.0,0.0,0.0,0.0,0.0,0.0,-0.4946,-0.5356,-0.5657,0.0,0.0,-0.5992,-0.6307,-0.6753,-0.6234,-0.5787,-0.5787,-0.473,0.0,0.0,0.0,0.0,0.0,0.0,0.0,0.0,0.0,0.0,0.0,0.0,0.0,0.0,0.0,0.0,0.0,0.0,0.0,0.0,0.0,0.0,0.0,0.0,0.0,0.0,0.0,0.0,0.0,0.0,0.0,0.0,0.0,0.0,0.0,0.0,0.0,0.0,0.0,0.0,0.0,0.0,0.0,0.0,0.0,0.0,0.0,0.0,0.0,0.0,0.0,0.0,-0.176,-0.147,-0.1559,-0.1302,-0.0737,-0.0274,0.0011,0.012,0.0415,0.0442,0.0,0.0,0.0,0.0,0.0,0.0,0.0,0.0,0.0,0.0,0.0,0.0,0.0,0.0,0.0,0.0,0.0,0.0,0.0,0.0,0.0,0.0,0.0,0.0,0.0,0.0,0.0,0.0,0.0,0.0,0.0,0.0,0.0,0.0,0.0,0.0,0.0,0.0,0.0,0.0,0.0,-0.4979,-0.5685,-0.5787,-0.5745,-0.5517,-0.5355,-0.5576,-0.6534,-0.6208,-0.5686,-0.5296,0.0,0.0,0.0,0.0,0.0,0.0,0.0,0.0,0.0,0.0,0.0,0.0,0.0,0.0,0.0,0.0,0.0,0.0,0.0,0.0,0.0,0.0,0.0,0.0,0.0,0.0,0.0,0.0,0.0,0.0,0.0,0.0,0.0,0.0,0.0,0.0,0.0,0.0,0.0,0.0,0.0,0.0,0.0,0.0,0.0,0.0,0.0,0.0,0.0,0.0,0.0,0.0,0.0,-0.1735,-0.1416,-0.1539,-0.1251,-0.0529,0.0011,0.0372,0.0577,0.0541,0.035,0.0,0.0,0.0,0.0,0.0,0.0,0.0,0.0,0.0,0.0,0.0,0.0,0.0,0.0,0.0,0.0,0.0,0.0,0.0,0.0,0.0,0.0,0.0,0.0,0.0,0.0,0.0,0.0,0.0,0.0,0.0,0.0,0.0,0.0,0.0,0.0,0.0,0.0,0.0,0.0,-0.463,-0.4822,-0.5685,-0.5787,-0.5561,-0.4917,-0.4325,-0.4393,-0.5649,-0.5819,-0.537,0.0,0.0,0.0,0.0,0.0,0.0,0.0,0.0,0.0,0.0,0.0,0.0,0.0,0.0,0.0,0.0,0.0,0.0,0.0,0.0,0.0,0.0,0.0,0.0,0.0,0.0,0.0,0.6874,0.6828,0.0,0.0,0.0,0.0,0.0,0.0,0.0,0.0,0.0,0.0,0.0,0.4299,0.3596,0.0,0.0,0.0,0.0,0.0,0.0,0.0,0.0,0.0,0.0,0.0,0.0,-0.1961,-0.1674,-0.1712,-0.1318,-0.0454,0.0131,0.0644,0.1069,0.0868,0.0515,0.0,0.0,0.0,0.0,0.0,0.0,0.0,0.0,0.0,0.0,0.0,0.0,0.0,0.0,0.0,0.0,0.0,0.0,0.0,0.0,0.0,0.0,0.0,0.0,0.0,0.0,0.0,0.0,0.0,0.0,0.0,0.0,0.0,0.0,0.0,0.0,0.0,0.0,-0.4148,-0.426,-0.4436,-0.4846,-0.567,-0.5787,-0.5429,0.0,0.0,0.0,0.0,0.0,0.0,0.0,0.0,0.0,0.0,0.0,0.0,0.0,0.0,-0.4686,-0.2688,-0.2337,-0.2756,-0.4142,0.0,0.0,0.0,0.0,0.0,0.0,0.0,0.0,0.0,0.0,0.0,0.0,0.0,0.0,0.0,0.0,0.8613,0.0,0.0,0.0,0.0,0.0,0.0,0.0,0.0,0.6681,0.6749,0.6727,0.6288,0.6394,0.0,0.6233,0.4244,0.0,0.0,0.0,0.0,0.0,0.0,0.0,0.0,-0.2067,-0.177,-0.1748,-0.1316,-0.0459,0.0157,0.0745,0.1294,0.0857,0.0397,0.0,0.0,0.0,0.0,0.0,0.0,0.0,0.0,0.0,0.0,0.0,0.0,0.0,0.0,0.0,0.0,0.0,0.0,0.0,0.0,0.0,0.0,0.0,0.0,0.0,0.0,-0.08,0.0,0.0,0.0,0.0,0.0,0.0,0.0,0.0,0.0,-0.2802,-0.3632,-0.4166,-0.4084,-0.4252,-0.4681,-0.5427,0.0,0.0,0.0,0.0,0.0,0.0,0.0,-0.4895,-0.5179,-0.6234,-0.6833,-0.6219,-0.526,-0.5105,-0.6746,0.0,0.0,-0.3785,-0.3286,-0.3718,-0.5316,-0.5779,-0.5798,-0.5491,-0.5511,-0.5504,0.0,0.0,0.0,0.0,0.0,0.0,0.0,0.0,1.0365,1.0367,0.0,1.037,0.0,0.0,0.0,0.0,0.0,0.0,0.0,0.0,1.1067,1.1519,1.1395,1.0344,0.9868,0.9719,0.7935,0.6933,0.6734,0.6176,0.0,0.0,0.0,0.0,0.0,0.0,-0.1849,-0.1431,-0.1388,-0.1073,-0.0322,0.0187,0.0733,0.132,0.0494,0.0,0.0,0.0,0.0,0.0,0.0,0.0,0.0,0.0,0.0,0.0,0.0,0.0,0.0,0.0,0.0,0.0,0.0,0.0,0.0,0.0,0.0,0.0,0.0,0.0,0.0,-0.1368,0.0,0.0,0.0,0.0,0.0,0.0,0.0,0.0,0.0,0.0,-0.4063,-0.4191,-0.4223,-0.4226,0.0,0.0,0.0,0.0,-0.4441,-0.5115,-0.5197,-0.4886,-0.4088,-0.4459,-0.5458,-0.736,0.0,0.0,-0.6877,-0.6307,-0.6307,-0.7485,-0.7682,-0.7088,-0.5161,-0.4643,-0.4859,-0.5988,-0.6593,-0.6687,-0.6005,-0.6012,-0.6203,1.3512,0.0,0.0,0.0,0.0,1.1273,1.1569,1.208,1.2074,1.208,1.2083,1.2078,0.0,0.0,0.0,0.0,0.0,0.0,1.1894,1.209,1.2323,1.244,1.2421,1.2087,1.2254,1.2785,1.2257,1.1643,1.1038,1.087,0.8577,0.4353,0.0,0.0,0.0,0.0,0.2344,0.2402,0.1888,0.1876,0.2416,0.1658,0.1187,0.1054,0.0363,0.0,0.0,0.0,0.0,0.0,0.0,0.0,0.0,0.0,0.0,0.0,0.0,0.0,0.0,0.0,0.0,0.0,0.0,0.0,0.0,0.0,0.0,0.0,0.0,0.0,-0.1541,-0.1059,-0.131,0.0,0.0,0.0,0.0,0.0,0.0,0.0,0.0,0.0,-0.4111,-0.4207,-0.4369,0.0,0.0,-0.4216,-0.4399,-0.4314,-0.4638,-0.5791,0.0,0.0,0.0,-0.4892,-0.562,-0.7404,-0.8465,-0.886,-0.8238,-0.8341,-0.8341,-0.7843,-0.767,-0.7473,-0.6986,-0.6399,-0.6293,-0.689,-0.7045,-0.6961,-0.6814,-0.6774,-0.6774,1.6319,1.4444,1.387,1.361,1.3623,1.3672,1.3902,1.4268,1.4305,1.4108,1.3787,1.3803,1.3424,1.2771,1.2285,0.0,0.0,0.0,1.284,1.2819,1.3122,1.327,1.3307,1.3634,1.4075,1.4558,1.458,1.4311,1.3788,1.3125,1.1326,0.8386,0.0,0.0,0.4175,0.4143,0.3863,0.3344,0.3461,0.3455,0.3274,0.1892,0.1058,0.0813,0.0281,0.0,0.0,0.0,0.0,0.0,0.0,0.0,0.0,0.0,0.0,0.0,0.0,0.0,0.0,0.0,0.0,0.0,0.0,0.0,0.0,0.0,0.0,0.0,0.0,-0.0605,-0.2077,-0.1423,0.0,0.0,0.0,0.0,0.0,0.0,0.0,-0.3318,-0.3442,-0.3963,-0.4902,-0.5045,-0.5093,-0.5162,-0.4854,-0.4614,-0.4584,0.0,-0.5444,-0.6522,-0.6808,-0.6705,-0.6081,-0.5766,-0.6091,-0.7594,-0.8364,-0.8955,-0.9087,-0.938,-0.9153,-0.8077,-0.767,-0.767,-0.767,-0.7342,-0.7151,-0.7459,-0.737,-0.7286,-0.7293,-0.716,-0.707,1.8692,1.7254,1.5913,1.5296,1.5205,1.5332,1.5829,1.6576,1.6633,1.6212,1.5485,1.542,1.4503,1.3003,1.2992,0.0,0.0,1.2997,1.3012,1.3009,1.3743,1.4074,1.4105,1.4887,1.5287,1.5264,1.5283,1.5258,1.5087,1.3608,1.2853,1.2673,0.9198,0.6509,0.478,0.4687,0.4041,0.2796,0.418,0.425,0.3029,0.1603,0.0822,0.0745,0.0259,0.0,0.0,0.0,0.0,0.0,0.0,0.0,0.0,0.0,0.0,0.0,0.0,0.0,0.0,0.0,0.0,0.0,0.0,0.0,0.0,0.0,0.0,0.0,-0.0154,0.0,-0.196,-0.2191,0.0,0.0,0.0,-0.4384,-0.4098,-0.4667,-0.4663,-0.3508,0.0,0.0,-0.6139,0.0,-0.6067,-0.5378,-0.5237,-0.523,-0.5275,-0.5859,-0.6538,-0.7269,-0.6905,-0.6681,-0.7086,-0.6792,-0.6859,-0.7847,-0.787,-0.8187,-0.919,-0.9387,-0.8948,-0.7924,-0.767,-0.767,-0.767,-0.769,-0.767,-0.7663,-0.767,-0.7628,-0.7454,-0.7293,-0.716,1.9543,1.8639,1.8434,1.7772,1.6847,1.6854,1.7028,1.7256,1.7339,1.7238,1.7015,1.6443,1.5632,1.4646,1.4624,1.4624,1.4616,1.4643,1.4639,1.4637,1.4757,1.4803,1.4762,1.498,1.5082,1.5075,1.5062,1.4753,1.4144,1.3754,1.3248,1.2583,1.1077,0.9803,0.8821,0.8791,0.861,0.8275,0.8049,0.6845,0.4713,0.4206,0.3081,0.1139,0.0379,0.0,0.0,0.0,0.0,0.0,0.0,0.0,0.0,0.0,0.0,0.0,0.0,0.0,0.0,0.0,0.0,0.0,0.0,0.0,0.0,0.0,-0.0401,0.0,-0.1447,-0.1585,-0.1923,-0.2069,0.0,0.0,-0.3691,-0.476,-0.5428,-0.5643,-0.5549,-0.503,-0.5084,-0.5454,-0.6203,-0.6276,-0.6251,-0.603,-0.5557,-0.5418,-0.5933,-0.6187,-0.6754,-0.7855,-0.7944,-0.7738,-0.742,-0.7696,-0.792,-0.8277,-0.7995,-0.7997,-0.8773,-0.8487,-0.8012,-0.7763,-0.767,-0.767,-0.7655,-0.767,-0.7663,-0.767,-0.767,-0.7677,-0.751,-0.7426,-0.7286,2.008,1.9345,1.9193,1.872,1.8079,1.8335,1.8445,1.8515,1.8583,1.8393,1.7984,1.6812,1.6051,1.5624,1.56,1.5587,1.5619,1.5976,1.6127,1.609,1.6051,1.582,1.542,1.5364,1.5175,1.4825,1.4841,1.4638,1.4198,1.3845,1.3453,1.2992,1.2135,1.1503,1.1135,1.0498,1.0155,1.0194,0.9235,0.8309,0.7441,0.6367,0.4696,0.245,0.1538,0.0885,0.0463,0.038,0.0291,0.0145,0.005,0.0,0.0,0.0,0.0,0.0,0.0,0.0,0.0,0.0,0.0,0.0,0.0,0.0,0.0,0.0,-0.0515,0.0,-0.1862,0.0,-0.1862,-0.2378,-0.2818,-0.3072,-0.4544,-0.5642,-0.5968,-0.6207,-0.6293,-0.6109,-0.6084,-0.618,-0.648,-0.6376,-0.6345,-0.6384,-0.6247,-0.6161,-0.6353,-0.6809,-0.7536,-0.8278,-0.8373,-0.8294,-0.7825,-0.7579,-0.7592,-0.7857,-0.7966,-0.8139,-0.8488,-0.8097,-0.7624,-0.7313,-0.7241,-0.7324,-0.7404,-0.7338,-0.7248,-0.7241,-0.728,-0.735,-0.7536,-0.7503,-0.7405,2.0275,1.9565,1.8981,1.8771,1.8893,1.9368,1.9606,1.972,1.9726,1.9261,1.8437,1.6976,1.628,1.6186,1.6167,1.6177,1.6215,1.6891,1.7179,1.7116,1.7102,1.669,1.5959,1.5788,1.5343,1.4688,1.4637,1.4621,1.4604,1.3924,1.3607,1.3569,1.273,1.2346,1.2341,1.1028,1.0392,1.0492,0.9455,0.9336,1.0141,0.8288,0.6353,0.4425,0.3195,0.2145,0.1309,0.1029,0.0755,0.0415,0.0197,0.0052,0.0,0.0044,0.0049,0.0,-0.0428,0.0,0.0,0.0,0.0,0.0,0.0,0.0,0.0,-0.0127,-0.0617,-0.1697,-0.192,-0.2013,-0.2001,-0.3046,-0.3927,-0.44,-0.5797,-0.6542,-0.609,-0.6449,-0.6781,-0.6811,-0.6781,-0.6781,-0.679,-0.6568,-0.6445,-0.6712,-0.7059,-0.707,-0.6684,-0.7499,-0.8294,-0.8373,-0.8373,-0.8326,-0.7904,-0.7073,-0.6602,-0.7189,-0.765,-0.8175,-0.8214,-0.7807,-0.7297,-0.6797,-0.6657,-0.6666,-0.6936,-0.6856,-0.6695,-0.6608,-0.6586,-0.6782,-0.7328,-0.744,-0.7479,1.9737,1.9087,1.8662,1.8487,1.8508,1.8717,1.8978,1.925,1.9298,1.8867,1.8103,1.7711,1.7201,1.6586,1.6528,1.6501,1.6506,1.6653,1.668,1.6652,1.6581,1.6439,1.6202,1.554,1.5149,1.4992,1.4477,1.4203,1.4228,1.4108,1.4101,1.4105,1.3326,1.2942,1.2918,0.0,0.0,0.0,1.1834,1.1205,1.0178,1.0348,0.9421,0.7322,0.437,0.0,0.2611,0.1906,0.1352,0.0953,0.0601,0.0,0.0,0.0,0.0,0.0,0.0,0.0,0.0,0.0,0.0,0.0,0.1048,0.0382,-0.0343,-0.0857,-0.1281,-0.163,-0.2585,-0.3174,-0.3187,-0.4255,-0.5098,-0.5458,-0.6027,-0.6305,-0.6126,-0.635,-0.6621,-0.679,-0.6651,-0.6621,-0.6751,-0.6751,-0.6966,-0.7535,-0.7734,-0.7605,-0.7161,-0.7831,-0.839,-0.8373,-0.8373,-0.7975,-0.6881,-0.6506,-0.6482,-0.6903,-0.6776,-0.6969,-0.7356,-0.702,-0.6581,-0.6378,-0.6156,-0.6109,-0.6468,-0.6608,-0.652,-0.6065,-0.5978,-0.6153,-0.6746,-0.6884,-0.6999,1.9794,0.0,1.8646,1.8256,0.0,1.8065,1.8217,1.8439,1.8825,1.8749,1.8281,1.7817,1.7371,1.6998,1.6881,1.6831,1.6866,1.7205,1.7312,1.7241,1.7169,1.6885,1.6444,1.6062,1.5697,1.528,1.4665,1.434,1.4337,1.4094,1.3973,1.3997,1.3592,1.3396,1.3436,1.3148,1.2759,1.2308,1.2369,1.221,1.1838,1.1862,1.1224,0.9842,0.0,0.0,0.0,0.0,0.0,0.0,0.0,0.0,0.0,0.0,0.0,0.0296,0.1059,0.1327,0.0857,0.1072,0.1541,0.2223,0.1589,0.0781,-0.0095,-0.0763,-0.1487,-0.2348,-0.3745,-0.4632,-0.4646,-0.5202,-0.5561,-0.5561,-0.5842,-0.6029,-0.6021,-0.6091,-0.6276,-0.659,-0.6651,-0.6681,-0.679,-0.7483,-0.7988,-0.8382,-0.8451,-0.8095,-0.7322,-0.7827,-0.8406,-0.8373,-0.8373,-0.7881,-0.6642,-0.6284,-0.6339,-0.6546,-0.6474,-0.6443,-0.6737,-0.6522,-0.6276,-0.6276,-0.616,-0.6089,-0.6069,-0.619,-0.6168,-0.5875,-0.5787,-0.5861,-0.6234,-0.6477,-0.6782,1.9897,1.9332,1.8677,1.8087,1.759,1.7505,1.7526,1.7681,0.0,0.0,0.0,1.7689,1.739,1.7371,1.7238,1.7161,1.7196,1.7704,1.7915,1.7851,1.7769,1.7342,1.6656,1.6559,1.6185,1.5536,1.49,1.4568,1.445,1.3989,1.371,1.362,1.362,1.3669,1.3731,1.3862,1.3413,1.2446,1.2539,1.2942,1.3524,1.3104,1.2579,1.1976,1.1489,1.0525,0.9115,0.8945,0.8712,0.8345,0.725,0.5148,0.1941,0.2152,0.1902,0.0838,0.2068,0.257,0.1939,0.202,0.2158,0.2301,0.1587,0.0916,0.0412,-0.0364,-0.1562,-0.3323,-0.4885,-0.578,-0.5787,-0.5811,-0.5686,-0.5404,-0.5599,-0.5749,-0.5835,-0.5929,-0.6133,-0.6346,-0.6529,-0.6848,-0.7243,-0.8228,-0.9016,-0.8967,-0.8916,-0.86,-0.7586,-0.7923,-0.8373,-0.8373,-0.8373,-0.7951,-0.6817,-0.6346,-0.6292,-0.6308,-0.63,-0.6276,-0.6276,-0.6276,-0.6276,-0.6276,-0.6235,-0.5989,-0.5801,-0.5708,-0.5686,-0.5642,-0.5605,-0.5613,-0.5714,-0.6102,-0.6418,1.9594,1.9634,1.8467,1.7926,1.7807,1.7286,1.7142,1.7321,1.7811,1.8027,1.7975,1.7825,1.773,1.773,1.7519,1.7428,1.7376,1.7342,1.7304,0.0,1.7093,1.697,1.6816,1.616,1.5814,1.5692,1.5042,1.4446,1.4025,1.3972,1.3702,1.326,1.3295,1.3412,1.3528,1.3622,1.3591,1.3499,1.3858,1.3809,1.338,1.3969,1.398,1.3323,1.2271,1.1676,1.1483,0.9668,0.8545,0.8507,0.9472,0.9064,0.7135,0.8242,0.6829,0.2119,0.3937,0.4677,0.3059,0.2482,0.2007,0.1574,0.1376,0.1205,0.1049,0.0127,-0.1598,-0.4235,-0.5339,-0.5787,-0.5787,-0.5802,-0.5795,-0.5715,-0.5536,-0.5474,-0.5737,-0.6202,-0.6373,-0.6024,-0.6029,-0.6867,-0.8194,-0.8765,-0.8935,-0.8935,-0.8765,-0.8688,-0.859,-0.8511,-0.8406,-0.8373,-0.8373,-0.7944,-0.7007,-0.6522,-0.6316,-0.6276,-0.6276,-0.6276,-0.6276,-0.6276,-0.6236,-0.6236,-0.5756,-0.5428,-0.5443,-0.5344,-0.518,-0.5056,-0.4917,-0.488,-0.5253,-0.5495,-0.5656,1.9345,1.9113,1.8594,1.8206,1.7938,1.7798,1.7801,1.79,1.8221,1.7988,1.7429,1.7439,1.7432,1.7392,1.7199,1.7076,1.7002,1.6799,1.667,1.6617,1.6485,1.6405,1.6374,1.6119,1.5988,1.5983,1.543,1.501,1.4729,1.4116,1.3634,1.3371,1.3123,1.3034,1.3158,1.3227,1.3345,1.3492,1.3867,1.3995,1.3811,1.4215,1.4338,1.4092,1.3584,1.3637,1.4193,1.3456,1.2976,1.2788,1.3494,1.332,1.2101,1.1577,1.0629,0.9159,0.808,0.5461,0.0875,0.1033,0.1314,0.1336,0.0842,0.0601,0.0709,-0.0,-0.1752,-0.471,-0.5372,-0.5809,-0.6332,-0.6063,-0.5923,-0.6257,-0.5883,-0.5748,-0.6067,-0.6293,-0.6363,-0.6304,-0.6478,-0.7053,-0.8132,-0.8398,-0.8398,-0.8316,-0.8275,-0.8472,-0.8878,-0.8373,-0.7725,-0.7412,-0.7887,-0.7839,-0.6856,-0.6474,-0.6292,-0.6276,-0.6276,-0.6276,-0.6276,-0.6268,-0.595,-0.5299,-0.4862,-0.4735,-0.479,-0.4879,-0.4896,-0.5009,-0.473,-0.4693,-0.4836,-0.5195,-0.5627,1.914,1.8787,1.8728,1.8395,1.7891,1.8098,1.8223,1.8238,1.8499,1.8073,1.7299,1.7226,1.7147,1.6986,1.6799,1.667,1.6607,1.6382,1.6246,1.6163,1.5996,1.5911,1.5896,1.5994,1.6093,1.6074,1.5743,1.552,1.529,1.4255,1.3563,1.3309,1.2883,1.2738,1.2832,1.2924,1.3051,1.321,1.3553,1.3874,1.4105,1.4206,1.4387,1.4694,1.4659,1.5175,1.6271,1.6908,1.7056,1.6683,1.6614,1.6219,1.5392,1.3751,1.3555,1.4863,1.2272,0.754,0.1448,0.0973,0.1091,0.0763,0.0084,-0.0306,-0.0193,-0.0679,-0.2168,-0.4671,-0.5252,-0.5745,-0.6673,-0.647,-0.6222,-0.6563,-0.6414,-0.6291,-0.6397,-0.6378,-0.6392,-0.659,-0.6933,-0.7306,-0.7616,-0.7739,-0.7721,-0.7599,-0.787,-0.8349,-0.8594,-0.7825,-0.6804,-0.6643,-0.7304,-0.7634,-0.6594,-0.6354,-0.6292,-0.6276,-0.6276,-0.6276,-0.6228,-0.6107,-0.5508,-0.4526,-0.4279,-0.4258,-0.4221,-0.4363,-0.4585,-0.4761,-0.4533,-0.4392,-0.4553,-0.5223,-0.5729,1.9095,1.92,1.8685,1.8037,1.7541,1.7596,1.7694,1.776,1.7908,1.7974,1.7869,1.7723,1.73,1.6769,1.6607,1.6474,1.6409,1.6207,1.6126,1.6057,1.5799,1.558,1.5566,1.5639,1.5726,1.5871,1.5881,1.5643,1.5185,1.4412,1.352,1.2639,1.2581,1.2623,1.2652,1.2824,1.2904,1.2855,1.3123,1.3461,1.3824,1.3949,1.4423,1.5293,1.4739,1.5277,1.7019,1.7782,1.7965,1.7485,1.6894,1.6184,1.5488,1.5167,1.516,1.5383,1.4928,1.2613,0.7861,0.4918,0.2117,-0.0359,-0.1047,-0.1311,-0.1377,-0.216,-0.3248,-0.4563,-0.5132,-0.5801,-0.6806,-0.6867,-0.6725,-0.6539,-0.6998,-0.7234,-0.6574,-0.6666,-0.6747,-0.628,-0.6925,-0.746,-0.7565,-0.7321,-0.7086,-0.7075,-0.7786,-0.8254,-0.8031,-0.6928,-0.596,-0.6005,-0.6746,-0.7138,-0.6719,-0.6474,-0.6316,-0.6276,-0.6276,-0.6244,-0.6045,-0.5277,-0.4319,-0.4399,-0.4207,-0.4187,-0.4117,-0.4109,-0.41,-0.4245,-0.4178,-0.4061,-0.448,-0.5149,-0.5657,1.8606,1.8731,1.8527,1.8409,1.8361,1.8461,1.8488,1.8573,1.8728,1.8604,1.8302,1.8197,1.7761,1.6974,1.6487,1.6219,1.6166,1.6363,1.6204,1.5906,1.6422,1.6551,1.6279,1.6614,1.6635,1.6308,1.6413,1.617,1.5513,1.4577,1.3713,1.2972,1.2567,1.2407,1.2518,1.2652,1.277,1.2867,1.3479,1.388,1.411,1.4393,1.4722,1.516,1.5415,1.6205,1.7581,1.864,1.889,1.8307,1.8022,1.713,1.5439,1.5822,1.5888,1.5407,1.4452,1.3089,1.1156,0.5693,0.107,-0.1935,-0.2008,-0.2131,-0.2656,-0.3373,-0.4044,-0.4457,-0.5121,-0.5801,-0.6331,-0.6774,-0.6914,-0.6787,-0.7066,-0.7134,-0.6895,-0.6922,-0.6907,-0.6713,-0.7052,-0.7293,-0.7224,-0.6841,-0.6621,-0.6772,-0.7333,-0.7531,-0.738,-0.6598,-0.5925,-0.562,-0.5917,-0.6186,-0.6243,-0.6324,-0.6292,-0.6276,-0.6276,-0.622,-0.5648,-0.4909,-0.4231,-0.4207,-0.4207,-0.4207,-0.4187,-0.4117,-0.4055,-0.4022,-0.396,-0.3957,-0.4127,-0.4715,-0.5231,1.8214,1.8293,1.8386,1.8556,1.8788,1.895,1.8997,1.9049,1.9228,1.9038,1.867,1.8464,1.8078,1.7469,1.6833,1.6559,1.659,1.6894,1.6739,1.6356,1.7143,1.7563,1.7578,1.7537,1.7347,1.6977,1.7043,1.6713,1.5898,1.4912,1.3988,1.3297,1.2774,1.2494,1.2455,1.2534,1.2748,1.3112,1.3776,1.4239,1.4541,1.51,1.5471,1.5643,1.625,1.7136,1.8298,1.9212,1.9488,1.9025,1.8934,1.8232,1.6819,1.6652,1.6249,1.5368,1.3812,1.2869,1.2811,0.6244,0.0743,-0.2382,-0.2567,-0.2668,-0.3303,-0.3913,-0.4249,-0.4371,-0.4932,-0.5384,-0.5761,-0.627,-0.6579,-0.6613,-0.68,-0.7007,-0.6879,-0.6884,-0.6937,-0.6979,-0.7091,-0.7092,-0.6747,-0.6293,-0.606,-0.6349,-0.6478,-0.6543,-0.6519,-0.6165,-0.5645,-0.5292,-0.5277,-0.5498,-0.582,-0.6029,-0.6153,-0.6245,-0.6245,-0.6109,-0.5489,-0.4862,-0.4223,-0.4207,-0.4207,-0.4207,-0.4187,-0.4138,-0.4068,-0.3994,-0.3954,-0.394,-0.3963,-0.4428,-0.5019,1.8095,1.8202,1.8189,1.8242,1.8242,1.8478,1.8556,1.8634,1.8865,1.9003,1.8858,1.8412,1.8164,1.8209,1.7858,1.7768,1.7849,1.7753,1.7751,1.7719,1.7709,1.8329,1.9427,1.8236,1.7632,1.7587,1.7637,1.7088,1.5945,1.5339,1.4433,1.332,1.3337,1.2989,1.2567,1.2657,1.2903,1.35,1.3889,1.4325,1.5101,1.608,1.6747,1.6985,1.7099,1.7735,1.8933,1.9295,1.9521,1.9741,1.9171,1.9132,1.9677,1.7771,1.618,1.5396,1.3831,1.2894,1.2344,0.7398,0.213,-0.1748,-0.2581,-0.275,-0.3064,-0.3487,-0.3881,-0.4239,-0.4276,-0.4583,-0.4985,-0.5501,-0.5837,-0.5926,-0.6499,-0.6562,-0.6293,-0.6473,-0.6755,-0.6923,-0.6879,-0.6667,-0.627,-0.5719,-0.5551,-0.5685,-0.5657,-0.5609,-0.5554,-0.5197,-0.5036,-0.5055,-0.5093,-0.5316,-0.5742,-0.5742,-0.5842,-0.5998,-0.6052,-0.6252,-0.5791,-0.5309,-0.4718,-0.4215,-0.4207,-0.4207,-0.4187,-0.4138,-0.4035,-0.3996,-0.4014,-0.4,-0.4053,-0.4458,-0.5004,1.8029,1.8189,1.8095,1.8161,1.8279,1.8319,1.8411,1.8517,1.8711,1.8812,1.8846,1.8631,1.8619,1.873,1.868,1.8268,1.7706,1.8097,1.8119,1.7943,1.8584,1.9206,1.9591,1.9126,1.8698,1.8354,1.8324,1.7749,1.6637,1.6009,1.5338,1.4643,1.4233,1.3958,1.3769,1.3826,1.3996,1.4234,1.4834,1.5373,1.5785,1.6753,1.7432,1.7711,1.7939,1.836,1.9002,1.9212,1.9434,1.9669,1.9556,1.9726,1.9879,1.74,1.6008,1.6242,1.5145,1.4423,1.3798,0.8654,0.309,-0.1303,-0.1978,-0.2216,-0.2857,-0.2881,-0.2807,-0.3016,-0.3575,-0.3928,-0.4196,-0.4762,-0.5285,-0.5335,-0.5104,-0.5179,-0.5593,-0.578,-0.5999,-0.6501,-0.6175,-0.5567,-0.5617,-0.5313,-0.5171,-0.5274,-0.5344,-0.5354,-0.5277,-0.5093,-0.4934,-0.4902,-0.4928,-0.5049,-0.5277,-0.5207,-0.5246,-0.5561,-0.5773,-0.6052,-0.5902,-0.591,-0.5484,-0.4574,-0.4399,-0.4207,-0.4187,-0.4138,-0.4055,-0.4003,-0.4029,-0.4208,-0.4289,-0.4602,-0.5078,1.7963,1.8083,1.8029,1.8042,1.8201,1.824,1.8333,1.8503,1.8634,1.8736,1.8784,1.8822,1.8903,1.9017,1.9078,1.8702,1.8056,1.8593,1.8647,1.8373,1.9227,1.9603,1.9639,1.9639,1.943,1.9031,1.8792,1.829,1.7621,1.6801,1.6148,1.5656,1.5102,1.4719,1.4593,1.4599,1.4701,1.5026,1.5575,1.6015,1.6426,1.7113,1.7641,1.7898,1.827,1.8601,1.8878,1.9119,1.9338,1.9509,1.9732,1.9825,1.9558,1.7985,1.6918,1.6977,1.7014,1.6398,1.4961,1.0405,0.5924,0.2456,0.1596,0.0543,-0.2123,-0.2191,-0.1905,-0.2111,-0.2642,-0.3223,-0.3534,-0.3776,-0.4128,-0.4523,-0.4068,-0.4015,-0.4915,-0.4982,-0.5378,-0.5875,-0.5467,-0.504,-0.5062,-0.4902,-0.487,-0.4966,-0.5087,-0.5157,-0.5252,-0.503,-0.4838,-0.471,-0.4704,-0.48,-0.496,-0.4966,-0.4934,-0.5151,-0.5435,-0.5749,-0.6036,-0.6153,-0.5976,-0.51,-0.4536,-0.4319,-0.4187,-0.4138,-0.4091,-0.4031,-0.4208,-0.4421,-0.4544,-0.4719,-0.5173,1.7922,1.7922,1.7922,1.7975,1.8042,1.8175,1.8307,1.8517,1.862,1.8721,1.8836,1.8941,1.8979,1.9017,1.9078,1.9043,1.903,1.9207,1.931,1.9325,1.9398,1.9435,1.9515,1.9596,1.9617,1.957,1.9031,1.8786,1.8743,1.7715,1.6932,1.6371,1.5884,1.5389,1.4763,1.4922,1.5129,1.5623,1.5887,1.6249,1.6926,1.7191,1.7462,1.771,1.8048,1.8403,1.8843,1.9019,1.92,1.9394,1.9585,1.9446,1.9275,1.95,1.9244,1.7879,1.906,1.8518,1.5757,1.2787,1.0425,0.9265,0.8317,0.491,0.0979,-0.022,-0.046,-0.1223,-0.1837,-0.2511,-0.3057,-0.2553,-0.2511,-0.3572,-0.3603,-0.3635,-0.4018,-0.4301,-0.4619,-0.5114,-0.4928,-0.481,-0.471,-0.4473,-0.4409,-0.4646,-0.4774,-0.487,-0.5093,-0.4838,-0.4517,-0.4452,-0.4485,-0.4511,-0.4646,-0.478,-0.478,-0.4838,-0.5119,-0.5404,-0.5655,-0.5842,-0.6029,-0.5354,-0.4553,-0.4306,-0.4158,-0.4117,-0.4076,-0.4077,-0.4342,-0.4566,-0.4756,-0.4931,-0.5231,1.7909,1.7962,1.7962,1.8055,1.8135,1.8254,1.8386,1.8517,1.8697,1.876,1.8822,1.9003,1.9055,1.9055,1.9153,1.9228,1.925,1.9339,1.931,1.9295,1.9347,1.9435,1.9493,1.956,1.9632,1.966,1.9495,1.9206,1.8854,1.85,1.7914,1.7124,1.6881,1.6564,1.6101,1.6173,1.6317,1.647,1.6543,1.6747,1.7057,1.7158,1.7368,1.7664,1.7856,1.8138,1.8619,1.8932,1.9152,1.9256,1.9495,1.9625,1.9716,2.0054,1.9965,1.9468,1.9827,2.0043,1.86,1.5249,1.3691,1.4087,1.161,0.9452,0.8351,0.7112,0.4665,0.1153,-0.0672,-0.1436,-0.1828,-0.1859,-0.2191,-0.3475,-0.3145,-0.3022,-0.3458,-0.3856,-0.4241,-0.4514,-0.4504,-0.4458,-0.435,-0.4053,-0.3891,-0.4188,-0.4318,-0.4505,-0.4678,-0.471,-0.4485,-0.4253,-0.4221,-0.4188,-0.4253,-0.4355,-0.442,-0.4517,-0.4768,-0.5023,-0.5271,-0.5484,-0.571,-0.5455,-0.468,-0.4324,-0.4185,-0.4117,-0.4076,-0.4092,-0.4268,-0.4539,-0.4844,-0.5158,-0.5502,1.7909,1.7975,1.8002,1.8082,1.8254,1.8333,1.8489,1.8659,1.8812,1.8912,1.9026,1.9139,1.9191,1.9205,1.9376,1.9413,1.9413,1.9472,1.9457,1.9354,1.9362,1.945,1.9545,1.9596,1.9669,1.9705,1.969,1.9516,1.9196,1.8982,1.8509,1.779,1.7506,1.7204,1.6891,1.6863,1.6905,1.6946,1.693,1.6998,1.7057,1.7134,1.732,1.7572,1.7726,1.8014,1.8426,1.8825,1.9067,1.9196,1.9442,1.9719,1.9955,2.0089,2.0218,2.026,2.019,2.0143,1.9938,1.7383,1.6458,1.7644,1.5316,1.4007,1.5179,1.4437,1.1791,0.8815,0.3031,-0.0525,-0.1214,-0.1322,-0.1778,-0.2673,-0.2656,-0.265,-0.301,-0.3368,-0.37,-0.3878,-0.3928,-0.3858,-0.363,-0.3499,-0.327,-0.3499,-0.3826,-0.4151,-0.435,-0.4517,-0.4253,-0.3993,-0.3863,-0.3831,-0.3831,-0.3896,-0.4026,-0.4221,-0.4447,-0.4704,-0.4953,-0.5036,-0.5206,-0.4764,-0.4097,-0.4192,-0.4097,-0.4138,-0.4133,-0.419,-0.4127,-0.4328,-0.461,-0.5348,-0.5694,1.7922,1.7922,1.8016,1.8161,1.8319,1.8464,1.8697,1.8874,1.9003,1.913,1.9265,1.9376,1.9428,1.945,1.9581,1.9669,1.9647,1.9705,1.969,1.9639,1.956,1.9538,1.9611,1.9654,1.969,1.969,1.9705,1.9711,1.9647,1.928,1.8814,1.8346,1.7876,1.7369,1.7109,1.702,1.7023,1.7023,1.7039,1.7023,1.7023,1.7166,1.7264,1.7425,1.7658,1.7932,1.831,1.8716,1.8982,1.9132,1.9416,1.966,1.9842,1.996,2.0087,2.0218,2.0087,2.0077,1.9955,1.9193,1.904,1.9792,1.9163,1.9503,1.9506,1.9181,1.8846,1.7544,0.7685,0.0169,-0.0782,-0.0921,-0.1052,-0.1544,-0.2055,-0.2377,-0.2613,-0.2772,-0.3064,-0.3298,-0.327,-0.3076,-0.2878,-0.2746,-0.2679,-0.2841,-0.327,-0.3695,-0.4118,-0.4151,-0.3923,-0.3695,-0.3467,-0.3471,-0.3467,-0.3569,-0.3663,-0.3761,-0.4021,-0.4248,-0.4608,-0.4756,-0.4525,-0.4055,-0.3792,-0.3942,-0.4055,-0.4055,-0.3965,-0.3836,-0.3893,-0.4046,-0.4502,-0.5147,-0.5493,1.7922,1.7922,1.8135,1.8319,1.8464,1.875,1.8927,1.9064,1.9191,1.9265,1.9339,1.9487,1.9538,1.956,1.969,1.9762,1.9762,1.9884,1.9919,1.9919,1.9884,1.9777,1.969,1.9726,1.9762,1.9726,1.9741,1.9726,1.9711,1.9637,1.9356,1.8977,1.85,1.8061,1.7722,1.7332,1.719,1.7224,1.7174,1.7165,1.7149,1.7232,1.7321,1.7384,1.7566,1.7866,1.829,1.8752,1.9067,1.9261,1.942,1.9569,1.9692,1.9776,1.9861,1.9919,1.996,1.996,1.9979,1.9888,1.9978,2.0258,2.0063,2.0139,2.0434,2.0502,2.0504,1.8336,0.8928,0.1166,0.0447,0.0037,-0.041,-0.1211,-0.1492,-0.1697,-0.1926,-0.2275,-0.2573,-0.2673,-0.2779,-0.2746,-0.258,-0.238,-0.2214,-0.2474,-0.2805,-0.32,-0.3626,-0.3918,-0.3756,-0.3266,-0.3039,-0.3105,-0.3138,-0.3241,-0.3307,-0.3335,-0.3532,-0.3761,-0.4183,-0.4608,-0.4088,-0.3512,-0.3428,-0.3514,-0.3737,-0.3869,-0.3696,-0.3542,-0.3685,-0.3874,-0.4264,-0.4802,-0.5012,1.7895,1.7922,1.8201,1.8397,1.8581,1.9003,1.9242,1.9354,1.9472,1.956,1.9641,1.9647,1.972,1.9792,1.9869,1.9925,1.994,2.0061,2.0131,2.0131,2.0111,2.0025,1.9904,1.9869,1.9904,1.994,1.9904,1.9869,1.9904,1.999,1.9749,1.9366,1.9186,1.8747,1.7985,1.7815,1.7535,1.7363,1.7257,1.7248,1.7248,1.7281,1.7386,1.7472,1.7572,1.7888,1.8491,1.8825,1.9069,1.9261,1.9372,1.9468,1.9559,1.9578,1.9614,1.9705,1.9807,1.988,1.9926,2.0017,2.0098,2.0208,2.0277,2.0328,2.0421,2.0473,2.0511,1.9333,1.2995,0.7377,0.1975,0.068,0.0178,-0.039,-0.0714,-0.097,-0.1292,-0.1634,-0.1901,-0.2034,-0.2142,-0.2178,-0.2078,-0.1845,-0.1909,-0.2075,-0.2408,-0.2772,-0.3134,-0.3429,-0.3556,-0.3068,-0.2775,-0.2874,-0.2911,-0.301,-0.3072,-0.3072,-0.3171,-0.3368,-0.3793,-0.4253,-0.3743,-0.3214,-0.3118,-0.312,-0.3402,-0.3556,-0.3465,-0.3408,-0.3531,-0.3662,-0.3973,-0.4151,-0.4381,1.7975,1.7949,1.8214,1.8436,1.8707,1.9228,1.9538,1.9713,1.9797,1.9935,2.0025,1.9914,1.9919,2.0041,2.008,2.0115,2.0115,2.022,2.027,2.027,2.027,2.0235,2.0185,2.0045,2.0131,2.022,2.0185,2.015,2.0185,2.0339,2.0128,1.9794,1.9877,1.9308,1.8485,1.8268,1.7936,1.7445,1.7306,1.7322,1.7322,1.7354,1.7441,1.7606,1.7755,1.8128,1.866,1.8914,1.9018,1.9277,1.9289,1.9357,1.9453,1.9353,1.9383,1.955,1.9673,1.9782,1.982,1.9922,2.0029,2.0126,2.0241,2.0299,2.0334,2.0427,2.0488,2.0515,2.0503,1.3747,0.5657,0.2426,0.1604,0.0942,0.0151,-0.0222,-0.0668,-0.1001,-0.1283,-0.1478,-0.153,-0.1341,-0.1243,-0.1311,-0.1542,-0.1707,-0.2006,-0.2308,-0.2643,-0.2907,-0.3003,-0.2867,-0.2709,-0.2712,-0.2712,-0.2746,-0.2808,-0.2838,-0.294,-0.3105,-0.3397,-0.361,-0.3265,-0.2965,-0.2778,-0.2864,-0.3105,-0.3169,-0.3153,-0.3122,-0.3162,-0.3238,-0.3342,-0.344,-0.3637,1.8163,1.8163,1.8464,1.8683,1.8912,1.9398,1.9741,1.995,2.0131,2.02,2.0231,2.02,2.02,2.0235,2.027,2.027,2.027,2.0304,2.0304,2.0304,2.0304,2.0423,2.0441,2.0339,2.0289,2.0392,2.0376,2.0376,2.046,2.0561,2.0597,2.0509,2.0255,1.9774,1.9093,1.8618,1.812,1.7559,1.7395,1.7395,1.7378,1.7394,1.7496,1.7704,1.804,1.8428,1.8733,1.8861,1.9,1.9168,1.9232,1.928,1.9323,1.9338,1.9338,1.9383,1.9536,1.9679,1.9795,1.9873,1.9966,2.0098,2.0182,2.023,2.0302,2.0366,2.0446,2.0493,2.0312,1.6778,1.0447,0.8649,0.6242,0.3219,0.1251,0.09,0.0395,-0.0488,-0.0933,-0.1021,-0.0893,-0.0707,-0.0675,-0.1009,-0.1243,-0.1373,-0.1607,-0.1878,-0.2181,-0.2447,-0.2513,-0.254,-0.2441,-0.2411,-0.2577,-0.2543,-0.251,-0.254,-0.261,-0.2775,-0.3068,-0.3252,-0.3023,-0.2735,-0.2439,-0.2581,-0.2794,-0.2902,-0.2886,-0.2837,-0.2848,-0.2977,-0.3059,-0.3007,-0.304,1.8491,1.8242,1.8581,1.8851,1.9087,1.9639,1.9975,2.0166,2.0373,2.0441,2.0392,2.0407,2.0392,2.0392,2.0392,2.0407,2.0407,2.0339,2.0339,2.0339,2.0304,2.0457,2.066,2.061,2.0561,2.0745,2.0794,2.0827,2.0893,2.0958,2.1007,2.099,2.0873,2.0293,1.9486,1.9118,1.8493,1.7705,1.7522,1.7498,1.7505,1.7519,1.7635,1.7861,1.8246,1.86,1.8788,1.8861,1.8982,1.9117,1.9184,1.9232,1.9292,1.9271,1.9259,1.923,1.9372,1.9536,1.9673,1.9801,1.9904,2.005,2.0126,2.0205,2.0265,2.0334,2.0423,2.0443,2.0231,1.8789,1.5847,1.534,1.2069,0.6795,0.3086,0.205,0.2522,0.1176,-0.0419,-0.0542,-0.0566,-0.052,-0.0605,-0.0805,-0.0922,-0.1063,-0.1345,-0.1613,-0.1845,-0.2111,-0.2214,-0.2211,-0.2075,-0.2109,-0.2341,-0.2341,-0.2178,-0.2211,-0.2211,-0.2411,-0.2673,-0.2823,-0.2905,-0.2591,-0.228,-0.2229,-0.2403,-0.2521,-0.2698,-0.2798,-0.2856,-0.288,-0.2884,-0.289,-0.2934,1.8944,1.8307,1.8721,1.8974,1.925,1.9854,2.0185,2.0373,2.0626,2.0644,2.0561,2.0512,2.0561,2.0527,2.0527,2.0543,2.0494,2.0441,2.0407,2.0407,2.0373,2.0509,2.0677,2.0777,2.0958,2.1309,2.1214,2.1214,2.134,2.1433,2.1386,2.1309,2.1495,2.1006,2.0091,1.9621,1.9077,1.8017,1.7736,1.7675,1.7675,1.7726,1.7878,1.8048,1.8345,1.862,1.8788,1.8878,1.8965,1.9115,1.9184,1.9248,1.9274,1.9289,1.9261,1.9135,1.9311,1.9416,1.9546,1.9707,1.9877,2.0,2.0098,2.0153,2.0203,2.0292,2.036,2.041,2.0289,2.0322,2.0322,1.9533,1.6899,1.2409,0.6842,0.5411,0.4796,0.2964,0.0787,-0.0044,-0.026,-0.0327,-0.0424,-0.0597,-0.0686,-0.0805,-0.1065,-0.1323,-0.1528,-0.1676,-0.1711,-0.1713,-0.1577,-0.1842,-0.2075,-0.1909,-0.1778,-0.1845,-0.1847,-0.2078,-0.2275,-0.2317,-0.2383,-0.2421,-0.2217,-0.2176,-0.2166,-0.2298,-0.2493,-0.2729,-0.2868,-0.2901,-0.2843,-0.2781,-0.2856,1.9355,1.8707,1.9064,1.9288,1.9493,2.0045,2.0339,2.0494,2.0711,2.0777,2.0761,2.0761,2.0728,2.0728,2.0693,2.061,2.0545,2.0527,2.0543,2.0527,2.0478,2.0613,2.086,2.099,2.1277,2.154,2.1509,2.1509,2.1661,2.1738,2.1675,2.1595,2.1748,2.1516,2.1033,2.0444,1.9547,1.8603,1.8189,1.8014,1.807,1.821,1.8177,1.8318,1.8603,1.8801,1.8861,1.8914,1.9001,1.9216,1.9235,1.9248,1.9274,1.9305,1.9274,1.9292,1.9372,1.9431,1.9442,1.9641,1.9837,1.9963,2.0029,2.0098,2.0182,2.0225,2.0262,2.0334,2.0396,2.0438,2.034,2.0347,1.8785,1.6039,1.5293,1.3247,0.7756,0.3617,0.1245,0.0584,0.0268,-0.0044,-0.0126,-0.0203,-0.0242,-0.0425,-0.0734,-0.0942,-0.1121,-0.1151,-0.111,-0.1076,-0.1009,-0.141,-0.188,-0.1512,-0.1311,-0.1479,-0.1546,-0.1778,-0.1876,-0.1809,-0.1811,-0.2032,-0.2195,-0.2186,-0.2191,-0.2223,-0.2371,-0.2637,-0.2768,-0.288,-0.2821,-0.2753,-0.2789,2.0036,1.9153,1.942,1.9639,1.9797,2.022,2.046,2.061,2.0744,2.081,2.081,2.081,2.081,2.0794,2.0827,2.0778,2.0827,2.0827,2.0843,2.0827,2.0778,2.0844,2.1071,2.1183,2.1448,2.1721,2.1781,2.1797,2.1991,2.2007,2.1911,2.1878,2.1969,2.1854,2.1467,2.094,2.0077,1.9311,1.8847,1.8766,1.8977,1.9247,1.9195,1.8755,1.9248,1.9459,1.8895,1.9399,1.9397,1.9279,1.9298,1.936,1.939,1.9375,1.9305,1.9323,1.9402,1.9479,1.9442,1.9655,1.9825,1.9952,1.9998,2.003,2.0117,2.0164,2.0161,2.0211,2.0325,2.036,2.0304,2.0304,1.9532,1.8834,1.951,1.6488,1.0513,0.5091,0.2865,0.174,0.0807,0.0537,0.0403,0.0308,0.0223,-0.0043,-0.0355,-0.0542,-0.0655,-0.0591,-0.0528,-0.0808,-0.0841,-0.111,-0.1512,-0.1311,-0.1044,-0.1143,-0.1311,-0.151,-0.1577,-0.1542,-0.1709,-0.2003,-0.2093,-0.216,-0.2296,-0.234,-0.2452,-0.2568,-0.2663,-0.2715,-0.2747,-0.2747,-0.2761,2.0777,1.9753,1.9978,2.0157,2.0345,2.0798,2.097,2.0946,2.1029,2.0952,2.081,2.081,2.081,2.0827,2.0925,2.1055,2.1215,2.1167,2.1183,2.1183,2.1103,2.1166,2.1309,2.1433,2.1631,2.1928,2.2044,2.2118,2.2168,2.2197,2.2135,2.2118,2.2192,2.2029,2.1593,2.1429,2.0636,2.0216,1.971,1.9874,2.0223,2.0521,2.0322,1.9213,2.0377,2.0545,2.0251,2.017,2.0192,1.9861,1.9591,1.9438,1.9538,1.9715,1.9651,1.9378,1.9368,1.946,1.9578,1.9686,1.9825,1.9971,1.9977,2.0019,2.0049,2.0089,2.0098,2.0088,2.0171,2.0269,2.0241,2.026,2.0204,2.0185,1.9842,1.8568,1.4402,0.9882,0.5827,0.4145,0.2131,0.1122,0.0988,0.1077,0.1075,0.076,0.0417,0.0126,0.0042,0.004,-0.0038,-0.0521,-0.0774,-0.0943,-0.1145,-0.1177,-0.0977,-0.0942,-0.111,-0.1311,-0.1343,-0.1343,-0.1577,-0.1811,-0.2027,-0.2131,-0.2302,-0.2438,-0.2522,-0.2568,-0.257,-0.2587,-0.2616,-0.2606,-0.26,2.1546,2.084,2.1038,2.1183,2.1368,2.2097,2.2209,2.179,2.1726,2.1379,2.0922,2.081,2.0794,2.086,2.1023,2.1151,2.1277,2.1371,2.1448,2.1509,2.1462,2.1509,2.1664,2.1781,2.1882,2.2101,2.226,2.2321,2.2327,2.2282,2.2282,2.2265,2.2321,2.2354,2.2258,2.1979,2.1652,2.1482,2.1079,2.0909,2.1025,2.1153,2.1004,2.0912,2.1132,2.1643,2.2013,2.161,2.1076,2.1078,1.9928,1.947,1.9734,2.0939,2.0544,1.985,1.942,1.953,1.9634,1.983,1.9882,1.9998,1.9996,2.0026,2.0017,2.0039,2.0059,2.0026,2.0088,2.0135,2.0144,2.0144,2.0199,2.0269,2.0215,2.016,1.7988,1.5391,1.128,0.5668,0.3428,0.2177,0.1569,0.1749,0.1884,0.152,0.1204,0.089,0.0663,0.0548,0.0308,-0.021,-0.0639,-0.0808,-0.0943,-0.0977,-0.0875,-0.0774,-0.0908,-0.1076,-0.1075,-0.1108,-0.1343,-0.1577,-0.1811,-0.2075,-0.2214,-0.2355,-0.2492,-0.2485,-0.2377,-0.2414,-0.2501,-0.2477,-0.2444,2.2838,2.2118,2.2243,2.233,2.2413,2.2857,2.2897,2.2598,2.2147,2.1779,2.1415,2.097,2.0876,2.1038,2.1151,2.1355,2.1601,2.1705,2.184,2.1899,2.1882,2.1928,2.202,2.2106,2.2186,2.226,2.2388,2.2415,2.2405,2.2394,2.2366,2.2349,2.246,2.2596,2.272,2.2606,2.2645,2.2652,2.2562,2.2314,2.212,2.2282,2.2489,2.2402,2.2472,2.2679,2.2542,2.2461,2.1762,2.1625,2.0769,2.0741,2.1189,2.2204,2.2776,2.228,2.1263,2.0529,1.9838,2.0223,2.0251,2.0044,1.9993,1.9993,1.9971,1.9963,1.9974,1.9903,1.9974,2.0039,2.0098,2.0182,2.019,2.0235,2.0252,2.0265,2.0222,1.9927,1.6514,1.0435,0.4963,0.4047,0.2935,0.2284,0.2284,0.1875,0.1551,0.1276,0.0975,0.0794,0.0436,-0.0,-0.0371,-0.0639,-0.0774,-0.0875,-0.0673,-0.0572,-0.0606,-0.0739,-0.0774,-0.0875,-0.1108,-0.1345,-0.1581,-0.1814,-0.2047,-0.2305,-0.2494,-0.2338,-0.2114,-0.2158,-0.2166,-0.2247,-0.2234,2.42,2.361,2.3431,2.3367,2.3399,2.3631,2.3599,2.3343,2.2649,2.22,2.1832,2.1242,2.0958,2.1199,2.1309,2.154,2.1928,2.2044,2.2175,2.2231,2.226,2.226,2.2304,2.2377,2.2388,2.2432,2.2497,2.2525,2.2515,2.2515,2.2487,2.246,2.2579,2.2712,2.2876,2.3049,2.3206,2.3397,2.3494,2.3271,2.298,2.3304,2.3494,2.3562,2.3548,2.3322,2.2656,2.2715,2.2522,2.2274,2.2244,2.2264,2.2557,2.3327,2.3915,2.3584,2.2883,2.2191,2.1488,2.1288,2.0822,2.0297,1.9982,1.9971,1.9949,1.9915,1.9868,1.982,1.9938,2.0028,2.0117,2.0216,2.0208,2.0199,2.019,2.0188,2.0184,1.9976,1.9767,1.6131,1.0778,0.6383,0.5091,0.3403,0.2637,0.2228,0.1897,0.1606,0.1407,0.1206,0.0847,0.0447,0.0104,-0.0205,-0.0403,-0.0471,-0.037,-0.0371,-0.0372,-0.0471,-0.0572,-0.0707,-0.0908,-0.1145,-0.1325,-0.15,-0.1673,-0.207,-0.2447,-0.2147,-0.1885,-0.1812,-0.1818,-0.1909,-0.2115,2.555,2.5452,2.4478,2.4131,2.4195,2.4862,2.4756,2.4099,2.3375,2.2655,2.1917,2.1292,2.1055,2.1277,2.1417,2.1661,2.1998,2.2192,2.2332,2.246,2.2487,2.247,2.2515,2.2569,2.2579,2.2596,2.2649,2.2623,2.2623,2.2676,2.2649,2.2623,2.2738,2.2868,2.3028,2.3289,2.3522,2.366,2.3768,2.3792,2.359,2.3735,2.375,2.375,2.3725,2.3671,2.3648,2.359,2.3518,2.3304,2.3309,2.3408,2.3523,2.3971,2.4266,2.4137,2.4063,2.3596,2.3345,2.2428,2.1349,2.0493,2.0017,2.0055,1.999,1.9943,1.9876,2.0352,2.0921,2.069,2.0565,2.0199,2.019,2.0135,2.0117,2.0144,2.0153,2.0152,1.9942,1.9701,1.6794,1.2224,0.7212,0.5499,0.3049,0.2457,0.2149,0.1823,0.1908,0.173,0.1381,0.0996,0.0629,0.0351,0.0135,0.017,0.0351,0.0104,-0.0103,-0.0238,-0.0403,-0.0572,-0.0741,-0.0829,-0.0982,-0.1127,-0.1305,-0.1703,-0.1936,-0.1805,-0.1667,-0.1557,-0.1693,-0.1875,-0.2135,2.4468,2.4468,2.4525,2.4778,2.5146,2.5357,2.5341,2.4874,2.377,2.2545,2.1519,2.1231,2.1183,2.1386,2.1631,2.1886,2.2175,2.2388,2.2525,2.2632,2.2685,2.2712,2.2755,2.2712,2.2712,2.2729,2.2729,2.2685,2.2685,2.2764,2.2842,2.285,2.2944,2.3077,2.3289,2.3499,2.3682,2.375,2.3813,2.3795,2.3813,2.3813,2.3792,2.3795,2.3774,2.3789,2.3771,2.3792,2.381,2.3789,2.375,2.3813,2.3937,2.4173,2.4357,2.4375,2.4447,2.4465,2.4386,2.3494,2.2346,2.1116,2.0687,2.049,2.0191,2.075,2.1985,2.2596,2.2798,2.2626,2.3011,2.1462,2.0145,2.0069,2.0059,2.0089,2.0299,2.0404,2.0364,2.0265,1.989,1.7734,1.2513,0.7598,0.493,0.2669,0.2361,0.2102,0.2129,0.2148,0.1798,0.1485,0.1152,0.0891,0.0681,0.0835,0.1037,0.0651,0.0212,-0.0,-0.0207,-0.0438,-0.0577,-0.063,-0.0698,-0.0842,-0.1089,-0.133,-0.1452,-0.1431,-0.1364,-0.1241,-0.1481,-0.1791,-0.2069,2.3736,2.3785,2.4293,2.4865,2.5411,2.5598,2.5675,2.5464,2.434,2.2893,2.1537,2.1375,2.1325,2.1526,2.1751,2.2089,2.2332,2.2525,2.2685,2.279,2.2816,2.2868,2.285,2.285,2.2816,2.2816,2.2764,2.2721,2.2738,2.2868,2.2927,2.3028,2.3217,2.3342,2.3458,2.37,2.3831,2.3855,2.3858,2.3837,2.3855,2.3816,2.3834,2.3813,2.3795,2.3792,2.381,2.3792,2.3792,2.381,2.3828,2.3831,2.3978,2.4173,2.4462,2.4532,2.4515,2.4517,2.4383,2.4086,2.3136,2.1809,2.1154,2.0724,2.0589,2.11,2.1613,2.2748,2.384,2.4991,2.4915,2.3099,2.1001,2.0796,2.0142,2.0115,2.0783,2.106,2.0967,2.0851,2.0373,1.9697,1.569,1.0127,0.5947,0.3489,0.2383,0.2175,0.2154,0.2167,0.2078,0.1814,0.1633,0.1396,0.1229,0.1187,0.1089,0.0967,0.0566,0.0256,0.0,-0.0249,-0.0366,-0.0352,-0.0446,-0.0615,-0.0775,-0.1009,-0.1082,-0.1152,-0.1084,-0.1017,-0.1129,-0.1421,-0.1859,2.372,2.3786,2.3786,2.4213,2.4865,2.5586,2.5864,2.573,2.4912,2.3666,2.2232,2.1616,2.1464,2.1678,2.1915,2.2175,2.2443,2.2632,2.279,2.2876,2.2893,2.2919,2.2902,2.2902,2.2893,2.2893,2.2842,2.2816,2.2816,2.2944,2.3045,2.3199,2.3435,2.3616,2.3634,2.381,2.3935,2.3976,2.3976,2.3937,2.3917,2.3896,2.3876,2.3834,2.3834,2.3852,2.3795,2.3834,2.3834,2.3855,2.3994,2.3976,2.3919,2.4339,2.4601,2.466,2.458,2.4513,2.4498,2.4636,2.3808,2.2529,2.1883,2.1092,2.0271,2.0176,2.0876,2.2438,2.3613,2.4801,2.4915,2.4593,2.2697,2.1339,2.0725,2.0462,2.113,2.2296,2.234,2.1942,2.0948,1.9636,1.653,1.2623,0.7616,0.4572,0.2887,0.2255,0.2252,0.2307,0.2324,0.2183,0.2037,0.1853,0.1605,0.1291,0.1129,0.1083,0.0888,0.0593,0.0279,-0.0,-0.0084,-0.0087,-0.013,-0.0215,-0.0429,-0.0645,-0.0764,-0.0884,-0.0909,-0.0919,-0.0952,-0.1072,-0.1469,2.2479,2.2529,2.3008,2.3621,2.4314,2.49,2.5422,2.5619,2.4603,2.3276,2.2113,2.1636,2.1691,2.1899,2.2147,2.2388,2.2552,2.2747,2.2876,2.297,2.297,2.302,2.3003,2.2977,2.297,2.2944,2.2919,2.2868,2.2868,2.3028,2.3168,2.3336,2.3616,2.3831,2.3873,2.3955,2.3976,2.3978,2.3996,2.3976,2.3958,2.3976,2.3935,2.3876,2.3894,2.3873,2.3816,2.3873,2.3915,2.3958,2.4095,2.4115,2.4097,2.4517,2.4695,2.4707,2.4645,2.4615,2.4601,2.457,2.4216,2.3333,2.2675,2.1719,2.0289,1.9994,2.1032,2.2628,2.4005,2.501,2.4953,2.4934,2.3651,2.2401,2.1713,2.132,2.1829,2.3396,2.406,2.3286,2.2371,2.2598,2.0687,1.8164,1.3496,0.8998,0.7319,0.3629,0.2555,0.2631,0.2679,0.2566,0.2383,0.224,0.2051,0.1775,0.1523,0.139,0.1205,0.0863,0.057,0.0265,0.031,0.0354,0.0267,0.0179,0.0,-0.0176,-0.0486,-0.0622,-0.0672,-0.0719,-0.0753,-0.0836,-0.1061,2.1781,2.1847,2.2311,2.294,2.3686,2.4544,2.5201,2.5351,2.4065,2.2849,2.2172,2.1917,2.184,2.2015,2.2315,2.2579,2.2685,2.2842,2.2952,2.302,2.3045,2.307,2.307,2.3052,2.3045,2.302,2.2995,2.2944,2.2944,2.3102,2.3295,2.3508,2.375,2.3935,2.4016,2.4056,2.4074,2.4094,2.4094,2.4056,2.4036,2.4016,2.4014,2.3955,2.3953,2.3933,2.3933,2.3992,2.4071,2.4114,2.4192,2.4266,2.4374,2.4547,2.4787,2.4802,2.4742,2.4679,2.4631,2.4663,2.4369,2.3971,2.3712,2.2605,2.1116,2.0998,2.245,2.3929,2.4885,2.501,2.4991,2.4991,2.439,2.3101,2.2937,2.2546,2.2745,2.4295,2.4853,2.4137,2.3984,2.4438,2.4495,2.3256,2.0186,1.5951,1.1966,0.7928,0.3786,0.3058,0.3015,0.2791,0.2646,0.2493,0.2429,0.2315,0.2061,0.1794,0.1479,0.1165,0.0895,0.0579,0.0672,0.0808,0.0807,0.0716,0.0539,0.0314,0.0045,-0.0223,-0.0404,-0.0494,-0.0584,-0.0718,-0.0851,2.1781,2.1781,2.1781,2.2261,2.3073,2.4332,2.4962,2.4979,2.3521,2.2843,2.2789,2.2073,2.1974,2.2084,2.2371,2.2632,2.2816,2.2944,2.302,2.307,2.3095,2.3095,2.3095,2.3095,2.3095,2.307,2.3045,2.3003,2.3003,2.3193,2.344,2.371,2.3876,2.4036,2.4133,2.4171,2.4171,2.4171,2.4152,2.4134,2.4114,2.4094,2.4074,2.4034,2.4032,2.4032,2.4014,2.4074,2.4152,2.4229,2.4338,2.4372,2.4493,2.4679,2.4832,2.4908,2.4802,2.4726,2.4647,2.4692,2.4768,2.4511,2.4058,2.3187,2.2703,2.2469,2.3544,2.4435,2.5114,2.5031,2.5004,2.4834,2.4612,2.4269,2.4214,2.4068,2.396,2.4541,2.4958,2.4893,2.4874,2.495,2.4461,2.3687,2.3321,2.0976,1.6999,1.4564,0.9975,0.3587,0.344,0.2952,0.2808,0.2729,0.2652,0.2618,0.2452,0.2145,0.1799,0.1479,0.1166,0.0989,0.1121,0.1211,0.1345,0.13,0.1122,0.0853,0.0583,0.0314,-0.0045,-0.036,-0.0539,-0.0629,-0.0763,2.1781,2.1781,2.1781,2.2212,2.2907,2.3418,2.3647,2.3594,2.3207,2.2869,2.2392,2.231,2.2248,2.2371,2.2605,2.279,2.2919,2.302,2.307,2.3095,2.3102,2.3119,2.3102,2.3102,2.3102,2.3095,2.3077,2.3052,2.3126,2.3289,2.3571,2.3896,2.3996,2.4133,2.4228,2.4266,2.4229,2.421,2.421,2.4191,2.4172,2.4171,2.4133,2.4112,2.4112,2.4112,2.4132,2.4229,2.4302,2.4373,2.451,2.461,2.4626,2.4817,2.4983,2.4903,2.4875,2.4861,2.4723,2.4783,2.4889,2.4959,2.465,2.4497,2.4153,2.4077,2.441,2.4884,2.5156,2.5107,2.5025,2.4866,2.4771,2.4731,2.4737,2.4708,2.4624,2.4743,2.513,2.516,2.516,2.5096,2.4618,2.4572,2.4159,2.3364,2.1965,1.9672,1.4947,0.807,0.3775,0.3232,0.3023,0.2892,0.2847,0.2847,0.2682,0.2502,0.2227,0.1935,0.169,0.1552,0.1578,0.1614,0.1703,0.1748,0.1705,0.139,0.1075,0.0627,0.0224,-0.0135,-0.045,-0.0584,-0.069,2.1781,2.1781,2.1781,2.2062,2.2441,2.2612,2.2731,2.279,2.2832,2.2603,2.2394,2.2415,2.2515,2.2579,2.2764,2.2893,2.2995,2.3095,2.3144,2.3144,2.3151,2.3168,2.3168,2.3126,2.3144,2.3119,2.3119,2.3077,2.3193,2.343,2.3721,2.3976,2.4094,2.419,2.4284,2.4303,2.4303,2.4284,2.4248,2.4229,2.4247,2.4247,2.4209,2.4209,2.4209,2.419,2.4247,2.4392,2.4476,2.4508,2.4673,2.4749,2.4764,2.4917,2.4996,2.495,2.495,2.4936,2.4861,2.4889,2.5018,2.5082,2.5088,2.4956,2.4892,2.4784,2.4958,2.5187,2.5184,2.5168,2.5088,2.5006,2.4993,2.498,2.5038,2.5095,2.5082,2.5056,2.5106,2.5137,2.5168,2.5199,2.5153,2.521,2.5138,2.4534,2.4281,2.3515,1.7632,0.9739,0.5397,0.3352,0.3224,0.3061,0.3063,0.3023,0.2939,0.2914,0.2986,0.2648,0.2307,0.2148,0.2182,0.211,0.2062,0.2018,0.1973,0.1794,0.1479,0.1031,0.0627,0.0314,-0.009,-0.0539,-0.0652,2.1811,2.1811,2.1827,2.1844,2.1857,2.2111,2.2271,2.231,2.24,2.246,2.2596,2.2632,2.2685,2.279,2.2902,2.2977,2.3095,2.3168,2.3217,2.3217,2.3223,2.3241,2.3217,2.3199,2.3175,2.3126,2.3126,2.3175,2.3247,2.3458,2.3765,2.3996,2.4133,2.4247,2.4339,2.4375,2.4393,2.4375,2.4339,2.4321,2.4303,2.4321,2.4284,2.4284,2.4284,2.4266,2.4412,2.4532,2.4645,2.4689,2.4779,2.4865,2.494,2.4999,2.5018,2.501,2.5023,2.4996,2.4964,2.4977,2.5057,2.512,2.5137,2.5137,2.5118,2.5091,2.5179,2.5241,2.525,2.5195,2.5137,2.5088,2.5063,2.5025,2.5044,2.5082,2.5088,2.5069,2.5101,2.5132,2.5168,2.521,2.5236,2.5236,2.5203,2.5195,2.5179,2.5233,2.1855,1.3421,0.8529,0.5201,0.3647,0.3542,0.3252,0.3213,0.3183,0.3221,0.3387,0.3319,0.2934,0.2838,0.2828,0.2682,0.2509,0.2286,0.2152,0.1973,0.1749,0.1479,0.112,0.0807,0.0359,-0.0135,-0.024,2.1911,2.194,2.1899,2.184,2.1811,2.1986,2.2203,2.246,2.2605,2.2712,2.2747,2.2919,2.2995,2.2977,2.3052,2.3144,2.3217,2.3241,2.3283,2.3265,2.3313,2.3295,2.3271,2.3247,2.3247,2.3247,2.323,2.3277,2.3435,2.3616,2.3831,2.4115,2.421,2.4284,2.4445,2.4481,2.4482,2.4465,2.4446,2.4411,2.4375,2.4339,2.4284,2.4303,2.4303,2.4339,2.4498,2.466,2.4738,2.4798,2.4907,2.5,2.5106,2.5144,2.512,2.507,2.5057,2.5063,2.505,2.5063,2.5095,2.5144,2.518,2.5191,2.5203,2.5179,2.5212,2.5273,2.5273,2.5239,2.5195,2.5168,2.512,2.507,2.5031,2.5038,2.5057,2.5063,2.5082,2.512,2.5156,2.5214,2.5258,2.5239,2.5225,2.5206,2.5209,2.5233,2.5284,1.9972,1.3737,0.9787,0.5085,0.4157,0.408,0.3479,0.3405,0.3528,0.3666,0.359,0.3482,0.3333,0.3197,0.3031,0.2909,0.2598,0.233,0.2062,0.1882,0.1703,0.1614,0.13,0.1032,0.0583,0.0543,2.1969,2.1998,2.1969,2.1928,2.1928,2.2044,2.2276,2.2487,2.2764,2.2927,2.2995,2.3119,2.3193,2.3193,2.3241,2.3265,2.3313,2.3354,2.3336,2.3336,2.336,2.336,2.336,2.3319,2.3295,2.3295,2.3277,2.3348,2.3589,2.3685,2.3858,2.4192,2.4266,2.4375,2.453,2.4549,2.4551,2.4498,2.4498,2.4481,2.4429,2.4393,2.4393,2.4393,2.4411,2.4446,2.4564,2.4738,2.4837,2.4921,2.5025,2.5091,2.5164,2.5191,2.5168,2.5144,2.5132,2.512,2.5095,2.5095,2.5107,2.5132,2.518,2.5191,2.5203,2.5198,2.5222,2.5283,2.5303,2.5262,2.525,2.5206,2.5172,2.5137,2.5095,2.507,2.5019,2.4987,2.5038,2.5095,2.5156,2.5206,2.525,2.5222,2.5209,2.5209,2.5212,2.5233,2.5274,2.5303,1.9492,1.5064,1.0822,0.7666,0.7504,0.5788,0.3704,0.379,0.3848,0.3908,0.3824,0.3674,0.3519,0.3324,0.3132,0.2862,0.2595,0.2284,0.2062,0.1882,0.1884,0.1839,0.1526,0.1262,0.1163,2.2044,2.2027,2.2044,2.2027,2.2027,2.2209,2.2321,2.2487,2.2816,2.3077,2.3193,2.3307,2.3336,2.336,2.3319,2.3336,2.3378,2.3401,2.3407,2.3412,2.3494,2.3476,2.3458,2.3435,2.3389,2.3383,2.3342,2.3481,2.3696,2.375,2.3919,2.4247,2.4393,2.4464,2.4566,2.4599,2.4582,2.453,2.453,2.4513,2.4515,2.4517,2.45,2.45,2.4517,2.4532,2.4645,2.4779,2.4902,2.5006,2.5111,2.5168,2.522,2.5248,2.5214,2.5191,2.5191,2.518,2.5168,2.5125,2.5107,2.5082,2.5156,2.5191,2.5214,2.5228,2.5262,2.5313,2.5322,2.5303,2.5273,2.5271,2.522,2.5164,2.5113,2.5089,2.5025,2.4942,2.5006,2.5051,2.5061,2.5122,2.5262,2.5253,2.5243,2.5233,2.5222,2.5243,2.5273,2.5252,2.2656,2.0262,1.7865,1.5041,1.1882,0.8248,0.5336,0.3732,0.3776,0.4012,0.4088,0.3784,0.3586,0.3536,0.3309,0.3084,0.2818,0.2551,0.2328,0.215,0.2064,0.202,0.1973,0.1722,0.1692,2.2168,2.2168,2.2152,2.2106,2.2027,2.2237,2.2349,2.2542,2.2825,2.3119,2.3289,2.3471,2.3562,2.3611,2.3544,2.3539,2.3517,2.3517,2.3481,2.3486,2.3544,2.3571,2.3553,2.3531,2.3549,2.3522,2.3476,2.3567,2.3721,2.3813,2.3999,2.4284,2.4429,2.4515,2.465,2.465,2.4615,2.458,2.4582,2.4582,2.4547,2.4532,2.4515,2.4498,2.4517,2.4582,2.4673,2.4818,2.4915,2.5019,2.5134,2.5231,2.5252,2.5271,2.525,2.5217,2.5217,2.5217,2.5206,2.5172,2.5125,2.5144,2.5203,2.5225,2.5217,2.522,2.5293,2.5406,2.5406,2.5341,2.5313,2.5303,2.5273,2.5187,2.5106,2.5082,2.5031,2.498,2.4993,2.4873,2.4724,2.5011,2.5406,2.5388,2.5361,2.5332,2.5252,2.5273,2.5293,2.5231,2.5176,2.4141,2.2935,1.9587,1.5208,1.0608,0.7457,0.5327,0.3641,0.386,0.3874,0.3717,0.3602,0.3571,0.3445,0.3217,0.2996,0.2771,0.2684,0.2509,0.2288,0.2201,0.2154,0.2166,0.2135]}]]